[[{"header":{"parameterUnit":"m.s-1","parameterCategory":1,"la1":30.6,"la2":29.2853,"lo1":-89.7004,"lo2":-87.6739,"dy":0.0162,"dx":0.0183,"nx":112,"ny":82,"refTime":"2023-06-04T12:00:00:Z","depth":0,"parameterNumber":2,"parameterNumberName":"U-component_of_WINDS"},"data":[0.0,0.0,0.0,0.0,0.0,0.0,0.0,0.0,0.0,0.0,0.0,0.0,0.0,0.0,0.0,0.0,0.0,0.0,0.0,0.0,0.0,0.0,0.0,0.0,0.0,0.0,0.0,0.0,0.0,0.0,0.0,0.0,0.0,0.0,0.0,0.0,0.0,0.0,0.0,0.0,0.0,0.0,0.0,0.0,0.0,0.0,0.0,0.0,0.0,0.0,0.0,0.0,0.0,0.0,0.0,0.0,0.0,0.0,0.0,0.0,0.0,0.0,0.0,0.0,0.0,0.0,0.0,0.0,0.0,0.0,0.0,0.0,0.0,0.0,0.0,0.0,0.0,0.0,0.0,0.0,0.0,0.0,0.0,0.0,0.0,0.0,0.0,0.0,0.0,0.0,-3.8781,-4.4003,-5.102,-5.5074,-5.4416,-5.4311,-5.0945,-4.315,0.0,0.0,0.0,0.0,0.0,0.0,0.0,0.0,0.0,0.0,0.0,0.0,0.0,0.0,0.0,0.0,0.0,0.0,0.0,0.0,0.0,0.0,0.0,0.0,0.0,0.0,0.0,0.0,0.0,0.0,0.0,0.0,0.0,0.0,0.0,0.0,0.0,0.0,0.0,0.0,0.0,0.0,0.0,0.0,0.0,0.0,0.0,0.0,0.0,0.0,0.0,0.0,0.0,0.0,0.0,0.0,0.0,0.0,0.0,0.0,0.0,0.0,0.0,0.0,0.0,0.0,0.0,0.0,0.0,0.0,0.0,0.0,0.0,0.0,0.0,0.0,0.0,0.0,0.0,0.0,0.0,0.0,0.0,0.0,0.0,0.0,0.0,0.0,0.0,0.0,0.0,0.0,0.0,0.0,0.0,0.0,0.0,0.0,0.0,0.0,0.0,0.0,0.0,0.0,-4.116,-4.9164,-5.3623,-5.5763,-5.5104,-5.2052,-4.8416,-4.4272,0.0,0.0,0.0,0.0,0.0,0.0,0.0,0.0,0.0,0.0,0.0,0.0,0.0,0.0,0.0,0.0,0.0,0.0,0.0,0.0,0.0,0.0,0.0,0.0,0.0,0.0,0.0,0.0,0.0,0.0,0.0,0.0,0.0,0.0,0.0,0.0,0.0,0.0,0.0,0.0,0.0,0.0,0.0,0.0,0.0,0.0,0.0,0.0,0.0,0.0,0.0,0.0,0.0,0.0,0.0,0.0,0.0,0.0,0.0,0.0,0.0,0.0,0.0,0.0,0.0,0.0,0.0,0.0,0.0,0.0,0.0,0.0,0.0,0.0,0.0,0.0,0.0,0.0,0.0,0.0,0.0,0.0,0.0,0.0,0.0,0.0,0.0,0.0,0.0,0.0,0.0,0.0,0.0,0.0,0.0,0.0,0.0,0.0,0.0,0.0,0.0,0.0,0.0,-4.0546,-4.4466,-5.0571,-5.3862,-5.5224,-5.4192,-5.1783,-4.8446,-4.4062,-4.2332,0.0,0.0,0.0,0.0,0.0,0.0,0.0,0.0,0.0,0.0,0.0,0.0,0.0,0.0,0.0,0.0,0.0,0.0,0.0,0.0,0.0,0.0,0.0,0.0,0.0,0.0,0.0,0.0,0.0,0.0,0.0,0.0,0.0,0.0,0.0,0.0,0.0,0.0,0.0,0.0,0.0,0.0,0.0,0.0,0.0,0.0,0.0,0.0,0.0,0.0,0.0,0.0,0.0,0.0,0.0,0.0,0.0,0.0,0.0,0.0,0.0,0.0,0.0,0.0,0.0,0.0,0.0,0.0,0.0,0.0,0.0,0.0,0.0,0.0,0.0,0.0,0.0,0.0,0.0,0.0,0.0,0.0,0.0,0.0,0.0,0.0,0.0,0.0,0.0,0.0,0.0,0.0,0.0,0.0,0.0,0.0,0.0,0.0,0.0,0.0,0.0,0.0,-4.4032,-4.6935,-5.0601,-5.3369,-5.4242,-5.2411,-5.0768,-4.7585,-4.2607,-3.9958,0.0,0.0,0.0,0.0,0.0,0.0,0.0,0.0,0.0,0.0,0.0,0.0,0.0,0.0,0.0,0.0,0.0,0.0,0.0,0.0,0.0,0.0,0.0,0.0,0.0,0.0,0.0,0.0,0.0,0.0,0.0,0.0,0.0,0.0,0.0,0.0,0.0,0.0,0.0,0.0,0.0,0.0,0.0,0.0,0.0,0.0,0.0,0.0,0.0,0.0,0.0,0.0,0.0,0.0,0.0,0.0,0.0,0.0,0.0,0.0,0.0,0.0,0.0,0.0,0.0,0.0,0.0,0.0,0.0,0.0,0.0,0.0,0.0,0.0,0.0,0.0,0.0,0.0,0.0,0.0,0.0,0.0,0.0,0.0,0.0,0.0,0.0,0.0,0.0,0.0,0.0,0.0,0.0,0.0,0.0,0.0,0.0,0.0,0.0,0.0,0.0,0.0,-4.3883,-4.7294,-5.0017,-5.2695,-5.2951,-4.9857,-4.6988,-4.3676,-3.9606,-3.6094,0.0,0.0,0.0,0.0,0.0,0.0,0.0,0.0,0.0,0.0,0.0,0.0,0.0,0.0,0.0,0.0,0.0,0.0,0.0,0.0,0.0,0.0,0.0,0.0,0.0,0.0,0.0,0.0,0.0,0.0,0.0,0.0,0.0,0.0,0.0,0.0,0.0,0.0,0.0,0.0,0.0,0.0,0.0,0.0,0.0,0.0,0.0,0.0,0.0,0.0,0.0,0.0,0.0,0.0,0.0,0.0,0.0,0.0,0.0,0.0,0.0,0.0,0.0,0.0,0.0,0.0,0.0,0.0,0.0,0.0,0.0,0.0,0.0,0.0,0.0,0.0,0.0,0.0,0.0,0.0,0.0,0.0,0.0,0.0,0.0,0.0,0.0,0.0,0.0,0.0,0.0,0.0,0.0,0.0,0.0,0.0,0.0,0.0,0.0,0.0,0.0,0.0,-4.163,-4.401,-4.6924,-4.888,-4.9266,-4.7645,-4.5783,-4.309,-3.9239,0.0,0.0,0.0,0.0,0.0,0.0,0.0,0.0,0.0,0.0,0.0,0.0,0.0,0.0,0.0,0.0,0.0,0.0,0.0,0.0,0.0,0.0,0.0,0.0,0.0,0.0,0.0,0.0,0.0,0.0,0.0,0.0,0.0,0.0,0.0,0.0,0.0,0.0,0.0,0.0,0.0,0.0,0.0,0.0,0.0,0.0,0.0,0.0,0.0,0.0,0.0,0.0,0.0,0.0,0.0,0.0,0.0,0.0,0.0,0.0,0.0,0.0,0.0,0.0,0.0,0.0,0.0,0.0,0.0,0.0,0.0,0.0,0.0,0.0,0.0,0.0,0.0,0.0,0.0,0.0,0.0,0.0,0.0,0.0,0.0,0.0,0.0,0.0,0.0,0.0,0.0,0.0,0.0,0.0,0.0,0.0,0.0,0.0,0.0,0.0,0.0,0.0,-3.8578,-4.0053,-4.1937,-4.49,-4.612,-4.638,-4.5285,-4.3423,-4.0981,-3.7819,0.0,0.0,0.0,0.0,0.0,0.0,0.0,0.0,0.0,0.0,0.0,0.0,0.0,0.0,0.0,0.0,0.0,0.0,0.0,0.0,0.0,0.0,0.0,0.0,0.0,0.0,0.0,0.0,0.0,0.0,0.0,0.0,0.0,0.0,0.0,0.0,0.0,0.0,0.0,0.0,0.0,0.0,0.0,0.0,0.0,0.0,0.0,0.0,0.0,0.0,0.0,0.0,0.0,0.0,0.0,0.0,0.0,0.0,0.0,0.0,0.0,0.0,0.0,0.0,0.0,0.0,0.0,0.0,0.0,0.0,0.0,0.0,0.0,0.0,0.0,0.0,0.0,0.0,0.0,0.0,0.0,0.0,0.0,0.0,0.0,0.0,0.0,0.0,0.0,0.0,0.0,0.0,0.0,0.0,0.0,0.0,0.0,0.0,0.0,0.0,0.0,0.0,-3.7606,-3.9595,-4.1667,-4.4221,-4.5024,-4.4642,-4.2677,-3.9522,-3.676,0.0,0.0,0.0,0.0,0.0,0.0,0.0,0.0,0.0,0.0,0.0,0.0,0.0,0.0,0.0,0.0,0.0,0.0,0.0,0.0,0.0,0.0,0.0,0.0,0.0,0.0,0.0,0.0,0.0,0.0,0.0,0.0,0.0,0.0,0.0,0.0,0.0,0.0,0.0,0.0,0.0,0.0,0.0,0.0,0.0,0.0,0.0,0.0,0.0,0.0,0.0,0.0,0.0,0.0,0.0,0.0,0.0,0.0,0.0,0.0,0.0,0.0,0.0,0.0,0.0,0.0,0.0,0.0,0.0,0.0,0.0,0.0,0.0,0.0,0.0,0.0,0.0,0.0,0.0,0.0,0.0,0.0,0.0,0.0,0.0,0.0,0.0,0.0,0.0,0.0,0.0,0.0,0.0,0.0,0.0,0.0,0.0,0.0,0.0,0.0,0.0,0.0,0.0,-3.6324,-3.693,-3.8101,-4.0805,-4.1334,-4.1015,-4.007,-3.7999,-3.5976,-3.4223,0.0,0.0,0.0,0.0,0.0,0.0,0.0,0.0,0.0,0.0,0.0,0.0,0.0,0.0,0.0,0.0,0.0,0.0,0.0,0.0,0.0,0.0,0.0,0.0,0.0,0.0,0.0,0.0,0.0,0.0,0.0,0.0,0.0,0.0,0.0,0.0,0.0,0.0,0.0,0.0,0.0,0.0,0.0,0.0,0.0,0.0,0.0,0.0,0.0,0.0,0.0,0.0,0.0,0.0,0.0,0.0,0.0,0.0,0.0,0.0,0.0,0.0,0.0,0.0,0.0,0.0,0.0,0.0,0.0,0.0,0.0,0.0,0.0,0.0,0.0,0.0,0.0,0.0,0.0,0.0,0.0,0.0,0.0,0.0,0.0,0.0,0.0,0.0,0.0,0.0,0.0,0.0,0.0,0.0,0.0,0.0,0.0,0.0,0.0,0.0,0.0,0.0,-3.4886,-3.5212,-3.6194,-3.8755,-3.9233,-3.9132,-3.858,-3.7199,-3.5567,-3.3684,0.0,0.0,0.0,0.0,0.0,0.0,0.0,0.0,0.0,0.0,0.0,0.0,0.0,0.0,0.0,0.0,0.0,0.0,0.0,0.0,0.0,0.0,0.0,0.0,0.0,0.0,0.0,0.0,0.0,0.0,0.0,0.0,0.0,0.0,0.0,0.0,0.0,0.0,0.0,0.0,0.0,0.0,0.0,0.0,0.0,0.0,0.0,0.0,0.0,0.0,0.0,0.0,0.0,0.0,0.0,0.0,0.0,0.0,0.0,0.0,0.0,0.0,0.0,0.0,0.0,0.0,0.0,0.0,0.0,0.0,0.0,0.0,0.0,0.0,0.0,0.0,0.0,0.0,0.0,0.0,0.0,0.0,0.0,0.0,0.0,0.0,0.0,0.0,0.0,0.0,0.0,0.0,0.0,0.0,0.0,0.0,0.0,0.0,0.0,0.0,0.0,0.0,-3.3684,-3.4374,-3.5504,-3.7764,-3.8479,-3.8555,-3.7977,-3.6872,-3.5316,-3.3206,0.0,0.0,0.0,0.0,0.0,0.0,0.0,0.0,0.0,0.0,0.0,0.0,0.0,0.0,0.0,0.0,0.0,0.0,0.0,0.0,0.0,0.0,0.0,0.0,0.0,0.0,0.0,0.0,0.0,0.0,0.0,0.0,0.0,0.0,0.0,0.0,0.0,0.0,0.0,0.0,0.0,0.0,0.0,0.0,0.0,0.0,0.0,0.0,0.0,0.0,0.0,0.0,0.0,0.0,0.0,0.0,0.0,0.0,0.0,0.0,-3.2297,0.0,0.0,0.0,0.0,0.0,0.0,0.0,0.0,0.0,0.0,0.0,0.0,0.0,0.0,0.0,0.0,0.0,0.0,0.0,0.0,0.0,0.0,0.0,0.0,0.0,0.0,0.0,0.0,0.0,0.0,0.0,0.0,0.0,0.0,0.0,0.0,0.0,0.0,0.0,0.0,0.0,-3.4148,-3.4274,-3.509,-3.7726,-3.8115,-3.7965,-3.7412,-3.5956,-3.45,-3.3156,-3.1223,0.0,0.0,0.0,0.0,0.0,0.0,0.0,0.0,0.0,0.0,0.0,0.0,0.0,0.0,0.0,0.0,0.0,0.0,0.0,0.0,0.0,0.0,0.0,0.0,0.0,0.0,0.0,0.0,0.0,0.0,0.0,0.0,0.0,0.0,0.0,0.0,0.0,0.0,0.0,0.0,0.0,0.0,0.0,0.0,0.0,0.0,0.0,0.0,0.0,0.0,0.0,0.0,0.0,0.0,0.0,0.0,0.0,0.0,0.0,0.0,-3.344,0.0,0.0,0.0,0.0,0.0,0.0,0.0,0.0,0.0,0.0,0.0,0.0,0.0,0.0,0.0,0.0,0.0,0.0,0.0,0.0,0.0,0.0,0.0,0.0,0.0,0.0,0.0,0.0,0.0,0.0,0.0,0.0,0.0,0.0,0.0,0.0,0.0,0.0,0.0,0.0,-3.3935,-3.3847,-3.4449,-3.6948,-3.745,-3.7387,-3.6835,-3.5768,-3.4412,-3.2767,-3.1336,0.0,0.0,0.0,0.0,0.0,0.0,0.0,0.0,0.0,0.0,0.0,0.0,0.0,0.0,0.0,0.0,0.0,0.0,0.0,0.0,0.0,0.0,0.0,0.0,0.0,0.0,0.0,0.0,0.0,0.0,0.0,0.0,0.0,0.0,0.0,0.0,0.0,0.0,0.0,0.0,0.0,0.0,0.0,0.0,0.0,0.0,0.0,0.0,0.0,0.0,0.0,0.0,0.0,-4.2223,-4.201,-4.1124,-4.0999,-4.0679,-4.0142,-3.7853,-3.6477,-3.5789,-3.51,0.0,0.0,0.0,0.0,0.0,0.0,0.0,0.0,0.0,0.0,0.0,0.0,0.0,0.0,0.0,0.0,0.0,0.0,0.0,0.0,0.0,0.0,0.0,0.0,-3.1612,-3.1009,0.0,0.0,0.0,0.0,0.0,0.0,0.0,0.0,0.0,0.0,0.0,0.0,-3.3571,-3.3508,-3.4022,-3.6132,-3.6772,-3.686,-3.6408,-3.5768,-3.4575,-3.2629,-3.1725,-3.0482,0.0,0.0,0.0,0.0,0.0,0.0,0.0,0.0,0.0,0.0,0.0,0.0,0.0,0.0,0.0,0.0,0.0,0.0,0.0,0.0,0.0,0.0,0.0,0.0,0.0,0.0,0.0,0.0,0.0,0.0,0.0,0.0,-3.2843,-3.1967,0.0,0.0,0.0,0.0,0.0,0.0,0.0,0.0,0.0,0.0,0.0,0.0,0.0,-4.139,-4.2675,-4.3996,-4.4614,-4.454,-4.4922,-4.4719,-4.3941,-4.3242,-4.3199,-4.3614,-4.2701,0.0,-3.7105,-3.6477,0.0,0.0,0.0,0.0,0.0,0.0,0.0,0.0,0.0,0.0,0.0,0.0,0.0,0.0,0.0,0.0,0.0,0.0,0.0,0.0,0.0,0.0,-3.1424,-3.1976,-3.2491,-3.2491,0.0,-3.0608,-3.0231,-2.9679,-2.9289,0.0,0.0,0.0,0.0,0.0,0.0,0.0,-3.3671,-3.3834,-3.4449,-3.6169,-3.642,-3.6445,-3.637,-3.5416,-3.45,-3.3721,-3.1813,-3.0783,-3.0947,-2.9189,0.0,0.0,0.0,0.0,0.0,0.0,0.0,0.0,0.0,0.0,0.0,0.0,0.0,0.0,0.0,0.0,0.0,0.0,0.0,0.0,0.0,0.0,0.0,0.0,0.0,0.0,0.0,0.0,0.0,-3.2553,-3.3758,-3.1696,-3.328,-3.3627,0.0,0.0,0.0,0.0,0.0,0.0,0.0,0.0,0.0,-4.2083,-4.3572,-4.4857,-4.594,-4.7057,-4.7773,-4.799,-4.7903,-4.7671,-4.7213,-4.6821,-4.6815,-4.7055,-4.6396,-4.4706,-4.2252,-4.0113,-3.8452,-3.715,0.0,0.0,0.0,0.0,-3.4367,-3.3669,-3.3384,-3.2782,0.0,-3.1913,0.0,0.0,0.0,0.0,0.0,0.0,0.0,0.0,0.0,0.0,-3.2943,-3.3495,-3.3822,-3.3784,-3.2968,-3.2616,-3.1938,0.0,-3.0068,-3.0382,-3.0583,0.0,0.0,0.0,0.0,-3.1662,-3.3646,-3.3897,-3.4525,-3.6182,-3.6094,-3.5893,-3.5893,-3.4889,-3.3884,-3.3006,-3.175,-3.0733,-3.003,-2.939,-2.9101,0.0,0.0,0.0,0.0,0.0,0.0,0.0,0.0,0.0,0.0,0.0,0.0,0.0,0.0,0.0,0.0,0.0,0.0,0.0,0.0,0.0,0.0,0.0,0.0,0.0,0.0,0.0,0.0,-3.3396,-3.4555,-3.1788,-3.4404,-3.5292,0.0,0.0,0.0,0.0,0.0,0.0,-4.1424,-4.3267,-4.4807,-4.5957,-4.7428,-4.8523,-4.9181,-4.9977,-5.0435,-5.0643,-5.0058,-4.968,-4.9508,-4.9344,-4.9179,-4.8985,-4.8327,-4.7474,-4.6352,-4.3359,-4.1354,-3.9993,-3.8197,-3.7764,-3.7927,-3.6255,-3.5571,-3.5466,-3.4756,-3.4168,-3.3571,-3.2867,0.0,-3.2152,-3.0658,0.0,0.0,0.0,0.0,-3.1763,-3.2466,-3.337,-3.4248,-3.4801,-3.5039,-3.4989,-3.4437,-3.4211,-3.337,0.0,-3.0947,-3.1361,-3.126,0.0,0.0,0.0,0.0,-3.1675,-3.3458,-3.3809,-3.4424,-3.5793,-3.5579,-3.5341,-3.5341,-3.4449,-3.3483,-3.2491,-3.1775,-3.0783,-2.9415,-2.9247,-2.8771,-2.794,0.0,0.0,0.0,0.0,0.0,0.0,0.0,0.0,0.0,0.0,0.0,0.0,0.0,0.0,0.0,0.0,0.0,0.0,0.0,0.0,0.0,0.0,0.0,0.0,0.0,0.0,0.0,0.0,0.0,-3.2618,-3.6751,0.0,0.0,0.0,0.0,-4.0713,-4.1593,-4.3047,-4.5297,-4.6194,-4.7597,-4.9746,-5.1251,-5.2201,-5.2646,-5.2434,-5.2166,-5.1682,-5.0713,-5.0152,-5.0167,-4.9553,-4.8925,-4.8297,-4.7638,-4.7309,-4.71,-4.502,-4.3389,-4.2073,-4.0726,-4.0217,-4.0172,-3.9399,-3.7893,-3.617,-3.6067,-3.4759,-3.3194,-3.3658,-3.3458,-3.2817,-3.1662,-3.1311,0.0,0.0,-3.2152,-3.2428,-3.3533,-3.4248,-3.4813,-3.5366,-3.5906,-3.6132,-3.5579,-3.5052,-3.4173,0.0,-3.1712,-3.1725,-3.2767,0.0,-3.0934,-3.2014,-3.2152,-3.2365,-3.3031,-3.3571,-3.4135,-3.4738,-3.4776,-3.4763,-3.4763,-3.4223,-3.3658,-3.3068,-3.2001,-3.1135,-3.0557,-2.8536,-2.749,-2.7531,-2.5965,0.0,0.0,0.0,0.0,0.0,0.0,0.0,0.0,0.0,0.0,0.0,0.0,0.0,0.0,0.0,0.0,0.0,0.0,0.0,0.0,0.0,0.0,0.0,0.0,0.0,0.0,0.0,0.0,-3.7483,-4.1085,0.0,-3.9783,-4.0916,-4.2472,-4.3995,-4.5669,-4.7597,-4.983,-5.1133,-5.2401,-5.367,-5.4685,-5.49,-5.43,-5.3598,-5.2717,-5.1806,-5.0729,-5.0017,-4.9628,-4.9808,-4.9538,-4.888,-4.8222,-4.7938,-4.7848,-4.6711,-4.52,-4.3524,-4.2626,-4.1773,-4.0965,-4.0411,-3.9472,-3.8377,-3.7623,-3.6687,-3.5579,-3.4713,-3.3822,-3.3006,-3.2604,-3.2478,-3.2591,-3.3144,-3.3558,-3.3997,-3.4763,-3.5366,-3.5818,-3.6019,-3.6219,-3.6207,-3.5667,-3.5391,-3.4964,-3.401,-3.2792,-3.2164,-3.2943,-3.1989,-3.1361,-3.2102,-3.2215,-3.2554,-3.3483,-3.4085,-3.4638,-3.519,-3.4939,-3.4575,-3.4223,-3.3345,-3.2579,-3.2026,-3.1298,-3.0645,-3.0105,-2.8366,-2.7245,-2.69,-2.5383,-2.4271,0.0,0.0,0.0,0.0,0.0,0.0,0.0,0.0,0.0,0.0,0.0,0.0,0.0,0.0,0.0,0.0,0.0,0.0,0.0,0.0,0.0,0.0,0.0,0.0,0.0,-3.9512,-4.2168,-4.166,-4.5348,-4.6938,-4.4434,-4.5534,-4.6955,-4.824,-4.9932,-5.164,-5.3365,-5.4651,-5.5564,-5.6072,-5.6371,-5.5963,-5.459,-5.3533,-5.2354,-5.0973,-5.0246,-4.9688,-4.9284,-4.9479,-4.9344,-4.8895,-4.8237,-4.7952,-4.7923,-4.7489,-4.6396,-4.493,-4.4257,-4.3464,-4.2608,-4.1821,-4.0812,-3.9522,-3.803,-3.7092,-3.6445,-3.5353,-3.4374,-3.3633,-3.3633,-3.3633,-3.3746,-3.4299,-3.4713,-3.5127,-3.568,-3.6094,-3.6358,-3.6358,-3.6358,-3.6257,-3.5893,-3.5667,-3.5349,-3.5064,-3.3947,-3.3119,-3.3319,-3.2579,-3.2152,-3.2692,-3.2453,-3.2616,-3.3759,-3.406,-3.4311,-3.4675,-3.4387,-3.3935,-3.337,-3.2817,-3.2114,-3.1185,-3.0972,-3.047,-2.9541,-2.8107,-2.703,-2.6252,-2.4271,-2.3044,-2.2563,0.0,0.0,0.0,0.0,0.0,0.0,0.0,0.0,0.0,0.0,0.0,0.0,0.0,0.0,0.0,0.0,0.0,0.0,0.0,0.0,0.0,0.0,0.0,-3.8041,-4.1914,-4.4773,-4.4807,-4.9306,-5.1302,-4.8477,-5.0744,-5.2756,-5.3585,-5.4279,-5.4989,-5.575,-5.6461,-5.6833,-5.6833,-5.6428,-5.5387,-5.3662,-5.2448,-5.1045,-4.9269,-4.9239,-4.9224,-4.9179,-4.8566,-4.8282,-4.8222,-4.7578,-4.7309,-4.7309,-4.7309,-4.692,-4.6247,-4.5559,-4.5289,-4.511,-4.3728,-4.1782,-3.9549,-3.7176,-3.6031,-3.5567,-3.5567,-3.5215,-3.4776,-3.4776,-3.4776,-3.4876,-3.5416,-3.5554,-3.5667,-3.6194,-3.6332,-3.6332,-3.6332,-3.6332,-3.6332,-3.6332,-3.5906,-3.5516,-3.5516,-3.509,-3.455,-3.3997,-3.3445,-3.3257,-3.3796,-3.2943,0.0,-3.3759,-3.3432,-3.3106,-3.3106,-3.3106,-3.2855,-3.2265,-3.2717,-3.2328,-3.0696,-3.1047,-3.0595,-2.9001,-2.7696,-2.6579,-2.5527,-2.2664,-2.123,-2.123,0.0,0.0,0.0,0.0,0.0,0.0,0.0,0.0,0.0,0.0,0.0,0.0,0.0,0.0,0.0,0.0,0.0,0.0,0.0,0.0,0.0,-3.8362,-4.0476,-4.1018,-4.5415,-4.8968,-5.005,-5.2892,-5.4668,-5.438,-5.4617,-5.531,-5.6579,-5.6376,-5.6511,-5.7256,-5.7476,-5.7594,-5.7594,-5.7527,-5.6448,-5.4384,-5.3047,-5.1396,-4.9254,-4.879,-4.8312,-4.7863,-4.8147,-4.8027,-4.7563,-4.7384,-4.7309,-4.7309,-4.7309,-4.692,-4.6247,-4.5559,-4.5005,-4.4385,-4.2679,-4.0547,-3.8445,-3.7355,-3.6596,-3.6132,-3.6132,-3.6031,-3.5906,-3.5906,-3.5906,-3.5943,-3.6094,-3.5855,-3.5579,-3.573,-3.5768,-3.5768,-3.5768,-3.5768,-3.5768,-3.5768,-3.5341,-3.4951,-3.4951,-3.4826,-3.455,-3.3997,-3.3445,-3.3131,-3.3282,-3.3031,0.0,-3.3809,-3.3771,-3.3671,-3.3671,-3.3671,-3.3282,-3.229,-3.1989,-3.1336,-3.0093,-2.9754,-2.9402,-2.895,-2.7548,-2.5755,-2.367,-2.2039,-2.123,0.0,0.0,0.0,0.0,0.0,0.0,0.0,0.0,0.0,0.0,0.0,0.0,0.0,0.0,0.0,0.0,0.0,0.0,0.0,0.0,0.0,0.0,-4.139,-4.413,-4.5788,-4.89,-5.1809,-5.3923,-5.5919,-5.7273,-5.7695,-5.734,-5.7459,-5.8304,-5.7679,-5.7442,-5.7865,-5.7881,-5.7881,-5.7881,-5.7161,-5.5798,-5.3791,-5.22,-5.0465,-4.8446,-4.8057,-4.7683,-4.7309,-4.7698,-4.7668,0.0,-4.7309,-4.7309,-4.7279,-4.701,-4.6666,0.0,0.0,0.0,0.0,0.0,-4.0045,-3.8702,-3.7347,-3.6634,-3.6358,-3.6358,-3.6358,-3.6358,-3.6358,-3.6194,-3.6019,-3.6019,-3.5793,-3.5542,-3.5542,-3.5717,-3.5893,-3.5893,-3.5705,-3.5542,-3.5542,-3.5115,-3.465,-3.4424,-3.4374,0.0,-3.3658,-3.3483,-3.342,-3.342,-3.3219,-3.3269,-3.3822,-3.3696,-3.3558,-3.3558,-3.3558,-3.3194,-3.229,-3.1913,0.0,0.0,0.0,-2.9285,-2.8484,-2.7375,0.0,0.0,0.0,-2.1988,-2.123,0.0,0.0,0.0,-2.1807,-2.1816,0.0,0.0,0.0,0.0,0.0,0.0,0.0,0.0,0.0,0.0,0.0,0.0,0.0,0.0,0.0,0.0,-4.484,-4.8325,-5.1302,-5.235,-5.3822,-5.6596,-5.8169,-5.9082,-5.9252,-5.9116,-5.9049,-5.9133,-5.8355,-5.7881,-5.7881,0.0,0.0,0.0,0.0,-5.4273,-5.2701,-5.079,-4.9006,-4.7414,-4.7339,-4.7309,-4.7309,-4.7309,-4.7309,-4.7309,-4.7309,-4.7264,-4.7145,-4.6576,-4.6232,-4.6037,-4.5424,-4.4698,-4.3701,-4.1043,-3.9885,-3.9373,-3.7335,0.0,0.0,-3.6345,-3.627,-3.6194,-3.632,-3.5981,-3.5542,-3.5542,-3.5504,-3.5441,-3.5378,-3.5717,-3.6081,-3.6081,-3.5717,-3.5353,-3.5353,-3.4977,-3.4487,-3.3997,-3.3897,-3.3746,-3.3257,-3.352,-3.3809,-3.3809,-3.3382,-3.3257,-3.3746,-3.3382,-3.3081,-3.3081,0.0,0.0,-3.2265,-3.2152,-3.1662,-3.0595,-3.047,-2.9695,-2.8048,-2.7427,-2.6073,-2.3807,-2.3864,-2.3104,-2.146,-2.1689,-2.1875,-2.1885,-2.2266,-2.2236,0.0,0.0,0.0,0.0,0.0,0.0,0.0,0.0,0.0,0.0,0.0,0.0,0.0,0.0,0.0,-4.4198,-4.7936,-5.142,-5.4431,-5.5463,-5.6359,-5.7543,-5.8473,-5.9505,-6.074,-5.9742,-5.9252,-5.9844,-5.8643,-5.7881,-5.7881,-5.734,-5.7289,-5.7865,-5.5845,-5.4319,-5.3406,-5.1359,-4.9571,-4.8087,0.0,0.0,-4.7309,-4.7309,-4.7309,-4.7309,-4.7309,-4.6995,-4.6501,-4.6367,-4.5678,-4.4691,-4.4556,-4.3478,-4.2024,-4.1463,-4.0031,-3.8379,-3.7939,-3.6854,-3.5768,-3.6219,-3.5755,-3.5203,-3.6094,-3.5981,0.0,-3.5542,-3.5228,-3.4776,-3.4336,-3.4299,-3.4374,-3.4374,-3.4286,-3.4223,-3.4223,-3.4135,-3.4022,-3.3922,-3.3897,-3.3872,-3.3759,-3.3458,-3.3232,-3.3232,-3.3144,-3.3119,-3.3219,-3.3144,-3.3081,-3.3081,-3.3081,-3.2842,-3.2265,-3.18,-3.1097,-3.0018,-2.9515,-2.9049,-2.8696,-2.7871,-2.7198,-2.6703,-2.465,-2.3384,-2.3057,-2.1994,-2.154,-2.154,-2.186,-2.1851,0.0,0.0,0.0,0.0,0.0,0.0,0.0,0.0,0.0,0.0,0.0,-3.5774,-3.799,0.0,-4.3995,-4.7361,-5.0405,-5.3145,-5.5395,-5.6342,-5.7222,-5.8321,-5.8795,-5.9455,-6.0588,-5.9674,-5.9167,-5.9522,-5.8524,-5.7729,-5.7357,-5.734,-5.7171,-5.6816,-5.5733,-5.4283,-5.2557,-5.1101,-4.9499,-4.7803,-4.7459,-4.7309,-4.7309,-4.7309,-4.7309,-4.7294,-4.6965,-4.6636,-4.6277,-4.5603,-4.4736,-4.3823,-4.3823,-4.3263,-4.2371,-4.185,-4.0476,-3.8917,-3.8289,-3.6961,-3.5592,-3.5868,-3.5391,-3.4826,-3.5378,-3.5152,-3.4726,-3.4726,-3.4525,-3.4248,-3.3972,-3.411,-3.4311,-3.4311,-3.4098,-3.3897,-3.3897,-3.3684,-3.3483,-3.3483,-3.3709,-3.3809,-3.3533,-3.3721,-3.3709,-3.3156,-3.3081,-3.3081,-3.3081,-3.3081,-3.3081,-3.3081,-3.3081,-3.2955,-3.2667,-3.1876,-3.1047,-3.0256,-2.9679,-2.9227,-2.8938,-2.8447,-2.7601,-2.6236,-2.5114,-2.3992,-2.2867,-2.2428,-2.2281,-2.2281,-2.2405,-2.2184,0.0,0.0,0.0,0.0,0.0,0.0,0.0,-3.3372,-3.4218,-3.6451,-3.7652,-3.9259,-4.2388,-4.4807,-4.7208,-4.9881,-5.235,-5.4346,-5.5547,-5.6461,-5.7459,-5.866,-5.893,-5.9302,-6.003,-5.9438,-5.9015,-5.9015,-5.8321,-5.7628,-5.7053,-5.7306,-5.7053,-5.6173,-5.5581,-5.41,-5.1724,-5.0813,-4.9327,-4.7309,-4.7309,-4.7309,-4.7309,-4.7309,-4.7234,-4.707,-4.6277,-4.5933,-4.5843,-4.4616,-4.3808,-4.3329,-4.3329,-4.3329,-4.317,-4.229,-4.1183,-4.0059,-3.8814,-3.73,-3.5818,-3.576,-3.5177,-3.46,-3.4813,-3.4424,-3.3897,-3.3897,-3.3897,-3.3872,-3.3771,-3.4073,-3.4399,-3.4399,-3.406,-3.3746,-3.3746,-3.3395,-3.3081,-3.3081,-3.3432,-3.3633,-3.3294,-3.3972,-3.4261,-3.337,-3.3332,-3.3357,-3.3257,-3.3232,-3.3194,-3.3081,-3.3081,-3.3031,-3.2918,-3.2077,-3.1286,-3.0658,-3.0193,-2.9691,-2.9114,-2.9089,-2.8081,-2.6,-2.5837,-2.4886,-2.3078,-2.315,-2.3076,-2.3135,-2.3135,-2.2737,-2.9316,-3.053,-3.206,-3.2962,-3.3215,-3.4472,0.0,-3.9123,-3.887,-4.1085,-4.2692,-4.4028,-4.5128,-4.7141,-4.9171,-5.0828,-5.3551,-5.553,-5.57,-5.69,-5.7831,-5.8,-5.8609,-5.9302,-6.003,-5.9438,-5.9015,-5.9015,-5.8321,-5.7848,-5.7763,-5.6613,-5.6478,-5.7611,-5.5108,-5.3318,-5.2524,-5.1069,-4.9327,-4.7309,-4.7309,-4.7309,-4.7309,-4.7309,-4.6995,-4.6367,-4.5095,-4.4541,-4.4481,-4.3748,-4.3404,-4.3329,-4.3329,-4.3329,-4.325,-4.3155,-4.2386,-4.1253,-4.0059,-3.8526,-3.6998,-3.6455,-3.524,-3.4173,-3.5152,-3.4726,-3.3897,-3.3897,-3.3897,-3.3784,-3.3294,-3.3219,-3.3257,-3.3257,-3.3219,-3.3169,-3.3169,-3.3119,-3.3081,-3.3081,-3.3131,-3.3307,-3.3734,-3.3909,-3.3947,-3.3822,-3.4223,-3.4361,-3.3872,-3.3809,-3.3621,-3.3131,-3.3081,-3.2867,-3.2353,-3.219,-3.1687,-3.0683,-3.0557,-3.0281,-2.9716,-2.9691,-2.9576,-2.9282,-2.7419,-2.63,-2.6063,-2.4052,-2.309,-2.3135,-2.3135,-2.3018,-3.1133,-3.2406,-3.3789,-3.4187,-3.6145,-3.8514,-4.0713,-4.139,-4.2083,-4.391,-4.5128,-4.6227,-4.7411,-4.9086,-5.0625,-5.1674,-5.3653,-5.5057,-5.5057,-5.597,-5.6461,-5.6021,-5.663,-5.7374,-5.8118,-5.7898,-5.7729,-5.7729,-5.7831,-5.7526,-5.6681,-5.685,-5.6478,-5.5378,-5.4989,-5.3651,-5.1355,-5.0701,-4.9327,-4.7309,-4.692,-4.6741,-4.6711,-4.6322,-4.5783,-4.5125,-4.4556,-4.4092,-4.3718,-4.3449,-4.3329,-4.3329,-4.3329,-4.3329,-4.3329,-4.3329,-4.2548,-4.142,-4.0318,-3.8559,-3.6713,-3.576,-3.4512,-3.3508,-3.3972,-3.3784,-3.342,-3.342,-3.342,-3.337,-3.3131,-3.3081,-3.3081,-3.3081,-3.3081,-3.3081,-3.3081,-3.3081,-3.3081,-3.3081,-3.3332,-3.3633,-3.3859,-3.4437,-3.4851,-3.4851,-3.4776,-3.4525,-3.3972,-3.4173,-3.4173,-3.3608,-3.3269,-3.298,-3.2742,-3.2403,-3.2014,-3.1442,-3.0984,-3.0507,-2.9858,-2.9814,-2.9814,-2.9791,-2.887,-2.7129,-2.4541,-2.3577,-2.3102,-2.309,-2.309,-2.3113,-3.227,-3.3909,-3.5463,-3.6007,-3.8958,-4.1931,-4.2354,-4.3436,-4.4654,-4.5771,-4.6583,-4.7428,-4.8511,-4.9746,-5.0913,-5.1843,-5.3298,-5.4363,-5.4566,-5.5057,-5.5124,-5.438,-5.4583,-5.4972,-5.5513,-5.6139,-5.6511,-5.6511,-5.6985,-5.6833,-5.5784,-5.6511,-5.6089,-5.4177,-5.4441,-5.3417,-5.0701,-5.0182,-4.9085,-4.7294,-4.683,-4.6501,-4.6292,-4.5424,-4.4766,-4.4302,-4.4122,-4.3778,-4.3329,-4.3329,-4.3329,-4.3329,-4.3329,-4.3329,-4.3314,-4.3135,-4.2539,-4.1686,-4.0492,-3.869,-3.6724,-3.5556,-3.4325,-3.3307,-3.3307,-3.3206,-3.3081,-3.3081,-3.3081,-3.3081,-3.3081,-3.3081,-3.3081,-3.3081,-3.3194,-3.3269,-3.3106,-3.3319,-3.3483,-3.3332,-3.3746,-3.4173,-3.4324,-3.5014,-3.5604,-3.5742,-3.5429,-3.4977,-3.4424,-3.4437,-3.4349,-3.3935,-3.3407,-3.3081,-3.3081,-3.2692,-3.2365,-3.2056,-3.165,-3.1019,-2.9843,-2.9811,-2.9839,-2.9787,-2.9799,-2.8167,-2.493,-2.493,-2.4303,-2.3128,-2.3128,-2.3061,-3.2148,-3.4671,-3.7419,-3.9446,-4.1625,-4.3741,-4.5229,-4.6143,-4.6701,-4.6752,-4.7361,-4.7902,-4.7953,-4.8562,-4.9543,-5.1014,-5.2536,-5.3788,-5.4499,-5.4617,-5.4346,-5.3619,-5.2858,-5.2418,-5.2435,-5.4448,-5.575,-5.575,-5.5767,-5.5767,-5.5716,-5.5057,-5.4989,-5.5632,-5.3252,-5.1843,-5.1467,-4.9705,-4.8293,-4.7309,-4.7279,-4.6935,-4.6277,-4.4945,-4.4332,-4.4272,-4.3643,-4.3359,-4.3329,-4.3329,-4.3329,-4.3329,-4.3329,-4.3329,-4.3254,-4.2626,-4.2387,-4.2216,-4.1018,-3.9434,-3.784,-3.6651,-3.5156,-3.3872,-3.3872,-3.3508,-3.3081,-3.3081,-3.3081,-3.3081,-3.3081,-3.3081,-3.3081,-3.3081,-3.3483,-3.3721,-3.3194,-3.3922,-3.4512,-3.3985,-3.4324,-3.4864,-3.5403,-3.5516,-3.573,-3.6257,-3.632,-3.6107,-3.5567,-3.4575,-3.3922,-3.3897,-3.3407,-3.3081,-3.3081,-3.3056,-3.2792,-3.2081,-3.2657,-3.2094,-2.9856,-2.9811,-2.9792,-2.9804,-2.9804,-2.9733,-2.9567,-2.9567,-2.7324,-2.3128,-2.3128,-2.3061,-3.3896,-3.6182,-3.8267,-4.0776,-4.3539,-4.579,-4.6129,-4.6887,-4.7394,-4.6887,-4.621,-4.5551,-4.5026,-4.5957,-4.7293,-4.8781,-5.0693,-5.2435,-5.3687,-5.3873,-5.3399,-5.2147,-5.2181,-5.1911,-5.093,-5.2418,-5.3873,-5.4888,-5.4972,-5.4972,-5.4972,-5.5209,-5.5006,-5.4262,-5.3902,-5.3069,-5.1736,-5.0509,-4.9296,-4.8278,-4.6704,-4.5618,-4.496,-4.4077,-4.3658,-4.3643,-4.3434,-4.3329,-4.3329,-4.3329,-4.3075,-4.2686,-4.2686,-4.2417,-4.2013,-4.1788,-4.1429,-4.0949,-4.022,-3.888,-3.7304,-3.6151,-3.4702,-3.3357,-3.3357,-3.3219,-3.3081,-3.3081,-3.3081,-3.3081,-3.3081,-3.3081,-3.3081,-3.3081,-3.3219,-3.3307,-3.3119,-3.3658,-3.4123,-3.3935,-3.4349,-3.4901,-3.5454,-3.5542,-3.573,-3.6282,-3.6056,-3.5881,-3.6056,-3.4813,-3.4173,-3.4914,-3.3847,-3.333,-3.3758,-3.3406,-3.298,-3.278,-3.2962,-3.2111,-2.991,-2.9819,-2.9783,-2.9792,-2.9792,-2.9777,-2.9824,-2.9824,-2.9053,-2.7522,-2.6043,-2.4585,-3.5149,-3.7806,-4.0123,-4.2666,-4.5197,-4.7161,-4.7361,-4.7469,-4.731,-4.6566,-4.4993,-4.3521,-4.2777,-4.3436,-4.4587,-4.6075,-4.797,-4.9965,-5.1995,-5.2283,-5.2114,-5.1657,-5.1792,-5.164,-5.0947,-5.1268,-5.2131,-5.3653,-5.4042,-5.4211,-5.4211,-5.4668,-5.4499,-5.3534,-5.3564,-5.3094,-5.1921,-5.0534,-4.9186,-4.7926,-4.6117,-4.4945,-4.4287,-4.3629,-4.3329,-4.3329,-4.3329,-4.3329,-4.3329,-4.3329,-4.294,-4.2357,-4.2357,-4.1953,-4.1354,-4.1115,-4.0771,-4.0382,-3.9982,-3.8796,-3.7233,-3.6089,-3.48,-3.3641,-3.324,-3.3081,-3.3081,-3.3081,-3.3081,-3.3081,-3.3081,-3.3081,-3.3081,-3.3081,-3.3232,-3.337,-3.337,-3.396,-3.4487,-3.4487,-3.4926,-3.5429,-3.578,-3.583,-3.5956,-3.6307,-3.6056,-3.5968,-3.632,-3.5265,-3.4675,-3.5203,-3.4148,-3.357,-3.3758,-3.3393,-3.3081,-3.3081,-3.3107,-3.2427,-3.1016,-3.022,-2.9816,-2.9792,-2.9792,-2.9792,-2.9792,-2.9792,-2.9555,-2.8979,-2.769,-2.6102,-3.6086,-3.9455,-4.2782,-4.4915,-4.6486,-4.7802,-4.8618,-4.7639,-4.6338,-4.5635,-4.3656,-4.1847,-4.1119,-4.1068,-4.1644,-4.3166,-4.4807,-4.6887,-4.9796,-5.0236,-5.0777,-5.2131,-5.1691,-5.1539,-5.2181,-5.0997,-5.0777,-5.2198,0.0,-5.3416,-5.3501,-5.3501,-5.3501,-5.3501,-5.247,-5.1993,-5.1993,-4.9915,-4.8039,-4.6307,-4.5618,-4.4945,-4.4287,-4.3629,-4.3329,-4.3329,-4.3329,-4.3329,-4.3329,-4.3299,-4.2895,-4.2312,-4.2267,-4.1863,-4.1205,-4.0576,-4.0352,-4.0352,-4.0352,-3.9223,-3.7587,-3.6526,-3.5507,-3.4511,-3.3398,-3.3081,-3.3081,-3.3081,-3.3081,-3.3081,-3.3081,-3.3081,-3.3081,-3.3081,-3.3483,-3.3859,-3.3859,-3.4726,-3.5504,-3.5504,-3.5968,-3.6358,-3.6358,-3.6358,-3.6358,-3.6358,-3.6358,-3.6358,-3.6358,-3.5881,-3.5353,-3.4826,-3.4413,-3.3959,-3.328,-3.3093,-3.3081,-3.3081,-3.3119,-3.3136,-3.3131,-3.0959,-2.9841,-2.9817,-2.9804,-2.9792,-2.9792,-2.9792,-2.9057,-2.7679,-2.8036,-2.7602,-3.8209,-4.1272,-4.4069,-4.5636,-4.6419,-4.6779,-4.6378,-4.4782,-4.3181,-4.25,-4.0578,-3.8802,-3.8058,-3.9259,-4.1035,-4.3081,-4.6092,-4.9001,-5.1403,-5.2266,-5.2553,-5.2334,-5.2131,-5.1894,-5.1539,-5.164,-5.1894,-5.2266,-5.1995,-5.23,-5.345,-5.3501,-5.3501,-5.3501,-5.3264,-5.311,-5.311,-5.1021,-4.8742,-4.6307,-4.5618,-4.4945,-4.4287,-4.3629,-4.3329,-4.3329,-4.3329,-4.3329,-4.3299,-4.2806,-4.2222,-4.1579,-4.1085,-4.0502,-3.9903,-3.9723,-3.9664,-3.9664,-3.9664,-3.8841,-3.7587,-3.6526,-3.5507,-3.4511,-3.3398,-3.3081,-3.3081,-3.3081,-3.3081,-3.3081,-3.3081,-3.3081,-3.3081,-3.3081,-3.3181,-3.3282,-3.3282,-3.4161,-3.4926,-3.4926,-3.5705,-3.6358,-3.6358,-3.6358,-3.6358,-3.6358,-3.6358,-3.6358,-3.6358,-3.5881,-3.5491,-3.5353,-3.464,-3.4262,-3.4299,-3.3581,-3.3081,-3.3081,-3.3079,-3.3145,-3.3066,-3.0947,-2.9843,-2.9774,-2.9839,-2.9792,-2.9792,-2.9792,-2.9611,-2.9238,-2.9353,-2.8779,-4.0292,-4.2981,-4.533,-4.6381,-4.6302,-4.5816,-4.5184,-4.3075,-4.1049,-4.0441,-3.8505,-3.6896,-3.681,-3.7787,-3.936,-4.1593,-4.4536,-4.7564,-5.0456,-5.1809,-5.257,-5.2807,-5.2841,-5.2672,-5.2266,-5.2266,-5.2452,-5.2807,-5.2452,-5.2604,-5.345,-5.3501,-5.3348,-5.2993,-5.3315,-5.3041,-5.2186,-5.0946,-4.889,-4.5873,-4.5484,-4.4796,-4.3868,-4.3509,-4.3329,-4.3329,0.0,-4.3165,-4.288,-4.2506,-4.1803,-4.0905,-4.0546,-3.9993,-3.9424,-3.9424,-3.9424,-3.9424,-3.9424,-3.9017,-3.8308,-3.7252,-3.6225,-3.5116,-3.4108,-3.3471,-3.3081,-3.3081,-3.3081,-3.3081,-3.3081,-3.3081,-3.3081,-3.3081,-3.3081,-3.3206,-3.3696,-3.4286,-3.4864,-3.5353,-3.5943,-3.6358,-3.6358,-3.6358,-3.6358,-3.6358,-3.6358,-3.6358,-3.6358,-3.6094,-3.5805,-3.5567,-3.4813,-3.4312,-3.4048,-3.3407,-3.3081,-3.3081,-3.3081,-3.3101,-3.311,-3.141,-3.0456,-3.0256,-2.9952,-2.9792,-2.9792,-2.9792,-2.9792,-2.9792,-2.9792,-2.9456,-4.2078,-4.4242,-4.6136,-4.6868,-4.5833,-4.4613,-4.422,-4.1638,-3.9291,-3.8755,-3.6982,-3.5809,-3.651,-3.6789,-3.7686,-4.0003,-4.2168,-4.4908,-4.8748,-5.0405,-5.1775,-5.3331,-5.3501,-5.3501,-5.3501,-5.2875,-5.2756,-5.345,-5.3399,-5.3399,-5.3501,-5.3399,-5.2993,-5.2181,-5.269,-5.2047,-5.0125,-4.9971,-4.8309,-4.517,-4.517,-4.4526,-4.3329,-4.324,-4.321,-4.321,-4.312,0.0,-4.2222,-4.2132,-4.1429,-4.0382,-4.0307,-3.9918,-3.9424,-3.9424,-3.9424,-3.9424,-3.9424,-3.9424,-3.9192,-3.8144,-3.7098,-3.6053,-3.4966,-3.3953,-3.3081,-3.3081,-3.3081,-3.3081,-3.3081,-3.3081,-3.3081,-3.3081,-3.3131,-3.3445,-3.4412,-3.4726,-3.5127,-3.6157,-3.6358,-3.6358,-3.6358,-3.6358,-3.6358,-3.6358,-3.6358,-3.6358,-3.6358,-3.6358,-3.6157,-3.5604,-3.5152,-3.4435,-3.3206,-3.3133,-3.3119,-3.3081,-3.3081,-3.3114,-3.3089,-3.1978,-3.1198,-3.0994,-3.0221,-2.9792,-2.9792,-2.9792,-2.9792,-2.9792,-2.9792,-2.9792,-4.2596,-4.4052,-4.5176,-4.583,-4.419,-4.2249,-4.1756,-3.8851,-3.6263,-3.628,-3.5514,-3.4982,-3.5672,-3.6857,-3.8633,-4.1441,-4.3301,-4.5889,-5.0219,-5.1048,-5.1775,-5.3331,-5.3501,-5.3501,-5.3501,-5.3382,-5.3348,-5.3501,-5.2892,-5.2807,-5.3467,-5.2875,-5.2164,-5.142,-5.0794,-4.9829,-4.8653,-4.7914,-4.6465,-4.4481,-4.4481,-4.4077,-4.3314,-4.2776,-4.2536,-4.2506,-4.1953,0.0,-4.1504,-4.0965,-4.0606,-4.0352,-3.9798,-3.9514,-3.9424,-3.9424,-3.9424,-3.9424,-3.9424,-3.9424,-3.9192,-3.8144,-3.7098,-3.6053,-3.4966,-3.3953,-3.3081,-3.3081,-3.3081,-3.3081,-3.3081,-3.3081,-3.3081,-3.3081,-3.342,-3.3809,-3.3997,-3.4763,-3.5592,-3.6232,-3.6358,-3.6358,-3.6358,-3.6358,-3.6358,-3.6358,-3.6358,-3.6358,-3.6358,-3.6358,-3.6157,-3.5604,-3.5827,-3.531,-3.3256,-3.3083,-3.3109,-3.3093,-3.3081,-3.3142,-3.3079,-3.1768,-3.1073,-3.1273,-3.0306,-2.9792,-2.9792,-2.9792,-2.9792,-2.9792,-2.9792,-2.9792,-4.3314,-4.4506,-4.5309,-4.5619,-4.3727,-4.147,-4.0196,-3.7328,-3.4906,-3.4655,-3.4331,-3.4284,-3.4958,-3.6333,-3.7928,-3.9761,-4.16,-4.4248,-4.8342,-4.9576,-5.076,-5.2655,-5.3247,-5.3501,-5.3501,-5.3501,-5.3501,-5.3501,-5.2756,-5.2469,-5.2858,-5.1775,-5.1166,-5.1217,-4.9909,-4.8936,-4.8285,-4.7415,-4.6015,-4.4317,-4.4317,-4.3973,-4.3314,-4.2671,-4.2357,-4.2327,-4.1669,0.0,-4.0846,-4.0531,-4.0202,-3.9858,-3.9544,-3.9424,-3.9424,-3.9424,-3.9424,-3.9424,-3.9424,-3.9424,-3.9337,-3.8782,-3.7904,-3.6944,-3.6476,-3.5224,-3.3953,-3.3953,-3.3556,-3.3081,-3.3081,-3.3081,-3.3081,-3.3081,-3.3721,-3.4412,-3.47,-3.5391,-3.6044,-3.6307,-3.6358,-3.6358,-3.6358,-3.6358,-3.6358,-3.6358,-3.6358,-3.6358,-3.6358,-3.6358,-3.6257,-3.5994,-3.6256,-3.5993,-3.4869,-3.3784,-3.3071,-3.3081,-3.3081,-3.3081,-3.3081,-3.2093,-3.1422,-3.1399,-3.062,-3.008,-2.9792,-2.9792,-2.9792,-2.9792,-2.9792,-2.9792,-4.3569,-4.4607,-4.5187,-4.5187,-4.3233,-4.0778,-3.8824,-3.6346,-3.4347,-3.372,-3.3582,-3.3836,-3.4688,-3.5646,-3.6793,-3.8218,-3.9731,-4.2151,-4.6227,-4.7936,-4.9593,-5.1809,-5.2909,-5.3501,-5.3501,-5.3501,-5.3433,-5.3264,-5.2367,-5.1826,-5.1826,-5.0727,-5.0287,-5.0727,-4.926,-4.8368,-4.8128,-4.7035,-4.574,-4.4398,-4.4173,-4.3838,-4.3299,-4.2521,-4.2147,-4.2102,-4.1309,0.0,0.0,-4.0187,-3.9888,-3.9424,-3.9424,-3.9424,-3.9424,-3.9424,-3.9424,-3.9424,-3.9424,-3.9424,-3.9424,-3.9424,-3.8708,-3.7829,-3.7829,-3.6476,-3.4979,-3.4746,-3.4108,-3.3398,-3.3154,-3.3081,-3.3131,-3.337,-3.4085,-3.4901,-3.5579,-3.6056,-3.6358,-3.6358,-3.6358,-3.6358,-3.6358,-3.6358,-3.6358,-3.6358,-3.6358,-3.6358,-3.6358,-3.6358,-3.6358,-3.6358,-3.6424,-3.6289,-3.6019,-3.4249,-3.307,-3.3081,-3.3081,-3.3006,-3.2744,-3.2306,-3.1768,-3.1235,-3.0821,-3.0344,-2.9792,-2.9792,-2.9792,-2.9792,-2.9792,-2.9792,-4.288,-4.3404,-4.3483,-4.3483,-4.158,-3.9118,-3.7136,-3.5582,-3.4302,-3.373,-3.3582,-3.3987,-3.527,-3.5102,-3.5907,-3.9345,-3.9479,-4.0984,-4.6075,-4.7496,-4.8832,-5.1048,-5.2604,-5.3501,-5.3501,-5.3501,-5.3196,-5.2469,-5.1099,-5.0287,-5.0287,-5.0152,-4.9813,-4.9221,-4.8213,-4.7721,-4.7637,-4.5911,-4.4892,-4.4754,-4.3862,-4.3389,-4.3284,-4.2043,-4.1474,-4.1399,-4.0142,0.0,0.0,-3.9514,-3.9469,-3.9424,-3.9424,-3.9424,-3.9424,-3.9424,-3.9424,-3.9424,-3.9424,-3.9424,-3.9424,-3.9424,-3.8708,-3.7829,-3.7829,-3.7021,-3.5894,-3.4979,-3.4664,-3.4345,-3.3313,-3.3081,-3.3332,-3.4336,-3.465,-3.5014,-3.6056,-3.632,-3.6358,-3.6358,-3.6358,-3.6358,-3.6358,-3.6358,-3.6358,-3.6358,-3.6358,-3.6358,-3.6358,-3.6358,-3.6358,-3.6358,-3.6443,-3.5948,-3.4942,-3.3744,-3.3134,-3.3093,-3.3081,-3.2669,-3.1608,-3.1959,-3.1725,-3.0708,-3.0645,-3.0344,-2.9792,-2.9792,-2.9792,-2.9792,-2.9792,-2.9792,-4.1504,-4.2731,-4.324,-4.2851,-4.0756,-3.8392,-3.6836,-3.4844,-3.3218,-3.3029,-3.2986,-3.3287,-3.4202,-3.4496,-3.5217,-3.7136,-3.7564,-3.9005,-4.2895,-4.4062,-4.5872,-4.9458,-5.0811,-5.1792,-5.2689,-5.279,-5.2283,-5.1065,-5.0422,-4.9898,-4.9458,-4.9441,-4.9306,-4.9018,-4.808,-4.7391,-4.6963,-4.516,-4.3975,-4.3499,-4.2576,-4.2372,-4.2701,-4.1384,-4.101,-4.1309,-3.9993,0.0,0.0,-3.9424,-3.9424,-3.9424,-3.9424,-3.9424,-3.9424,-3.9424,-3.9424,-3.9424,-3.9424,-3.9424,-3.9424,-3.9424,-3.9104,-3.8782,-3.8782,-3.7979,-3.7098,-3.6724,-3.5695,-3.4581,-3.4191,-3.3556,-3.3357,-3.4462,-3.4726,-3.5027,-3.6119,-3.6358,-3.6358,-3.6358,-3.6358,-3.6358,-3.6358,-3.6358,-3.6358,-3.6358,-3.6358,-3.6358,-3.6358,-3.6358,-3.6358,-3.6358,-3.6375,-3.5676,-3.3884,-3.3341,-3.3083,-3.3093,-3.3081,-3.293,-3.2446,-3.2269,-3.1851,-3.1097,-3.0771,-3.0344,-2.9792,-2.9792,-2.9792,-2.9792,-2.9792,-2.9792,-3.9589,-4.1309,-4.2312,-4.1654,-3.9783,-3.7719,-3.6222,-3.4485,-3.3012,-3.2686,-3.2734,-3.3039,-3.3479,-3.3836,-3.438,-3.5515,-3.6304,-3.7747,-4.0476,-4.1897,-4.3893,-4.7293,-4.8528,-4.9695,-5.1183,-5.1522,-5.1217,-5.0168,-4.9695,-4.9323,-4.9018,-4.8798,-4.8781,-4.9001,-4.837,-4.7666,-4.6888,-4.5355,-4.4243,-4.3494,-4.2333,-4.2047,-4.2455,-4.1055,-4.0651,-4.1025,-3.9903,0.0,0.0,-3.9424,-3.9424,-3.9424,-3.9424,-3.9424,-3.9424,-3.9424,-3.9424,-3.9424,-3.9424,-3.9424,-3.9424,-3.9424,-3.9424,-3.9424,-3.9424,-3.887,-3.8234,-3.7904,-3.6332,-3.4664,-3.4664,-3.3869,-3.3357,-3.4462,-3.4726,-3.5027,-3.6119,-3.6358,-3.6358,-3.6358,-3.6358,-3.6358,-3.6358,-3.6358,-3.6358,-3.6358,-3.6358,-3.6358,-3.6358,-3.6358,-3.6358,-3.6358,-3.6375,-3.5805,-3.4189,-3.3469,-3.3059,-3.3093,-3.3081,-3.3116,-3.3101,-3.2714,-3.2127,-3.1399,-3.1035,-3.0583,-3.0043,-2.988,-2.9792,-2.9792,-2.9792,-2.9792,-3.7105,-3.8901,-4.0277,-3.9619,-3.8422,-3.6911,-3.4936,-3.457,-3.4181,-3.2889,-3.3145,-3.3582,-3.3582,-3.3039,-3.3329,-3.5349,-3.6323,-3.7585,-3.98,-4.2016,-4.3707,-4.4536,-4.5923,-4.7411,-4.89,-4.9678,-5.0101,-5.0084,-4.8748,0.0,-4.8968,-4.8325,-4.8257,-4.8984,-4.9001,-4.8646,-4.7858,-4.6952,-4.6092,-4.5368,-4.3564,-4.2695,-4.2608,-4.1109,-4.0397,0.0,0.0,0.0,0.0,-3.9424,-3.9424,-3.9424,-3.9424,-3.9424,-3.9424,-3.9424,-3.9424,-3.9424,-3.9424,-3.9424,-3.9424,-3.9424,-3.9424,-3.9424,-3.9424,-3.9424,-3.9177,-3.8069,-3.6332,-3.4664,-3.4664,-3.3869,-3.3357,-3.4462,-3.4726,-3.5027,-3.6119,-3.6358,-3.6358,-3.6358,-3.6358,-3.6358,-3.6358,-3.6358,-3.6358,-3.6358,-3.6358,-3.6358,-3.6358,-3.6358,-3.6358,-3.6358,-3.6375,-3.6427,-3.6367,-3.4337,-3.3081,-3.3081,-3.3081,-3.3101,-3.311,-3.3063,-3.2541,-3.1411,-3.1386,-3.1122,-3.0608,-3.0055,-2.9792,-2.9792,-2.9792,-2.9792,-3.4801,-3.6207,-3.712,-3.736,-3.6402,-3.513,-3.4053,-3.3108,-3.2364,-3.194,-3.1992,-3.2312,-3.2841,-3.2749,-3.3433,-3.6038,-3.6636,-3.7568,-3.9767,-4.1136,-4.276,-4.5077,-4.753,-4.9238,-4.9695,-4.9509,-4.9357,-4.9357,-4.846,-4.824,-4.8968,-4.7817,-4.7496,-4.824,-4.8257,-4.7665,-4.6413,-4.5518,-4.469,-4.3981,-4.2799,-4.214,-4.1983,-4.1008,-4.0553,0.0,0.0,0.0,0.0,-3.9424,-3.9424,-3.9424,-3.9424,-3.9424,-3.9424,-3.9424,-3.9424,-3.9424,-3.9424,-3.9424,-3.9424,-3.9424,-3.9424,-3.9424,-3.9424,-3.9424,-3.9177,-3.8069,-3.6788,-3.5588,-3.4897,-3.4165,-3.3721,-3.4073,-3.4449,-3.4926,-3.5655,-3.5805,-3.5918,-3.6282,-3.6358,-3.6358,-3.6358,-3.6358,-3.6358,-3.6358,-3.6358,-3.6358,-3.6358,-3.6358,-3.6358,-3.6358,-3.6358,-3.5747,-3.428,-3.3481,-3.3059,-3.3093,-3.3081,-3.3116,-3.3101,-3.2726,-3.2315,-3.1951,-3.1587,-3.1135,-3.062,-3.0444,-3.0168,-2.9792,-2.9792,-2.9792,-3.2647,-3.4038,-3.4906,-3.5564,-3.4906,-3.3933,-3.3275,-3.2523,-3.1853,-3.1582,-3.1739,-3.1951,-3.216,-3.216,-3.2959,-3.5205,-3.6065,-3.7063,-3.9007,-4.0612,-4.2523,-4.4993,-4.7394,-4.8832,-4.8832,-4.8934,-4.8883,-4.8612,-4.7919,-4.7699,-4.8156,-4.7039,-4.6599,-4.7073,-4.7344,-4.6921,-4.572,-4.5169,-4.453,-4.3756,-4.2909,-4.243,-4.2259,-4.1551,-4.0923,0.0,0.0,0.0,0.0,-3.9424,-3.9424,-3.9424,-3.9424,-3.9424,-3.9424,-3.9424,-3.9424,-3.9424,-3.9424,-3.9424,-3.9424,-3.9424,-3.9424,-3.9424,-3.9424,-3.9424,-3.9265,-3.862,-3.7663,-3.654,-3.5507,-3.4931,-3.4436,-3.4237,-3.4474,-3.4876,-3.5336,-3.5542,-3.5642,-3.5994,-3.6219,-3.6358,-3.6358,-3.6358,-3.6358,-3.6358,-3.6358,-3.6358,-3.6358,-3.6358,-3.6358,-3.6358,-3.6383,-3.5876,-3.4457,-3.3582,-3.3121,-3.3093,-3.3081,-3.3081,-3.3081,-3.2729,-3.2541,-3.2541,-3.1989,-3.1436,-3.0909,-3.0507,-3.0131,-2.9792,-2.9792,-2.9792,0.0,-3.2258,-3.332,-3.4083,-3.3769,-3.314,-3.2572,-3.2448,0.0,-3.164,-3.2064,-3.2327,-3.164,-3.1482,-3.1951,-3.3455,-3.4851,-3.6247,-3.7698,-4.051,-4.2909,-4.4401,-4.5974,-4.6904,-4.6802,-4.8088,-4.8646,-4.797,-4.7175,-4.6735,-4.6786,-4.6058,-4.5652,-4.5703,-4.6312,-4.6312,-4.5635,-4.5618,-4.528,-4.457,-4.3756,-4.3366,-4.3246,-4.2395,-4.1528,0.0,0.0,0.0,0.0,-3.9424,-3.9424,-3.9424,-3.9424,-3.9424,-3.9424,-3.9424,-3.9424,-3.9424,-3.9424,-3.9424,-3.9424,-3.9424,-3.9424,-3.9424,-3.9424,-3.9424,-3.9424,-3.9424,-3.862,-3.7587,-3.6604,-3.5954,-3.5496,-3.4819,-3.4715,-3.4891,-3.5366,-3.5399,-3.5516,-3.5592,-3.6019,-3.6358,-3.6358,-3.6358,-3.6358,-3.6358,-3.6358,-3.6358,-3.6358,-3.6358,-3.6358,-3.6358,-3.6362,-3.6414,-3.6367,-3.435,-3.3106,-3.3081,-3.3081,-3.3081,-3.3081,-3.3081,-3.3081,-3.3081,-3.2466,-3.1901,-3.1386,-3.0319,-2.9792,-2.9792,-2.9792,-2.9792,-2.9594,0.0,-3.0148,-3.1809,-3.1704,-3.1315,0.0,-3.1745,-3.1682,-3.1539,-3.164,-3.1697,-3.1524,-3.1482,-3.2175,-3.4107,-3.4715,-3.5625,-3.7541,-4.0884,-4.353,-4.4463,-4.6887,-4.8037,-4.6904,-4.7631,-4.8105,-4.7936,-4.6701,-4.621,-4.6752,-4.5551,-4.5111,-4.5686,-4.5314,-4.501,-4.484,-4.484,-4.4756,-4.4587,-4.4384,-4.3948,-4.3246,-4.2395,-4.1528,0.0,0.0,0.0,-3.9424,-3.9424,-3.9424,-3.9424,-3.9424,-3.9424,-3.9424,-3.9424,-3.9424,-3.9424,-3.9424,-3.9424,-3.9424,-3.9424,-3.9424,-3.9424,-3.9424,-3.9424,-3.9424,-3.9424,-3.862,-3.7753,-3.751,-3.7093,-3.6346,-3.4984,-3.5005,-3.5227,-3.4956,-3.4914,-3.5165,-3.6006,-3.627,-3.6358,-3.6358,-3.6358,-3.6358,-3.6358,-3.6358,-3.6358,-3.6358,-3.6358,-3.6358,-3.6358,-3.6424,-3.6431,-3.6444,-3.4388,-3.3084,-3.3093,-3.3081,-3.3081,-3.3081,-3.3081,-3.3081,-3.3081,-3.2089,-3.1524,-3.1386,-3.0319,-2.9792,-2.9792,-2.9792,-2.9792,-2.8846,-2.9086,-2.9445,-3.112,-3.1255,-3.1076,-3.1392,-3.1482,-3.1482,-3.1482,-3.1482,-3.1482,-3.1482,-3.1482,-3.2049,-3.3881,-3.4451,-3.564,-3.8391,-4.0538,-4.2643,-4.4825,-4.6156,-4.7015,-4.725,-4.7361,-4.7259,-4.6938,-4.616,-4.5737,-4.5771,-4.501,-4.4773,-4.5179,-4.4451,-4.4045,-4.4045,-4.4045,-4.3876,-4.3538,-4.3876,-4.3618,-4.2795,-4.2341,-4.1438,0.0,0.0,0.0,-3.8497,-3.8497,-3.8497,-3.8497,-3.8497,-3.8497,-3.8497,-3.8497,-3.8497,-3.8497,-3.8497,-3.8497,-3.8497,-3.8497,-3.8706,-3.8945,-3.8945,-3.917,-3.9424,-3.9424,-3.8943,-3.8383,-3.7919,-3.7827,-3.754,-3.6497,-3.6005,-3.583,-3.5902,-3.544,-3.5278,-3.5868,-3.6194,-3.6358,-3.6358,-3.6358,-3.6358,-3.6358,-3.6358,-3.6358,-3.6358,-3.6358,-3.6358,-3.6358,-3.6408,-3.5965,-3.4942,-3.3781,-3.3083,-3.3093,-3.3081,-3.3081,-3.3081,-3.3081,-3.2955,-3.2692,-3.1838,-3.1273,-3.1035,-3.0193,-2.9792,-2.9792,-2.9792,-2.9792,-2.8412,-2.9146,-2.9983,-3.1106,-3.1375,-3.1347,-3.1452,-3.1482,-3.1482,-3.1482,-3.1482,-3.1482,-3.1482,-3.1482,-3.195,-3.3285,-3.4337,-3.6091,-3.932,-3.9984,-4.1287,-4.4516,-4.4611,-4.5107,-4.682,-4.6666,-4.6153,-4.5546,-4.5527,-4.5263,-4.4604,-4.4587,-4.4519,-4.4401,-4.3775,-4.3318,-4.3081,-4.32,-4.2929,-4.2303,-4.2929,-4.2886,-4.2212,-4.2138,-4.1197,-3.9663,0.0,0.0,-3.7404,-3.7404,-3.7404,-3.7404,-3.7404,-3.7404,-3.7404,-3.7404,-3.7404,-3.7404,-3.7404,-3.7404,-3.7419,-3.7524,-3.7943,-3.8407,-3.8512,-3.896,-3.9424,-3.9424,-3.9424,-3.9177,-3.8308,-3.8384,-3.8701,-3.8235,-3.7229,-3.6605,-3.7193,-3.6315,-3.5567,-3.5655,-3.6044,-3.6358,-3.6358,-3.6358,-3.6358,-3.6358,-3.6358,-3.6358,-3.6358,-3.6414,-3.6389,-3.6389,-3.6447,-3.5461,-3.3293,-3.3067,-3.3109,-3.3093,-3.3081,-3.3081,-3.3081,-3.2993,-3.2717,-3.2227,-3.1587,-3.1047,-3.062,-3.0068,-2.9792,-2.9792,-2.9792,-2.9792,-2.8412,-2.946,-3.0417,-3.0612,-3.0657,-3.0806,-3.1405,-3.1482,-3.1482,-3.1482,-3.1482,-3.1482,-3.1482,-3.1482,-3.195,-3.3285,-3.5053,-3.6878,-3.8684,-3.995,-4.0887,-4.1533,-4.317,-4.3863,-4.296,-4.4043,-4.4738,-4.4638,-4.4699,-4.4705,-4.4587,-4.4587,-4.4282,-4.3623,-4.347,-4.2811,-4.1559,-4.2151,-4.2405,-4.2286,-4.2405,-4.2402,-4.2277,-4.1548,-4.0707,-3.9783,0.0,-3.8167,-3.7404,-3.7404,-3.7404,-3.7404,-3.7404,-3.7404,-3.7404,-3.7404,-3.7404,-3.7404,-3.7404,-3.7404,-3.7494,-3.8063,-3.8302,-3.8497,-3.908,-3.9334,-3.9424,-3.9424,-3.9424,-3.9337,-3.9177,-3.9252,-3.918,-3.8765,-3.7774,-3.7014,-3.7276,-3.6315,-3.568,-3.6144,-3.6307,-3.6358,-3.6358,-3.6358,-3.6358,-3.6358,-3.6358,-3.6358,-3.6358,-3.6425,-3.6366,-3.6366,-3.6367,-3.5506,-3.3293,-3.3084,-3.3131,-3.3081,-3.3081,-3.3081,-3.3081,-3.2604,-3.2303,-3.2215,-3.1235,-3.0696,-3.062,-3.0068,-2.9792,-2.9792,-2.9792,-2.9792,-2.7964,-2.9011,-2.9998,-2.9998,-3.0806,-3.1584,-3.1482,-3.1482,-3.1482,-3.1482,-3.1482,-3.1482,-3.1482,-3.1824,-3.2496,-3.3833,-3.5396,-3.6767,-3.744,-3.8339,-3.9272,-4.0177,-4.1141,-4.1813,-4.2013,-4.2782,-4.3355,-4.3767,-4.3879,-4.3944,-4.3944,-4.3944,-4.3606,-4.2828,-4.2422,-4.1897,-4.1221,-4.1136,-4.1102,-4.1102,-4.1508,-4.1466,-4.0967,-4.0206,-3.9429,-3.856,0.0,-3.6688,-3.6387,-3.6387,-3.6387,-3.6387,-3.6387,-3.6387,-3.6387,-3.6387,-3.6387,-3.6387,-3.6387,-3.6387,-3.6492,-3.715,-3.7584,-3.7973,-3.8661,-3.9125,-3.9424,-3.9424,-3.9424,-3.9424,-3.9424,-3.9424,-3.9429,-3.9593,-3.8361,-3.7318,-3.8016,-3.674,-3.5705,-3.6257,-3.6358,-3.6358,-3.6358,-3.6358,-3.6358,-3.6358,-3.6358,-3.6358,-3.6358,-3.6387,-3.6189,-3.5567,-3.5008,-3.4199,-3.3169,-3.3096,-3.3081,-3.3081,-3.3081,-3.3081,-3.3081,-3.2516,-3.2077,-3.1775,-3.1009,-3.047,-3.0168,-2.9917,-2.9792,-2.9792,-2.9792,-2.9792,-2.7625,-2.8652,-2.9759,-2.9624,-3.0941,-3.2198,-3.1839,-3.1706,-3.1809,-3.1958,-3.1988,-3.1943,-3.1735,-3.2302,-3.308,-3.4083,-3.5504,-3.6492,-3.6492,-3.7015,-3.7843,-3.9093,-3.917,-3.9637,-4.086,-4.1255,-4.1618,-4.2171,-4.2617,-4.2858,-4.2858,-4.304,-4.2811,-4.2066,-4.1491,-4.1119,-4.0933,-4.0358,-4.007,-4.0087,-4.0663,-4.057,-3.9913,-3.9227,-3.8455,-3.7608,-3.6283,-3.5668,-3.5504,-3.5504,-3.5504,-3.5504,-3.5504,-3.5504,-3.5504,-3.5504,-3.5504,-3.5504,-3.5504,-3.5504,-3.5609,-3.6267,-3.6911,-3.7539,-3.8197,-3.8871,-3.9424,-3.9424,-3.9424,-3.9424,-3.9424,-3.9424,-3.9634,-4.0442,-3.9151,-3.8017,-3.9243,-3.7701,-3.6202,-3.6714,-3.6534,-3.6358,-3.6358,-3.6358,-3.6358,-3.6358,-3.6257,-3.6169,-3.6169,-3.6328,-3.5999,-3.4785,-3.3739,-3.3107,-3.3108,-3.3133,-3.3081,-3.3081,-3.3081,-3.3081,-3.3081,-3.2516,-3.2014,-3.1587,-3.0947,-3.0407,-2.998,-2.9854,-2.9792,-2.9792,-2.9792,-2.9792,-2.7625,-2.8981,-3.0298,-2.9729,-3.0597,-3.1691,-3.2317,-3.2437,-3.2617,-3.323,-3.335,-3.317,-3.2557,-3.2976,-3.3455,-3.3559,-3.5205,-3.6492,-3.6492,-3.7015,-3.7419,-3.7533,-3.7533,-3.7631,-3.7729,-3.8442,-3.8996,-3.9043,-4.0496,-4.1385,-4.1385,-4.203,-4.2033,-4.1305,-4.1238,-4.0865,-4.0172,-4.0104,-4.007,-4.007,-4.0121,-4.0155,-4.0037,-3.9276,-3.8479,-3.777,-3.6874,-3.6102,-3.5504,-3.5504,-3.5504,-3.5504,-3.5504,-3.5504,-3.5504,-3.5504,-3.5504,-3.5504,-3.5504,-3.5504,-3.5609,-3.6267,-3.6911,-3.7539,-3.8197,-3.8871,-3.9424,-3.9424,-3.9424,-3.9424,-3.9424,-3.9424,-3.9738,-4.101,-4.0393,-3.9814,-4.1076,-3.9614,-3.7886,-3.8017,-3.715,-3.6358,-3.6358,-3.6358,-3.6358,-3.6358,-3.5931,-3.5604,-3.5604,-3.6067,-3.5916,-3.4801,-3.3781,-3.3096,-3.3131,-3.3093,-3.3081,-3.3081,-3.3081,-3.3081,-3.3081,-3.2516,-3.219,-3.2152,-3.1135,-3.0595,-3.0557,-3.0043,-2.9792,-2.9792,-2.9792,-2.9792,-2.7625,-2.8727,-2.9879,-2.9639,-3.0567,-3.1704,-3.2362,-3.2512,-3.2587,-3.2841,-3.3215,-3.3425,-3.317,-3.3664,-3.4098,-3.4098,-3.5444,-3.6492,-3.6492,-3.7015,-3.727,-3.6881,-3.718,-3.7255,-3.6866,-3.7541,-3.8196,-3.8694,-3.9365,-3.9968,-4.0496,-4.079,-4.0799,-4.0527,-4.051,-4.0358,-4.007,-4.007,-4.007,-4.007,-4.007,-4.007,-4.007,-3.9262,-3.8525,-3.7764,-3.6964,-3.6165,-3.5504,-3.5504,-3.5504,-3.5504,-3.5504,-3.5504,-3.5504,-3.5504,-3.5504,-3.5564,-3.5968,-3.6118,-3.6282,-3.733,-3.7823,-3.8153,-3.8826,-3.9215,-3.9424,-3.9424,-3.9424,-3.9424,-3.9424,-3.9424,-3.9544,-4.0053,-3.9279,-3.8701,-3.9578,-3.8089,-3.6616,-3.6885,-3.6392,-3.5742,-3.5403,-3.5906,-3.6132,-3.5441,-3.5454,-3.5416,-3.5077,-3.5021,-3.5264,-3.5736,-3.4161,-3.3133,-3.3081,-3.3081,-3.3081,-3.3081,-3.2742,-3.2541,-3.2541,-3.2001,-3.1549,-3.1223,-3.0821,-3.0444,-3.0105,-2.9892,-2.9792,-2.9792,-2.9792,-2.9792,-2.7625,-2.8562,-2.9579,-2.9579,-3.0717,-3.2018,-3.2677,-3.2826,-3.2946,-3.338,-3.3484,-3.3559,-3.3769,-3.4008,-3.4233,-3.4442,-3.5429,-3.6178,-3.6178,-3.6537,-3.6656,-3.6222,-3.6552,-3.6641,-3.6207,-3.6626,-3.7164,-3.7625,-3.8012,-3.8435,0.0,-3.9219,-3.9452,-3.9731,-3.9731,-3.9833,-4.007,-4.007,-4.007,-4.007,-4.007,-4.007,-4.007,-3.9262,-3.8635,-3.8076,-3.7322,-3.6585,-3.5831,-3.5831,-3.5733,-3.5504,-3.5504,-3.5504,-3.5504,-3.5504,-3.5504,-3.5609,-3.6252,-3.6357,-3.6387,-3.7659,-3.8078,-3.8212,-3.8886,-3.9245,-3.9424,-3.9424,-3.9424,-3.9424,-3.9424,-3.9424,-3.9469,-3.9679,-3.9166,-3.8699,-3.9015,-3.7604,-3.6329,-3.6399,-3.5788,-3.5215,-3.5014,-3.5604,-3.5843,-3.5102,-3.5152,-3.509,-3.4537,-3.4274,-3.4527,-3.5745,-3.4172,-3.3107,-3.3081,-3.3081,-3.3081,-3.3081,-3.2528,-3.229,-3.2478,-3.1951,-3.1486,-3.1122,-3.0783,-3.0432,-3.0055,-2.988,-2.9792,-2.9792,-2.9792,-2.9792,-2.764,-2.8562,-2.9579,-2.9594,-3.1061,-3.2677,-3.335,-3.3499,-3.3873,-3.522,-3.4427,-3.3709,-3.4352,-3.3948,-3.3724,-3.4367,-3.5055,-3.5504,-3.5504,-3.5504,-3.5504,-3.5504,-3.5504,-3.5504,-3.5504,-3.5489,-3.5489,-3.5489,-3.615,-3.6584,0.0,-3.7322,-3.8117,-3.8837,-3.8908,-3.9262,-4.007,-4.0087,-4.007,-4.007,-4.007,-4.007,-4.007,-3.9262,-3.8908,-3.8854,-3.8149,-3.7322,-3.6615,-3.6615,-3.6165,-3.5504,-3.5504,-3.5504,-3.5504,-3.5504,-3.5504,-3.5609,-3.6267,-3.6073,-3.5729,-3.7015,-3.7434,-3.7554,-3.8197,-3.8871,-3.9424,-3.9424,-3.9424,-3.9424,-3.9424,-3.9424,-3.9589,-4.0232,-4.0382,-4.0248,-3.9886,-3.8855,-3.7785,-3.6697,-3.5543,-3.4889,-3.5349,-3.5449,-3.5449,-3.5529,-3.5064,-3.4512,-3.396,-3.3884,-3.406,-3.4641,-3.3734,-3.3083,-3.3106,-3.3068,-3.3068,-3.3068,-3.2528,-3.2466,-3.3031,-3.2503,-3.2202,-3.219,-3.116,-3.062,-3.0608,-3.0055,-2.9792,-2.9792,-2.9792,-2.9792,-2.8861,-2.928,-2.9684,-3.0118,-3.1031,-3.2123,-3.3245,-3.3499,-3.3739,-3.4607,-3.4457,-3.4247,-3.4442,-3.4711,-3.4816,-3.4517,-3.5055,-3.5504,-3.5504,-3.5504,-3.5504,-3.5504,-3.5504,-3.5504,-3.5504,-3.507,-3.4786,-3.4786,-3.4572,0.0,0.0,-3.5513,-3.6163,-3.7413,-3.7953,-3.8606,-3.9262,-3.9833,-4.007,-4.007,-4.007,-4.007,-4.007,-3.9833,-3.9437,-3.8908,-3.869,-3.8133,-3.7397,-3.6843,-3.6165,-3.5504,-3.5504,-3.5504,-3.5504,-3.5504,-3.5504,-3.5669,-3.6761,-3.7,-3.706,-3.8392,-3.8826,-3.8856,-3.905,-3.926,-3.9424,-3.9424,-3.9424,-3.9424,-3.9424,-3.9424,-3.9469,-3.9664,-3.9709,-3.9681,-3.955,-3.8053,-3.667,-3.6347,-3.5083,-3.4198,-3.4361,-3.4713,-3.4839,-3.4449,-3.4248,-3.3935,-3.3395,-3.3319,-3.3431,-3.3593,-3.3307,-3.3095,-3.3081,-3.3123,-3.276,-3.1916,-3.1964,-3.2003,-3.1888,-3.1725,-3.1286,-3.0532,-3.0583,-3.0419,-3.0043,-2.988,-2.9792,-2.9792,-2.9792,-2.9792,-2.9011,-2.9385,-2.9804,-3.0687,-3.1614,-3.2587,-3.3649,-3.4098,-3.4412,-3.4801,-3.4666,-3.4562,-3.4831,-3.4996,-3.5055,-3.4906,-3.5235,-3.5504,-3.5504,-3.5504,-3.54,-3.513,-3.51,-3.4996,-3.4741,-3.4337,-3.4083,-3.4083,0.0,0.0,0.0,-3.4237,-3.4744,-3.5925,-3.646,-3.7145,-3.8051,-3.887,-3.9243,-3.9175,-3.9817,-3.9952,-3.961,-3.9952,-3.9833,-3.9368,-3.9032,-3.8635,-3.8133,-3.7068,-3.6337,-3.5894,-3.5619,-3.5504,-3.5504,-3.5504,-3.5504,-3.5654,-3.6686,-3.6866,-3.6866,-3.8197,-3.8452,-3.8302,-3.8542,-3.8616,-3.8676,-3.8931,-3.9005,-3.9065,-3.9349,-3.9424,-3.9424,-3.9424,-3.9424,-3.9265,-3.887,-3.7738,-3.6618,-3.5748,-3.4857,-3.413,-3.3947,-3.4173,-3.4286,-3.3947,-3.3709,-3.3458,-3.3119,-3.3081,-3.3081,-3.3081,-3.3081,-3.3104,-3.3063,-3.3127,-3.242,-3.0897,-3.1285,-3.1442,-3.1216,-3.1097,-3.0783,-3.0131,-3.0231,-3.0118,-2.9792,-2.9792,-2.9792,-2.9792,-2.9792,-2.9792,-2.8592,-2.9152,-2.9858,-3.1243,-3.2617,-3.3754,-3.4427,-3.5055,-3.5489,-3.5429,-3.4966,-3.4756,-3.5385,-3.4996,-3.4771,-3.54,-3.5444,-3.5415,-3.5415,-3.537,-3.5085,-3.4457,-3.4382,-3.4158,-3.3559,-3.344,-3.338,-3.332,0.0,0.0,0.0,-3.323,-3.3622,-3.4481,-3.4539,-3.5261,-3.658,-3.7442,-3.784,-3.7719,-3.9277,-3.963,-3.8933,-3.9749,-4.007,-4.007,-3.9262,-3.8854,-3.869,-3.7188,-3.6554,-3.6446,-3.5782,-3.5504,-3.5504,-3.5504,-3.5504,-3.5609,-3.6252,-3.6088,-3.5789,-3.7015,-3.703,-3.6671,-3.724,-3.7404,-3.7539,-3.8138,-3.8347,-3.8542,-3.917,-3.9364,-3.9424,-3.9424,-3.9424,-3.9104,-3.7994,-3.7753,-3.7035,-3.5061,-3.4581,-3.4373,-3.3972,-3.3859,-3.3822,-3.3822,-3.3395,-3.3081,-3.3081,-3.3081,-3.3081,-3.3081,-3.3081,-3.3126,-3.3077,-3.2924,-3.1938,-2.9967,-3.0461,-3.0785,-3.0788,-3.0645,-3.0595,-3.0545,-3.0043,-2.9792,-2.9792,-2.9792,-2.9792,-2.9792,-2.9792,-2.9792,-2.9924,-2.9675,-2.9668,-3.1782,-3.329,-3.4442,-3.513,-3.54,-3.5355,-3.4801,-3.5011,-3.5325,-3.5474,-3.5385,-3.5325,-3.5489,-3.5055,-3.4696,-3.4696,-3.4247,-3.3873,-3.3724,-3.3709,-3.3649,-3.3499,-3.3021,-3.2512,0.0,0.0,0.0,-3.115,-3.115,-3.1687,-3.2915,-3.3598,-3.4285,-3.5156,-3.643,-3.7032,0.0,-3.8522,-3.9175,-3.9009,-3.9767,-4.007,-4.007,-3.9262,-3.858,-3.7978,-3.7024,-3.6275,-3.5733,-3.5554,-3.5504,-3.5504,-3.5504,-3.5504,-3.5609,-3.6252,-3.6387,-3.6402,-3.7165,-3.7315,-3.724,-3.7375,-3.7404,-3.7434,-3.7584,-3.7988,-3.8422,-3.8571,-3.902,-3.9424,-3.9424,-3.9424,-3.9104,-3.7994,-3.7175,-3.6146,-3.4979,-3.4037,-3.3576,-3.3884,-3.3533,-3.3257,-3.3257,-3.3156,-3.3081,-3.3081,-3.3081,-3.3081,-3.3081,-3.3081,-3.3129,-3.3066,-3.1506,-3.0318,-2.9821,-2.9911,-3.0024,-3.0065,-3.0373,-3.0407,-2.998,-2.9854,-2.9792,-2.9792,-2.9792,-2.9792,-2.9792,-2.9792,-2.9792,-2.941,-2.9015,-2.9199,-3.1725,-3.3289,-3.4332,-3.4684,-3.4758,-3.467,-3.4317,-3.4946,-3.5504,-3.5504,-3.5504,-3.54,-3.507,-3.4711,-3.4367,-3.4053,-3.3709,-3.338,-3.3066,-3.3021,-3.2901,-3.2587,-3.1943,-3.1405,0.0,0.0,-3.0058,-3.0058,-3.0342,-3.0821,-3.1524,-3.2228,-3.2962,-3.3712,-3.4736,-3.5257,-3.5257,-3.7067,-3.8254,-3.8821,-3.9715,-4.0104,-4.0081,-3.9661,-3.8825,-3.7764,-3.7058,-3.6569,-3.6176,-3.5714,-3.5504,-3.5504,-3.5504,-3.5504,-3.5549,-3.5893,-3.6013,-3.6073,-3.6387,-3.6492,-3.6492,-3.6492,-3.6492,-3.6567,-3.6881,-3.721,-3.7614,-3.8227,-3.8422,-3.8527,-3.8856,-3.9185,-3.9265,-3.8708,-3.7738,-3.6696,-3.5588,-3.4581,-3.3815,-3.3532,-3.3269,-3.3081,-3.3081,-3.3081,-3.3081,-3.3081,-3.3081,-3.3081,-3.3081,-3.3081,-3.3104,-3.311,-3.2006,-3.0943,-2.9891,-3.0263,-3.0331,-2.9819,-3.0086,-3.0093,-2.9804,-2.9792,-2.9792,-2.9792,-2.9792,-2.9792,-2.9792,-2.9792,-2.9792,-2.8569,-2.8457,-2.8921,-3.1197,-3.2658,-3.3679,-3.3725,-3.3739,-3.3711,-3.3665,-3.4618,-3.5504,-3.5504,-3.5504,-3.5325,-3.4741,-3.4457,-3.4113,-3.3574,-3.3305,-3.2961,-3.2407,-3.2347,-3.2078,-3.1362,-3.0836,-3.0417,0.0,0.0,-2.9415,-2.9415,-2.9894,-3.0238,-3.0342,-3.0896,-3.1509,-3.2252,-3.2958,-3.3339,-3.3392,-3.5574,-3.7219,-3.842,-3.9581,-4.0103,-4.0067,-3.9835,-3.8965,-3.7748,-3.7027,-3.6754,-3.6646,-3.5842,-3.5504,-3.5504,-3.5504,-3.5504,-3.5504,-3.5504,-3.5504,-3.5504,-3.5504,-3.5504,-3.5504,-3.5504,-3.5504,-3.5624,-3.6163,-3.6402,-3.6731,-3.7793,-3.7734,-3.7539,-3.8093,-3.8661,-3.9023,-3.8984,-3.831,-3.742,-3.6212,-3.5129,-3.4108,-3.324,-3.3081,-3.3081,-3.3081,-3.3081,-3.3081,-3.3081,-3.3081,-3.3043,-3.2943,-3.2918,-3.295,-3.2873,-3.3014,-3.2333,-3.0466,-3.1213,-3.109,-2.9831,-2.9811,-2.9792,-2.9792,-2.9792,-2.9792,-2.9792,-2.9792,-2.9792,-2.9792,-2.9792,-2.9792,-2.9378,-2.9431,-2.978,-2.9806,-3.0979,-3.2236,-3.2695,-3.282,-3.2667,-3.2208,-3.3883,-3.5504,-3.5504,-3.5504,-3.5474,-3.5385,-3.4382,-3.3589,-3.3499,-3.2512,-3.1706,-3.1616,-3.1601,-3.139,-3.0717,-3.0552,0.0,0.0,-2.8786,-2.8727,-2.8727,-2.8801,-2.9116,-2.9684,-2.9789,-3.0158,-3.0794,-3.1528,-3.2137,-3.2726,-3.4894,-3.6456,-3.7452,-3.9278,-4.0104,-4.0019,-3.8711,-3.7985,-3.7658,-3.6257,-3.5719,-3.5714,-3.5569,-3.5504,-3.5504,-3.5504,-3.5504,-3.5504,-3.5504,-3.5504,-3.5504,-3.5504,-3.5504,-3.5504,-3.5504,-3.5504,-3.5519,-3.5609,-3.6043,-3.6522,-3.6701,-3.7075,-3.7434,-3.7524,-3.7614,-3.76,-3.7245,-3.75,-3.7204,-3.5292,-3.4024,-3.324,-3.3167,-3.3081,-3.3081,-3.3081,-3.3081,-3.3081,-3.3081,-3.3081,-3.288,-3.239,-3.2206,-3.2127,-3.213,-3.2756,-3.2969,-3.2654,-3.2804,-3.1915,-2.9923,-2.9811,-2.9792,-2.9792,-2.9792,-2.9792,-2.9792,-2.9792,-2.9792,-2.9792,-2.9792,-2.9792,-2.7678,-2.7786,-2.8403,-2.8545,-2.9562,-3.0672,-3.1222,-3.16,-3.1748,-3.1492,-3.2779,-3.3941,-3.4156,-3.4178,-3.4192,-3.4364,-3.3574,-3.2826,-3.2452,-3.1898,-3.1482,-3.1482,-3.1195,-3.0836,-3.0537,-2.9864,0.0,0.0,-2.8248,-2.8023,-2.8023,-2.8397,-2.8742,-2.9026,-2.9385,-2.9714,-2.9983,-3.031,-3.0991,-3.2028,-3.2971,-3.4406,-3.6306,-3.7209,-3.8523,-4.0041,-3.938,-3.9103,-3.8896,-3.6477,-3.5513,-3.5504,-3.5504,-3.5504,-3.5504,-3.5504,-3.5504,-3.5504,-3.5504,-3.5504,-3.5504,-3.5504,-3.5504,-3.5504,-3.5504,-3.5504,-3.5504,-3.5504,-3.5714,-3.6028,-3.6387,-3.6417,-3.6432,-3.6806,-3.6896,-3.6669,-3.5954,-3.5849,-3.5391,-3.3632,-3.317,-3.2968,-3.2641,-3.2591,-3.2591,-3.2591,-3.2591,-3.2591,-3.2591,-3.2591,-3.2378,-3.1813,-3.1725,-3.1625,-3.1399,-3.1711,-3.1699,-3.1254,-3.1229,-3.0782,-2.9819,-2.9811,-2.9792,-2.9792,-2.9792,-2.9792,-2.9792,-2.9792,-2.9792,-2.9792,-2.9792,-2.9792,-2.6452,-2.6413,-2.7039,-2.7249,-2.8111,-2.9091,-2.9536,-3.0103,-3.0559,-3.0416,-3.1189,-3.2,-3.237,-3.2968,-3.3303,-3.317,-3.2959,-3.2542,-3.1884,-3.1586,-3.1482,-3.1482,-3.1076,-3.0627,-3.0298,-2.94,0.0,0.0,-2.7859,-2.7625,-2.7625,-2.8053,-2.8338,-2.8338,-2.8816,-2.9146,-2.9325,-2.949,-3.015,-3.1313,-3.1442,-3.2585,-3.457,-3.5289,-3.6847,-3.8914,-3.823,-3.7918,-3.7763,-3.6184,-3.5533,-3.5529,-3.5529,-3.5494,-3.5504,-3.5504,-3.5504,-3.5504,-3.5504,-3.5504,-3.5504,-3.5504,-3.5504,-3.5504,-3.5504,-3.5504,-3.5504,-3.5504,-3.5504,-3.5624,-3.6118,-3.5863,-3.5624,-3.6118,-3.6237,-3.6075,-3.5563,-3.484,-3.3931,-3.2834,-3.2723,-3.2679,-3.2102,-3.2001,-3.2001,-3.2001,-3.2001,-3.2001,-3.2001,-3.2001,-3.18,-3.1248,-3.1198,-3.1016,-3.0686,-3.0592,-3.0412,-2.9788,-2.9806,-2.9799,-2.9806,-2.9961,-2.9993,-2.9839,-2.9889,-2.993,-2.9792,-2.9792,-2.9792,-2.9792,-2.9792,-2.9792,-2.7024,-2.671,-2.6425,-2.5829,-2.6559,-2.7402,-2.7427,-2.827,-2.8887,-2.8371,-2.9189,-3.005,-3.0467,-3.2403,-3.3581,-3.2471,-3.293,-3.3215,-3.2557,-3.1928,-3.1482,-3.1482,-3.1437,-3.0986,-2.9744,-2.9564,0.0,0.0,-2.764,-2.7625,-2.7625,-2.7655,-2.7619,-2.7619,-2.7715,-2.7993,-2.8652,-2.9265,-2.9948,-3.0548,-3.1175,-3.1597,-3.1813,-3.4383,-3.5694,-3.5694,-3.3092,-3.1957,-3.2133,-3.4527,-3.5519,-3.5468,-3.5468,-3.5522,-3.5504,-3.5504,-3.5504,-3.5504,-3.5504,-3.5504,-3.5504,-3.5504,-3.5504,-3.5504,-3.5504,-3.5504,-3.5504,-3.5504,-3.5504,-3.5519,-3.5549,-3.5534,-3.5519,-3.5549,-3.5549,-3.5763,-3.6519,-3.5154,-3.3807,-3.3753,-3.2937,-3.2089,-3.1524,-3.1436,-3.1436,-3.1436,-3.1436,-3.1436,-3.1436,-3.1436,-3.1235,-3.0708,-3.0658,-3.0444,-2.9905,-2.9867,-2.9854,-2.9764,-2.9829,-2.9799,-2.9794,-3.0465,-3.0478,-2.9794,-3.0311,-3.0319,-2.9792,-2.9792,-2.9792,-2.9792,-2.9792,-2.9792,-2.6202,-2.6003,-2.585,-2.5649,-2.6176,-2.6753,-2.6753,-2.7607,-2.8247,-2.7695,-2.8185,-2.8684,-2.8464,-3.0306,-3.1716,-3.1349,-3.1401,-3.118,-3.0383,-3.0031,-2.9889,-2.9889,-2.9533,-2.9299,-2.9405,-2.8659,0.0,0.0,0.0,-2.7625,-2.7625,-2.7625,-2.7625,-2.7625,-2.7625,-2.7745,-2.7934,-2.8607,-2.9071,-2.9295,-3.0232,-3.0982,-3.1512,-3.2517,-3.2983,-3.2897,-3.1951,-3.152,-3.1589,-3.2511,-3.293,-3.3103,-3.4856,-3.5507,-3.5504,-3.5504,-3.5504,-3.5504,-3.5504,-3.5504,-3.5504,-3.5504,-3.5504,-3.5504,-3.5504,-3.5504,-3.5504,-3.5504,-3.5504,-3.5504,-3.5504,-3.5504,-3.5504,-3.5504,-3.4558,-3.3831,-3.4447,-3.4065,-3.3401,-3.2722,-3.2127,-3.1524,-3.0984,-3.0896,-3.0896,-3.0896,-3.0896,-3.0896,-3.0896,-3.0896,-3.0683,-3.0143,-3.0093,-3.0005,-2.9817,-2.9792,-2.9792,-2.9792,-2.9792,-2.9764,-2.9811,-3.0068,-3.008,-2.9824,-2.9965,-2.9993,-2.9792,-2.9792,-2.9792,-2.9792,-2.9792,-2.9792,-2.5988,-2.5887,-2.5837,-2.5649,-2.6025,-2.6433,-2.6,-2.6904,-2.767,-2.7118,-2.7595,-2.7996,-2.762,-2.8834,-2.9889,-2.9766,-3.0015,-2.993,-2.9093,-2.9002,-2.9002,-2.9002,-2.8581,-2.8449,-2.8859,-2.7882,-2.7537,0.0,0.0,0.0,-2.7575,-2.7625,-2.7625,-2.7625,-2.7625,-2.7625,-2.7625,-2.8023,-2.8397,-2.8719,-2.9411,-3.0343,-3.1482,-3.1485,-3.1496,-3.1496,-3.1496,-3.1501,-3.1501,-3.1501,-3.1513,-3.1787,-3.4433,-3.5495,-3.5504,-3.5504,-3.5504,-3.5504,-3.5504,-3.5504,-3.5504,-3.5504,-3.5504,-3.5504,-3.5504,-3.5504,-3.5504,-3.5504,-3.5504,-3.5504,-3.5504,-3.5504,-3.5424,-3.5067,-3.4041,-3.3072,-3.3104,-3.2779,-3.2279,-3.168,-3.1325,-3.0959,-3.0432,-3.0331,-3.0331,-3.0331,-3.0331,-3.0331,-3.0331,-3.0331,-3.0193,-2.9829,-2.9792,-2.9792,-2.9792,-2.9792,-2.9792,-2.9792,-2.9792,-2.9764,-2.9799,-2.9952,-2.9952,-2.9799,-3.0055,-3.0083,-2.9792,-2.9792,-2.9792,-2.9792,-2.9792,-2.9792,0.0,0.0,0.0,-2.5762,-2.605,-2.6176,-2.5096,-2.6101,-2.7105,-2.6527,-2.7268,-2.8034,-2.8009,-2.8215,-2.8236,-2.7709,-2.8888,-2.9665,-2.9022,-2.8939,-2.8939,-2.8939,-2.8939,-2.8705,-2.8051,-2.7506,0.0,0.0,-2.6802,-2.6841,-2.7539,-2.7604,-2.7655,-2.7655,-2.7655,-2.7655,-2.7685,-2.7685,-2.806,-2.8877,-2.8881,-2.9764,-3.1455,-3.1504,-3.1482,-3.1482,-3.1482,-3.1482,-3.1482,-3.1482,-3.1486,-3.1757,-3.4485,-3.5518,-3.5489,-3.5489,-3.5489,-3.5504,-3.5504,-3.5504,-3.5504,-3.5504,-3.5504,-3.5504,-3.5504,-3.5504,-3.5504,-3.5504,-3.5504,-3.5504,-3.5504,-3.5504,-3.5279,-3.4245,-3.4027,-3.3739,-3.282,-3.158,-3.0595,-3.0595,-3.0595,-3.0419,-2.988,-2.9792,-2.9792,-2.9792,-2.9792,-2.9792,-2.9792,-2.9792,-2.9792,-2.9792,-2.9792,-2.9792,-2.9792,-2.9792,-2.9792,-2.9792,-2.9792,-2.9774,-2.9782,-3.0323,-3.0336,-2.9806,-3.0478,-3.0486,-2.9792,-2.9792,-2.9792,-2.9792,-2.9792,-2.9792,-2.6533,0.0,0.0,0.0,0.0,0.0,-2.5548,-2.6063,-2.6414,-2.5473,-2.5812,-2.6176,-2.5799,-2.5785,-2.5752,-2.5599,-2.7131,-2.804,-2.731,-2.7162,-2.7162,-2.7162,-2.7162,-2.7352,-2.7759,0.0,0.0,0.0,-2.6773,-2.6818,-2.7496,-2.8032,-2.8308,-2.8308,-2.8308,-2.8547,-2.9026,-2.9026,-2.8891,-2.8704,-2.8188,-2.8697,-3.0138,-3.1061,-3.1482,-3.1482,-3.1482,-3.1482,-3.1482,-3.1482,-3.15,-3.1781,-3.4454,-3.5477,-3.551,-3.551,-3.5518,-3.5504,-3.5504,-3.5504,-3.5504,-3.5504,-3.5504,-3.5504,-3.5504,-3.5504,-3.5504,-3.5504,-3.5504,-3.5504,-3.5504,-3.5504,-3.5439,-3.5133,-3.4543,-3.3739,-3.282,-3.1817,-3.0992,-3.0992,-3.0509,-2.9967,-2.9817,-2.9792,-2.9792,-2.9792,-2.9792,-2.9792,-2.9792,-2.9792,-2.9792,-2.9792,-2.9792,-2.9792,-2.9792,-2.9792,-2.9792,-2.9792,-2.9792,-2.9829,-2.9774,-2.9914,-2.9914,-2.9774,-3.0018,-2.9967,-2.9792,-2.9792,-2.9792,-2.9792,-2.9792,-2.9792,-2.6533,-2.6533,-2.6533,-2.6533,0.0,0.0,-2.5448,-2.5699,-2.5787,-2.4707,-2.4908,-2.5184,-2.487,-2.482,-2.482,-2.482,-2.5728,-2.6334,-2.5841,-2.6163,-2.6289,-2.5837,-2.5963,-2.6291,-2.6788,-2.5975,-2.585,-2.6931,-2.6552,-2.6694,-2.7765,-2.8591,-2.9011,-2.9011,-2.9011,-2.919,-2.9579,-2.9579,-2.9499,-2.9267,-2.8481,-2.8902,-3.0403,-3.1177,-3.1482,-3.1482,-3.1482,-3.1482,-3.1482,-3.1482,-3.1514,-3.1679,-3.3246,-3.3832,-3.3999,-3.5093,-3.5484,-3.5504,-3.5504,-3.5504,-3.5504,-3.5504,-3.5504,-3.5504,-3.5504,-3.5504,-3.5504,-3.5504,-3.5504,-3.5504,-3.5504,-3.5504,-3.5359,-3.4986,-3.4109,-3.3171,-3.2249,-3.1254,-3.0633,-3.0633,-3.0139,-2.9792,-2.9792,-2.9792,-2.9792,-2.9792,-2.9792,-2.9792,-2.9792,-2.9792,-2.9792,-2.9792,-2.9792,-2.9792,-2.9792,-2.9792,-2.9792,-2.9792,-2.9792,-2.9792,-2.9792,-2.9792,-2.9792,-2.9792,-2.9792,-2.9792,-2.9792,-2.9792,-2.9792,-2.9792,-2.9792,-2.9792,-2.6533,-2.6533,-2.6533,-2.6533,-2.6533,0.0,-2.5222,-2.536,-2.5398,-2.4381,-2.4569,-2.4895,-2.4833,-2.482,-2.482,-2.482,-2.482,-2.482,-2.482,-2.5661,-2.5912,-2.4933,-2.5272,-2.5573,-2.5523,-2.5146,-2.5306,-2.64,-2.6199,-2.6708,-2.8211,-2.9116,-2.963,-2.9684,-2.9684,-2.9729,-2.9804,-2.9804,-2.9973,-3.0217,-2.9518,-2.993,-3.1324,-3.1417,-3.1482,-3.1482,-3.1482,-3.1482,-3.1482,-3.1482,-3.1499,-3.1501,-3.1526,-3.1646,-3.2227,-3.4639,-3.5474,-3.5504,-3.5504,-3.5504,-3.5504,-3.5504,-3.5504,-3.5504,-3.5504,-3.5504,-3.5504,-3.5504,-3.5504,-3.5504,-3.5504,-3.5439,-3.5133,-3.4245,-3.331,-3.2321,-3.1389,-3.0558,-2.9934,-2.9792,-2.9792,-2.9792,-2.9792,-2.9792,-2.9792,-2.9792,-2.9792,-2.9792,-2.9792,-2.9792,-2.9792,-2.9792,-2.9792,-2.9792,-2.9792,-2.9792,-2.9792,-2.9792,-2.9792,-2.9792,-2.9792,-2.9792,-2.9792,-2.9792,-2.9792,-2.9792,-2.9792,-2.9792,-2.9792,-2.9792,-2.9792,-2.9792,-2.6533,-2.6533,-2.6533,-2.6533,-2.6533,0.0,-2.6189,-2.6214,-2.6101,-2.5423,-2.5372,-2.5322,-2.4895,-2.482,-2.482,-2.482,-2.482,-2.482,-2.482,-2.5008,-2.5059,-2.4845,-2.5272,-2.5435,-2.5008,-2.5259,-2.5375,-2.5178,-2.6128,-2.7155,-2.824,-2.8987,-2.9679,-3.0328,-3.0313,-3.0597,-3.115,-3.115,-3.0896,-3.0458,-3.0798,-3.0636,-3.0,-3.1006,-3.1482,-3.1482,-3.1482,-3.1482,-3.1482,-3.1482,-3.1511,-3.1528,-3.1501,-3.2825,-3.4788,-3.5316,-3.5488,-3.5504,-3.5504,-3.5504,-3.5504,-3.5504,-3.5504,-3.5504,-3.5504,-3.5504,-3.5504,-3.5504,-3.5504,-3.5504,-3.5504,-3.4905,-3.4245,-3.4027,-3.331,-3.2321,-3.1389,-3.1044,-3.0696,-2.9934,-2.9792,-2.9792,-2.9792,-2.9792,-2.9792,-2.9792,-2.9792,-2.9792,-2.9792,-2.9792,-2.9792,-2.9792,-2.9792,-2.9792,-2.9792,-2.9792,-2.9792,-2.9792,-2.9792,-2.9792,-2.9792,-2.9792,-2.9792,-2.9792,-2.9792,-2.9792,-2.9792,-2.9792,-2.9792,-2.9792,-2.9792,-2.9792,-2.6533,-2.6533,-2.6533,-2.6533,-2.6533,0.0,0.0,-2.6025,-2.5875,-2.5322,-2.5209,-2.5134,-2.487,-2.482,-2.482,-2.482,-2.4594,-2.4506,-2.4782,-2.482,-2.4607,-2.4042,-2.4469,0.0,-2.4443,-2.4644,-2.4808,-2.482,-2.6116,-2.7301,-2.8215,-2.8956,-2.9871,-3.0944,-3.1016,-3.118,-3.1482,-3.1482,-3.1302,-3.1016,-3.1317,-3.114,-3.055,-3.1243,-3.1482,-3.1482,-3.1482,-3.1482,-3.1482,-3.1482,-3.1482,-3.1497,-3.1471,-3.3111,-3.5523,-3.5472,-3.5507,-3.5459,-3.5115,-3.522,-3.5444,-3.51,-3.522,-3.5504,-3.5504,-3.5504,-3.5504,-3.5504,-3.5504,-3.5504,-3.5504,-3.5133,-3.4758,-3.4758,-3.3685,-3.2464,-3.2033,-3.1193,-3.0343,-2.9856,-2.9792,-2.9792,-2.9792,-2.9792,-2.9792,-2.9792,-2.9792,-2.9792,-2.9792,-2.9792,-2.9792,-2.9792,-2.9792,-2.9792,-2.9792,-2.9792,-2.9792,-2.9792,-2.9792,-2.9792,-2.9792,-2.9792,-2.9792,-2.9792,-2.9792,-2.9792,-2.9792,-2.9792,-2.9792,-2.9792,-2.9792,-2.9792,-2.6533,-2.6533,-2.6533,-2.6533,-2.6533,-2.6339,0.0,0.0,0.0,-2.5222,-2.5146,-2.5146,-2.5146,-2.5146,-2.5096,-2.4983,0.0,0.0,0.0,-2.482,0.0,-2.3565,-2.3778,0.0,-2.4004,-2.4092,-2.4343,-2.4795,-2.5936,-2.7057,-2.792,-2.8743,-2.9827,-3.1204,-3.1409,-3.1482,-3.1482,-3.1482,-3.1482,-3.1482,-3.1482,-3.1482,-3.1482,-3.1482,-3.1482,-3.1482,-3.1482,-3.1482,-3.1482,-3.1482,-3.1482,-3.1497,-3.1471,-3.2826,-3.4759,-3.4984,-3.5097,-3.504,-3.4487,-3.4741,-3.522,-3.4666,-3.4936,-3.5504,-3.5504,-3.5504,-3.5504,-3.5504,-3.5504,-3.5504,-3.5504,-3.5359,-3.5148,-3.4986,-3.3616,-3.2321,-3.2119,-3.0846,-2.9792,-2.9792,-2.9792,-2.9792,-2.9792,-2.9792,-2.9792,-2.9792,-2.9792,-2.9792,-2.9792,-2.9792,-2.9792,-2.9792,-2.9792,-2.9792,-2.9792,-2.9792,-2.9792,-2.9792,-2.9792,-2.9792,-2.9792,-2.9792,-2.9792,-2.9792,-2.9792,-2.9792,-2.9792,-2.9792,-2.9792,-2.9792,-2.9792,-2.9792,-2.6533,-2.6533,-2.6533,-2.6533,-2.6533,-2.6508,-2.6445,0.0,-2.6352,-2.6289,0.0,-2.6345,-2.6345,0.0,0.0,-2.5586,0.0,0.0,-2.487,-2.482,-2.477,-2.4644,-2.4255,0.0,0.0,-2.4443,-2.4757,-2.482,-2.5363,-2.6101,-2.6993,-2.7858,-2.8993,-3.0375,-3.1146,-3.1482,-3.1482,-3.1482,-3.1482,-3.1482,-3.1482,-3.1482,-3.1482,-3.1482,-3.1482,-3.1482,-3.1482,-3.1482,-3.1482,-3.1482,-3.1482,-3.1497,-3.1471,-3.1708,-3.2124,-3.332,-3.3756,-3.3709,-3.3634,-3.4038,-3.4577,-3.4502,-3.4936,-3.5504,-3.5504,-3.5504,-3.5504,-3.5504,-3.5504,-3.5504,-3.5504,-3.4839,-3.3959,-3.3101,-3.2105,-3.1119,-3.0279,-2.9934,-2.9792,-2.9792,-2.9792,-2.9792,-2.9792,-2.9792,-2.9792,-2.9792,-2.9792,-2.9792,-2.9792,-2.9792,-2.9792,-2.9792,-2.9792,-2.9792,-2.9792,-2.9792,-2.9792,-2.9792,-2.9792,-2.9792,-2.9792,-2.9792,-2.9792,-2.9792,-2.9792,-2.9792,-2.9792,-2.9792,-2.9792,-2.9792,-2.9792,-2.9792,-2.6533,-2.6533,-2.6533,-2.6533,-2.6533,-2.6533,-2.6533,-2.6533,-2.6533,-2.6533,0.0,0.0,0.0,0.0,0.0,0.0,-2.5812,0.0,0.0,0.0,-2.482,0.0,0.0,0.0,0.0,0.0,0.0,0.0,-2.4644,-2.5511,-2.6364,-2.6787,-2.8022,-3.024,-3.0644,-3.1029,-3.1482,-3.1482,-3.1482,-3.1482,-3.1482,-3.1482,-3.1482,-3.1482,-3.1482,-3.1482,-3.1482,-3.1482,-3.1482,-3.1482,-3.1482,-3.1482,-3.1485,-3.1501,-3.1575,-3.2123,-3.2315,-3.2416,-3.278,-3.3604,-3.4547,-3.4936,-3.4996,-3.4981,-3.5385,-3.5504,-3.5504,-3.5504,-3.5504,-3.5504,-3.5504,-3.4758,-3.3876,-3.3518,-3.2321,-3.1106,-3.0696,-3.0216,-2.9792,-2.9792,-2.9792,-2.9792,-2.9792,-2.9792,-2.9792,-2.9792,-2.9792,-2.9792,-2.9792,-2.9792,-2.9792,-2.9792,-2.9792,-2.9792,-2.9792,-2.9792,-2.9792,-2.9792,-2.9792,-2.9792,-2.9792,-2.9792,-2.9792,-2.9792,-2.9792,-2.9792,-2.9792,-2.9792,-2.9792,-2.9792,-2.9792,-2.9792,-2.6533,-2.6533,-2.6533,-2.6533,-2.6533,-2.6533,-2.6533,-2.6533,-2.6533,-2.6533,-2.6533,0.0,0.0,0.0,-2.6483,-2.6251,0.0,-2.5925,-2.6189,-2.5674,0.0,0.0,0.0,0.0,0.0,0.0,0.0,-2.3452,-2.428,-2.4988,-2.5488,-2.61,-2.742,-2.9665,-3.0303,-3.0896,-3.1482,-3.1482,-3.1482,-3.1482,-3.1482,-3.1482,-3.1482,-3.1482,-3.1482,-3.1482,-3.1482,-3.1482,-3.1482,-3.1482,-3.1482,-3.1482,-3.1482,-3.1485,-3.1531,-3.1531,-3.1471,-3.1588,-3.2035,-3.2991,-3.4083,-3.4951,-3.4891,-3.4607,-3.5295,-3.5504,-3.5504,-3.5504,-3.5294,-3.5067,-3.5067,-3.4327,-3.3518,-3.331,-3.2177,-3.1106,-3.0908,-3.0279,-2.9792,-2.9792,-2.9792,-2.9792,-2.9792,-2.9792,-2.9792,-2.9792,-2.9792,-2.9792,-2.9792,-2.9792,-2.9792,-2.9792,-2.9792,-2.9792,-2.9792,-2.9792,-2.9792,-2.9792,-2.9792,-2.9792,-2.9792,-2.9792,-2.9792,-2.9792,-2.9792,-2.9792,-2.9792,-2.9792,-2.9792,-2.9792,-2.9792,-2.9792,0.0,0.0,0.0,-2.6533,0.0,0.0,0.0,0.0,-2.6533,-2.6533,-2.6533,-2.6533,-2.6533,-2.6533,-2.6276,-2.5711,-2.6076,0.0,0.0,-2.6076,-2.6483,0.0,0.0,0.0,0.0,0.0,0.0,-2.4054,-2.4506,-2.4582,-2.4117,-2.6089,-2.7575,-2.8227,-3.0323,-3.1467,-3.1482,-3.1482,-3.1482,-3.1482,-3.1482,-3.1482,-3.1482,-3.1482,-3.1482,-3.1482,-3.1482,-3.1482,-3.1482,-3.1482,-3.1482,-3.1482,-3.1482,-3.1482,-3.1497,-3.1497,-3.1497,-3.1497,-3.1497,-3.2018,-3.2796,-3.4083,-3.4502,-3.4607,-3.5295,-3.5504,-3.5504,-3.5504,-3.4839,-3.4027,-3.4027,-3.338,-3.2393,-3.1536,-3.1254,-3.097,-3.0075,-2.9792,-2.9792,-2.9792,-2.9792,-2.9792,-2.9792,-2.9792,-2.9792,-2.9792,-2.9792,-2.9792,-2.9792,-2.9792,-2.9792,-2.9792,-2.9792,-2.9792,-2.9792,-2.9792,-2.9792,-2.9792,-2.9792,-2.9792,-2.9792,-2.9792,-2.9792,-2.9792,-2.9792,-2.9792,-2.9792,-2.9792,-2.9792,-2.9792,-2.9792,-2.9792,0.0,0.0,-2.6533,-2.6533,0.0,0.0,0.0,0.0,0.0,0.0,-2.6533,-2.6533,-2.6533,-2.6533,-2.6402,-2.6201,-2.6395,-2.6458,0.0,-2.6339,0.0,-2.5937,-2.5711,-2.5523,0.0,0.0,0.0,-2.4054,-2.4167,-2.4192,-2.4004,-2.5049,-2.6445,-2.8152,-2.9242,-3.0389,-3.1482,-3.1482,-3.1482,-3.1482,-3.1482,-3.1482,-3.1482,-3.1482,-3.1482,-3.1482,-3.1482,-3.1482,-3.1482,-3.1482,-3.1482,-3.1482,-3.1482,-3.1482,-3.1482,-3.1482,-3.1482,-3.1541,-3.2033,-3.2048,-3.2078,-3.3395,-3.3829,-3.3948,-3.4622,-3.5145,-3.5504,-3.5504,-3.5279,-3.4839,-3.4177,-3.331,-3.2393,-3.1389,-3.0696,-3.0216,-2.9869,-2.9792,-2.9792,-2.9792,-2.9792,-2.9792,-2.9792,-2.9792,-2.9792,-2.9792,-2.9792,-2.9792,-2.9792,-2.9792,-2.9792,-2.9792,-2.9792,-2.9792,-2.9792,-2.9792,-2.9792,-2.9792,-2.9792,-2.9792,-2.9792,-2.9792,-2.9792,-2.9792,-2.9792,-2.9792,-2.9792,-2.9792,-2.9792,-2.9792,-2.9792,-2.9792,-2.6533,-2.6533,0.0,-2.6533,-2.6533,0.0,-2.6533,0.0,-2.6533,0.0,0.0,0.0,-2.6189,-2.6395,-2.6458,-2.6189,-2.6395,-2.6533,0.0,-2.6533,-2.6395,-2.595,-2.59,-2.5824,-2.5611,-2.5473,-2.5008,-2.4067,-2.418,-2.4117,0.0,0.0,-2.5942,-2.7407,-2.8761,-2.995,-3.1087,-3.1351,-3.1482,-3.1482,-3.1482,-3.1482,-3.1482,-3.1482,-3.1482,-3.1482,-3.1482,-3.1482,-3.1482,-3.1482,-3.1482,-3.1482,-3.1482,-3.1482,-3.1482,-3.1482,-3.1616,-3.1855,-3.2093,-3.2198,-3.2332,-3.2946,-3.3469,-3.3918,-3.4352,-3.4966,-3.5504,-3.5504,-3.5001,-3.4341,-3.3671,-3.2536,-3.1476,-3.0833,-3.0203,-2.9792,-2.9792,-2.9792,-2.9792,-2.9792,-2.9792,-2.9792,-2.9792,-2.9792,-2.9792,-2.9792,-2.9792,-2.9792,-2.9792,-2.9792,-2.9792,-2.9792,-2.9792,-2.9792,-2.9792,-2.9792,-2.9792,-2.9792,-2.9792,-2.9792,-2.9792,-2.9792,-2.9792,-2.9792,-2.9792,-2.9792,-2.9792,-2.9792,-2.9792,-2.9792,-2.9792,-2.9792]},{"header":{"parameterUnit":"m.s-1","parameterCategory":1,"la1":30.6,"la2":29.2853,"lo1":-89.7004,"lo2":-87.6739,"dy":0.0162,"dx":0.0183,"nx":112,"ny":82,"refTime":"2023-06-04T12:00:00:Z","depth":0,"parameterNumber":3,"parameterNumberName":"V-component_of_WINDS"},"data":[0.0,0.0,0.0,0.0,0.0,0.0,0.0,0.0,0.0,0.0,0.0,0.0,0.0,0.0,0.0,0.0,0.0,0.0,0.0,0.0,0.0,0.0,0.0,0.0,0.0,0.0,0.0,0.0,0.0,0.0,0.0,0.0,0.0,0.0,0.0,0.0,0.0,0.0,0.0,0.0,0.0,0.0,0.0,0.0,0.0,0.0,0.0,0.0,0.0,0.0,0.0,0.0,0.0,0.0,0.0,0.0,0.0,0.0,0.0,0.0,0.0,0.0,0.0,0.0,0.0,0.0,0.0,0.0,0.0,0.0,0.0,0.0,0.0,0.0,0.0,0.0,0.0,0.0,0.0,0.0,0.0,0.0,0.0,0.0,0.0,0.0,0.0,0.0,0.0,0.0,-3.2541,-3.6923,-4.2811,-4.6213,-4.566,-4.5573,-4.2748,-3.6207,0.0,0.0,0.0,0.0,0.0,0.0,0.0,0.0,0.0,0.0,0.0,0.0,0.0,0.0,0.0,0.0,0.0,0.0,0.0,0.0,0.0,0.0,0.0,0.0,0.0,0.0,0.0,0.0,0.0,0.0,0.0,0.0,0.0,0.0,0.0,0.0,0.0,0.0,0.0,0.0,0.0,0.0,0.0,0.0,0.0,0.0,0.0,0.0,0.0,0.0,0.0,0.0,0.0,0.0,0.0,0.0,0.0,0.0,0.0,0.0,0.0,0.0,0.0,0.0,0.0,0.0,0.0,0.0,0.0,0.0,0.0,0.0,0.0,0.0,0.0,0.0,0.0,0.0,0.0,0.0,0.0,0.0,0.0,0.0,0.0,0.0,0.0,0.0,0.0,0.0,0.0,0.0,0.0,0.0,0.0,0.0,0.0,0.0,0.0,0.0,0.0,0.0,0.0,0.0,-3.4537,-4.1254,-4.4995,-4.679,-4.6238,-4.3677,-4.0626,-3.7149,0.0,0.0,0.0,0.0,0.0,0.0,0.0,0.0,0.0,0.0,0.0,0.0,0.0,0.0,0.0,0.0,0.0,0.0,0.0,0.0,0.0,0.0,0.0,0.0,0.0,0.0,0.0,0.0,0.0,0.0,0.0,0.0,0.0,0.0,0.0,0.0,0.0,0.0,0.0,0.0,0.0,0.0,0.0,0.0,0.0,0.0,0.0,0.0,0.0,0.0,0.0,0.0,0.0,0.0,0.0,0.0,0.0,0.0,0.0,0.0,0.0,0.0,0.0,0.0,0.0,0.0,0.0,0.0,0.0,0.0,0.0,0.0,0.0,0.0,0.0,0.0,0.0,0.0,0.0,0.0,0.0,0.0,0.0,0.0,0.0,0.0,0.0,0.0,0.0,0.0,0.0,0.0,0.0,0.0,0.0,0.0,0.0,0.0,0.0,0.0,0.0,0.0,0.0,-3.4022,-3.7312,-4.2434,-4.5196,-4.6338,-4.5472,-4.3451,-4.0651,-3.6973,-3.6475,0.0,0.0,0.0,0.0,0.0,0.0,0.0,0.0,0.0,0.0,0.0,0.0,0.0,0.0,0.0,0.0,0.0,0.0,0.0,0.0,0.0,0.0,0.0,0.0,0.0,0.0,0.0,0.0,0.0,0.0,0.0,0.0,0.0,0.0,0.0,0.0,0.0,0.0,0.0,0.0,0.0,0.0,0.0,0.0,0.0,0.0,0.0,0.0,0.0,0.0,0.0,0.0,0.0,0.0,0.0,0.0,0.0,0.0,0.0,0.0,0.0,0.0,0.0,0.0,0.0,0.0,0.0,0.0,0.0,0.0,0.0,0.0,0.0,0.0,0.0,0.0,0.0,0.0,0.0,0.0,0.0,0.0,0.0,0.0,0.0,0.0,0.0,0.0,0.0,0.0,0.0,0.0,0.0,0.0,0.0,0.0,0.0,0.0,0.0,0.0,0.0,0.0,-3.6948,-3.9383,-4.2459,-4.4782,-4.5716,-4.4764,-4.3169,-4.0821,-3.7201,-3.5979,0.0,0.0,0.0,0.0,0.0,0.0,0.0,0.0,0.0,0.0,0.0,0.0,0.0,0.0,0.0,0.0,0.0,0.0,0.0,0.0,0.0,0.0,0.0,0.0,0.0,0.0,0.0,0.0,0.0,0.0,0.0,0.0,0.0,0.0,0.0,0.0,0.0,0.0,0.0,0.0,0.0,0.0,0.0,0.0,0.0,0.0,0.0,0.0,0.0,0.0,0.0,0.0,0.0,0.0,0.0,0.0,0.0,0.0,0.0,0.0,0.0,0.0,0.0,0.0,0.0,0.0,0.0,0.0,0.0,0.0,0.0,0.0,0.0,0.0,0.0,0.0,0.0,0.0,0.0,0.0,0.0,0.0,0.0,0.0,0.0,0.0,0.0,0.0,0.0,0.0,0.0,0.0,0.0,0.0,0.0,0.0,0.0,0.0,0.0,0.0,0.0,0.0,-3.6822,-3.9685,-4.1969,-4.4217,-4.5425,-4.4892,-4.2123,-3.9846,-3.8751,-3.547,0.0,0.0,0.0,0.0,0.0,0.0,0.0,0.0,0.0,0.0,0.0,0.0,0.0,0.0,0.0,0.0,0.0,0.0,0.0,0.0,0.0,0.0,0.0,0.0,0.0,0.0,0.0,0.0,0.0,0.0,0.0,0.0,0.0,0.0,0.0,0.0,0.0,0.0,0.0,0.0,0.0,0.0,0.0,0.0,0.0,0.0,0.0,0.0,0.0,0.0,0.0,0.0,0.0,0.0,0.0,0.0,0.0,0.0,0.0,0.0,0.0,0.0,0.0,0.0,0.0,0.0,0.0,0.0,0.0,0.0,0.0,0.0,0.0,0.0,0.0,0.0,0.0,0.0,0.0,0.0,0.0,0.0,0.0,0.0,0.0,0.0,0.0,0.0,0.0,0.0,0.0,0.0,0.0,0.0,0.0,0.0,0.0,0.0,0.0,0.0,0.0,0.0,-3.8147,-4.104,-4.3757,-4.5382,-4.6142,-4.561,-4.3827,-4.1612,-3.9068,0.0,0.0,0.0,0.0,0.0,0.0,0.0,0.0,0.0,0.0,0.0,0.0,0.0,0.0,0.0,0.0,0.0,0.0,0.0,0.0,0.0,0.0,0.0,0.0,0.0,0.0,0.0,0.0,0.0,0.0,0.0,0.0,0.0,0.0,0.0,0.0,0.0,0.0,0.0,0.0,0.0,0.0,0.0,0.0,0.0,0.0,0.0,0.0,0.0,0.0,0.0,0.0,0.0,0.0,0.0,0.0,0.0,0.0,0.0,0.0,0.0,0.0,0.0,0.0,0.0,0.0,0.0,0.0,0.0,0.0,0.0,0.0,0.0,0.0,0.0,0.0,0.0,0.0,0.0,0.0,0.0,0.0,0.0,0.0,0.0,0.0,0.0,0.0,0.0,0.0,0.0,0.0,0.0,0.0,0.0,0.0,0.0,0.0,0.0,0.0,0.0,0.0,-3.6609,-3.9188,-4.1755,-4.451,-4.572,-4.6178,-4.6083,-4.4188,-4.2069,-3.9853,0.0,0.0,0.0,0.0,0.0,0.0,0.0,0.0,0.0,0.0,0.0,0.0,0.0,0.0,0.0,0.0,0.0,0.0,0.0,0.0,0.0,0.0,0.0,0.0,0.0,0.0,0.0,0.0,0.0,0.0,0.0,0.0,0.0,0.0,0.0,0.0,0.0,0.0,0.0,0.0,0.0,0.0,0.0,0.0,0.0,0.0,0.0,0.0,0.0,0.0,0.0,0.0,0.0,0.0,0.0,0.0,0.0,0.0,0.0,0.0,0.0,0.0,0.0,0.0,0.0,0.0,0.0,0.0,0.0,0.0,0.0,0.0,0.0,0.0,0.0,0.0,0.0,0.0,0.0,0.0,0.0,0.0,0.0,0.0,0.0,0.0,0.0,0.0,0.0,0.0,0.0,0.0,0.0,0.0,0.0,0.0,0.0,0.0,0.0,0.0,0.0,0.0,-3.7606,-3.9595,-4.1667,-4.4029,-4.4828,-4.5428,-4.6168,-4.2568,-4.0648,0.0,0.0,0.0,0.0,0.0,0.0,0.0,0.0,0.0,0.0,0.0,0.0,0.0,0.0,0.0,0.0,0.0,0.0,0.0,0.0,0.0,0.0,0.0,0.0,0.0,0.0,0.0,0.0,0.0,0.0,0.0,0.0,0.0,0.0,0.0,0.0,0.0,0.0,0.0,0.0,0.0,0.0,0.0,0.0,0.0,0.0,0.0,0.0,0.0,0.0,0.0,0.0,0.0,0.0,0.0,0.0,0.0,0.0,0.0,0.0,0.0,0.0,0.0,0.0,0.0,0.0,0.0,0.0,0.0,0.0,0.0,0.0,0.0,0.0,0.0,0.0,0.0,0.0,0.0,0.0,0.0,0.0,0.0,0.0,0.0,0.0,0.0,0.0,0.0,0.0,0.0,0.0,0.0,0.0,0.0,0.0,0.0,0.0,0.0,0.0,0.0,0.0,0.0,-3.8953,-4.0836,-4.3065,-4.6122,-4.6515,-4.6563,-4.6299,-4.3906,-4.1937,-4.0786,0.0,0.0,0.0,0.0,0.0,0.0,0.0,0.0,0.0,0.0,0.0,0.0,0.0,0.0,0.0,0.0,0.0,0.0,0.0,0.0,0.0,0.0,0.0,0.0,0.0,0.0,0.0,0.0,0.0,0.0,0.0,0.0,0.0,0.0,0.0,0.0,0.0,0.0,0.0,0.0,0.0,0.0,0.0,0.0,0.0,0.0,0.0,0.0,0.0,0.0,0.0,0.0,0.0,0.0,0.0,0.0,0.0,0.0,0.0,0.0,0.0,0.0,0.0,0.0,0.0,0.0,0.0,0.0,0.0,0.0,0.0,0.0,0.0,0.0,0.0,0.0,0.0,0.0,0.0,0.0,0.0,0.0,0.0,0.0,0.0,0.0,0.0,0.0,0.0,0.0,0.0,0.0,0.0,0.0,0.0,0.0,0.0,0.0,0.0,0.0,0.0,0.0,-3.978,-4.1228,-4.3135,-4.6187,-4.6756,-4.6636,-4.5978,-4.4332,-4.2387,-4.0142,0.0,0.0,0.0,0.0,0.0,0.0,0.0,0.0,0.0,0.0,0.0,0.0,0.0,0.0,0.0,0.0,0.0,0.0,0.0,0.0,0.0,0.0,0.0,0.0,0.0,0.0,0.0,0.0,0.0,0.0,0.0,0.0,0.0,0.0,0.0,0.0,0.0,0.0,0.0,0.0,0.0,0.0,0.0,0.0,0.0,0.0,0.0,0.0,0.0,0.0,0.0,0.0,0.0,0.0,0.0,0.0,0.0,0.0,0.0,0.0,0.0,0.0,0.0,0.0,0.0,0.0,0.0,0.0,0.0,0.0,0.0,0.0,0.0,0.0,0.0,0.0,0.0,0.0,0.0,0.0,0.0,0.0,0.0,0.0,0.0,0.0,0.0,0.0,0.0,0.0,0.0,0.0,0.0,0.0,0.0,0.0,0.0,0.0,0.0,0.0,0.0,0.0,-4.0142,-4.0965,-4.2312,-4.5005,-4.5858,-4.5948,-4.5259,-4.3943,-4.2087,-3.9574,0.0,0.0,0.0,0.0,0.0,0.0,0.0,0.0,0.0,0.0,0.0,0.0,0.0,0.0,0.0,0.0,0.0,0.0,0.0,0.0,0.0,0.0,0.0,0.0,0.0,0.0,0.0,0.0,0.0,0.0,0.0,0.0,0.0,0.0,0.0,0.0,0.0,0.0,0.0,0.0,0.0,0.0,0.0,0.0,0.0,0.0,0.0,0.0,0.0,0.0,0.0,0.0,0.0,0.0,0.0,0.0,0.0,0.0,0.0,0.0,-2.6623,0.0,0.0,0.0,0.0,0.0,0.0,0.0,0.0,0.0,0.0,0.0,0.0,0.0,0.0,0.0,0.0,0.0,0.0,0.0,0.0,0.0,0.0,0.0,0.0,0.0,0.0,0.0,0.0,0.0,0.0,0.0,0.0,0.0,0.0,0.0,0.0,0.0,0.0,0.0,0.0,0.0,-4.0696,-4.0846,-4.1818,-4.496,-4.5424,-4.5244,-4.4586,-4.2851,-4.1115,-3.9514,-3.721,0.0,0.0,0.0,0.0,0.0,0.0,0.0,0.0,0.0,0.0,0.0,0.0,0.0,0.0,0.0,0.0,0.0,0.0,0.0,0.0,0.0,0.0,0.0,0.0,0.0,0.0,0.0,0.0,0.0,0.0,0.0,0.0,0.0,0.0,0.0,0.0,0.0,0.0,0.0,0.0,0.0,0.0,0.0,0.0,0.0,0.0,0.0,0.0,0.0,0.0,0.0,0.0,0.0,0.0,0.0,0.0,0.0,0.0,0.0,0.0,-2.8059,0.0,0.0,0.0,0.0,0.0,0.0,0.0,0.0,0.0,0.0,0.0,0.0,0.0,0.0,0.0,0.0,0.0,0.0,0.0,0.0,0.0,0.0,0.0,0.0,0.0,0.0,0.0,0.0,0.0,0.0,0.0,0.0,0.0,0.0,0.0,0.0,0.0,0.0,0.0,0.0,-4.0442,-4.0337,-4.1055,-4.4032,-4.4631,-4.4556,-4.3898,-4.2626,-4.101,-3.905,-3.7345,0.0,0.0,0.0,0.0,0.0,0.0,0.0,0.0,0.0,0.0,0.0,0.0,0.0,0.0,0.0,0.0,0.0,0.0,0.0,0.0,0.0,0.0,0.0,0.0,0.0,0.0,0.0,0.0,0.0,0.0,0.0,0.0,0.0,0.0,0.0,0.0,0.0,0.0,0.0,0.0,0.0,0.0,0.0,0.0,0.0,0.0,0.0,0.0,0.0,0.0,0.0,0.0,0.0,-2.8212,-2.9965,-3.213,-3.2321,-3.2941,-3.3684,-3.1763,-3.0608,-3.003,-2.9453,0.0,0.0,0.0,0.0,0.0,0.0,0.0,0.0,0.0,0.0,0.0,0.0,0.0,0.0,0.0,0.0,0.0,0.0,0.0,0.0,0.0,0.0,0.0,0.0,-3.7674,-3.6956,0.0,0.0,0.0,0.0,0.0,0.0,0.0,0.0,0.0,0.0,0.0,0.0,-4.0008,-3.9933,-4.0546,-4.306,-4.3823,-4.3928,-4.3389,-4.2626,-4.1205,-3.8886,-3.7808,-3.6327,0.0,0.0,0.0,0.0,0.0,0.0,0.0,0.0,0.0,0.0,0.0,0.0,0.0,0.0,0.0,0.0,0.0,0.0,0.0,0.0,0.0,0.0,0.0,0.0,0.0,0.0,0.0,0.0,0.0,0.0,0.0,0.0,-1.5753,-1.6376,0.0,0.0,0.0,0.0,0.0,0.0,0.0,0.0,0.0,0.0,0.0,0.0,0.0,-2.3896,-2.4639,-2.7225,-2.8697,-2.9063,-3.2638,-3.4314,-3.433,-3.533,-3.6088,-3.6596,-3.583,0.0,-3.1135,-3.0608,0.0,0.0,0.0,0.0,0.0,0.0,0.0,0.0,0.0,0.0,0.0,0.0,0.0,0.0,0.0,0.0,0.0,0.0,0.0,0.0,0.0,0.0,-3.7449,-3.8108,-3.8721,-3.8721,0.0,-3.6477,-3.6028,-3.537,-3.4906,0.0,0.0,0.0,0.0,0.0,0.0,0.0,-4.0127,-4.0322,-4.1055,-4.3105,-4.3404,-4.3434,-4.3344,-4.2207,-4.1115,-4.0187,-3.7913,-3.6686,-3.6881,-3.4786,0.0,0.0,0.0,0.0,0.0,0.0,0.0,0.0,0.0,0.0,0.0,0.0,0.0,0.0,0.0,0.0,0.0,0.0,0.0,0.0,0.0,0.0,0.0,0.0,0.0,0.0,0.0,0.0,0.0,-1.6946,-1.7293,-1.7389,-1.7325,-1.7505,0.0,0.0,0.0,0.0,0.0,0.0,0.0,0.0,0.0,-2.4297,-2.5156,-2.5898,-2.6523,-2.9404,-3.147,-3.2829,-3.5771,-3.7581,-3.8403,-3.8941,-3.9283,-3.9484,-3.8931,-3.7513,-3.5454,-3.3658,-3.2265,-3.1173,0.0,0.0,0.0,0.0,-3.3043,-3.4112,-3.6273,-3.7546,0.0,-3.8033,0.0,0.0,0.0,0.0,0.0,0.0,0.0,0.0,0.0,0.0,-3.926,-3.9918,-4.0307,-4.0262,-3.929,-3.8871,-3.8063,0.0,-3.5833,-3.6207,-3.6447,0.0,0.0,0.0,0.0,-3.7734,-4.0098,-4.0397,-4.1145,-4.312,-4.3015,-4.2776,-4.2776,-4.1579,-4.0382,-3.9334,-3.7838,-3.6626,-3.5789,-3.5026,-3.4681,0.0,0.0,0.0,0.0,0.0,0.0,0.0,0.0,0.0,0.0,0.0,0.0,0.0,0.0,0.0,0.0,0.0,0.0,0.0,0.0,0.0,0.0,0.0,0.0,0.0,0.0,0.0,0.0,-1.8512,-1.8958,-1.8261,-1.907,-1.9362,0.0,0.0,0.0,0.0,0.0,0.0,-2.3916,-2.498,-2.5869,-2.6533,-2.7383,-2.8298,-2.9259,-3.1839,-3.434,-3.6626,-3.8585,-4.023,-4.1543,-4.1404,-4.1266,-4.1103,-4.0551,-3.9835,-3.8894,-3.6383,-3.47,-3.3558,-3.2051,-3.1687,-3.225,-3.3661,-3.4804,-3.5933,-3.8431,-3.9654,-4.0008,-3.917,0.0,-3.8317,-3.6537,0.0,0.0,0.0,0.0,-3.7853,-3.8691,-3.9768,-4.0816,-4.1474,-4.1758,-4.1698,-4.104,-4.0771,-3.9768,0.0,-3.6881,-3.7375,-3.7255,0.0,0.0,0.0,0.0,-3.7749,-3.9873,-4.0292,-4.1025,-4.2656,-4.2402,-4.2117,-4.2117,-4.1055,-3.9903,-3.8721,-3.7868,-3.6686,-3.5055,-3.5322,-3.5057,-3.4046,0.0,0.0,0.0,0.0,0.0,0.0,0.0,0.0,0.0,0.0,0.0,0.0,0.0,0.0,0.0,0.0,0.0,0.0,0.0,0.0,0.0,0.0,0.0,0.0,0.0,0.0,0.0,0.0,0.0,-1.8737,-2.1111,0.0,0.0,0.0,0.0,-2.3506,-2.4014,-2.4853,-2.6152,-2.667,-2.748,-2.8721,-2.959,-3.1211,-3.3539,-3.5534,-3.7554,-3.9837,-4.125,-4.2082,-4.2095,-4.158,-4.1053,-4.0526,-3.9973,-3.9697,-3.9521,-3.7776,-3.6408,-3.5303,-3.4173,-3.3746,-3.3709,-3.3354,-3.4419,-3.617,-3.6383,-3.7767,-3.9559,-4.0113,-3.9873,-3.911,-3.7734,-3.7315,0.0,0.0,-3.8317,-3.8646,-3.9963,-4.0816,-4.1489,-4.2147,-4.2791,-4.306,-4.2402,-4.1773,-4.0726,0.0,-3.7793,-3.7808,-3.905,0.0,-3.6866,-3.8153,-3.8317,-3.8571,-3.9364,-4.0008,-4.0681,-4.1399,-4.1444,-4.1429,-4.1429,-4.0786,-4.0113,-3.9409,-3.8138,-3.7105,-3.6417,-3.5875,-3.5504,-3.5397,-3.5575,0.0,0.0,0.0,0.0,0.0,0.0,0.0,0.0,0.0,0.0,0.0,0.0,0.0,0.0,0.0,0.0,0.0,0.0,0.0,0.0,0.0,0.0,0.0,0.0,0.0,0.0,0.0,0.0,-2.1641,-2.3721,0.0,-2.2969,-2.3623,-2.4521,-2.54,-2.6367,-2.748,-2.8769,-2.9521,-3.0254,-3.0986,-3.1572,-3.2825,-3.476,-3.6322,-3.8125,-3.9932,-4.1447,-4.1969,-4.1643,-4.1794,-4.1568,-4.1015,-4.0463,-4.0224,-4.0149,-3.9195,-3.7927,-3.6521,-3.5768,-3.5052,-3.4526,-3.544,-3.697,-3.8713,-3.9473,-4.0924,-4.2402,-4.1369,-4.0307,-3.9334,-3.8856,-3.8706,-3.8841,-3.9499,-3.9993,-4.0516,-4.1429,-4.2147,-4.2686,-4.2925,-4.3165,-4.315,-4.2506,-4.2177,-4.1669,-4.0531,-3.908,-3.8332,-3.926,-3.8123,-3.7375,-3.8257,-3.8392,-3.8796,-3.9903,-4.0621,-4.128,-4.1938,-4.1639,-4.1205,-4.0786,-3.9738,-3.8826,-3.8167,-3.73,-3.6522,-3.5878,-3.5661,-3.5347,-3.4898,-3.4936,-3.5315,0.0,0.0,0.0,0.0,0.0,0.0,0.0,0.0,0.0,0.0,0.0,0.0,0.0,0.0,0.0,0.0,0.0,0.0,0.0,0.0,0.0,0.0,0.0,0.0,0.0,-2.2812,-2.4346,-2.4053,-2.6182,-2.71,-2.5654,-2.6289,-2.7109,-2.7851,-2.8828,-2.9814,-3.081,-3.1553,-3.208,-3.2373,-3.3371,-3.4462,-3.5962,-3.7484,-3.8917,-4.0364,-4.142,-4.1693,-4.1354,-4.1517,-4.1404,-4.1028,-4.0475,-4.0237,-4.0212,-3.9848,-3.8931,-3.7701,-3.7136,-3.6471,-3.5911,-3.6676,-3.8225,-4.0218,-4.1684,-4.2858,-4.3434,-4.2132,-4.0965,-4.0083,-4.0083,-4.0083,-4.0217,-4.0876,-4.1369,-4.1863,-4.2521,-4.3015,-4.3329,-4.3329,-4.3329,-4.321,-4.2776,-4.2506,-4.2314,-4.1788,-4.0457,-3.9469,-3.9709,-3.8826,-3.8317,-3.896,-3.8676,-3.8871,-4.0232,-4.0591,-4.0891,-4.1324,-4.098,-4.0442,-3.9768,-3.911,-3.8272,-3.7165,-3.6911,-3.6312,-3.5205,-3.6137,-3.6197,-3.5316,-3.5315,-3.5826,-3.682,0.0,0.0,0.0,0.0,0.0,0.0,0.0,0.0,0.0,0.0,0.0,0.0,0.0,0.0,0.0,0.0,0.0,0.0,0.0,0.0,0.0,0.0,0.0,-2.1963,-2.4199,-2.585,-2.5869,-2.8467,-2.9619,-2.7988,-2.9297,-3.0459,-3.0937,-3.1338,-3.1748,-3.2187,-3.2598,-3.2812,-3.2812,-3.4749,-3.6314,-3.7401,-3.8987,-4.0241,-4.1342,-4.1317,-4.1304,-4.1266,-4.0752,-4.0513,-4.0463,-3.9923,-3.9697,-3.9697,-3.9697,-3.9371,-3.8806,-3.8228,-3.8002,-3.7852,-3.6855,-3.7952,-4.0246,-4.2578,-4.294,-4.2387,-4.2387,-4.1968,-4.1444,-4.1444,-4.1444,-4.1564,-4.2207,-4.2372,-4.2506,-4.3135,-4.3299,-4.3299,-4.3299,-4.3299,-4.3299,-4.3299,-4.2791,-4.2327,-4.2327,-4.1818,-4.1175,-4.0516,-3.9858,-3.9634,-4.0277,-3.926,0.0,-4.0232,-3.9843,-3.9454,-3.9454,-3.9454,-3.9155,-3.8452,-3.899,-3.8527,-3.6582,-3.7,-3.6462,-3.4562,-3.7259,-3.8136,-3.6798,-3.6804,-3.6772,-3.6772,0.0,0.0,0.0,0.0,0.0,0.0,0.0,0.0,0.0,0.0,0.0,0.0,0.0,0.0,0.0,0.0,0.0,0.0,0.0,0.0,0.0,-2.2148,-2.3369,-2.3682,-2.6221,-2.8271,-2.8896,-3.0537,-3.1562,-3.1396,-3.1533,-3.1934,-3.2666,-3.2549,-3.2627,-3.3057,-3.3184,-3.3252,-3.3252,-3.3717,-3.5273,-3.7903,-3.7664,-3.873,-4.1329,-4.094,-4.0538,-4.0162,-4.04,-4.03,-3.991,-3.976,-3.9697,-3.9697,-3.9697,-3.9371,-3.8806,-3.8228,-3.7764,-3.7409,-3.7593,-3.9156,-4.1408,-4.3353,-4.3614,-4.306,-4.306,-4.294,-4.2791,-4.2791,-4.2791,-4.2836,-4.3015,-4.2731,-4.2402,-4.2581,-4.2626,-4.2626,-4.2626,-4.2626,-4.2626,-4.2626,-4.2117,-4.1654,-4.1654,-4.1504,-4.1175,-4.0516,-3.9858,-3.9484,-3.9664,-3.9364,0.0,-4.0292,-4.0247,-4.0127,-4.0127,-4.0127,-3.9664,-3.8482,-3.8123,-3.7345,-3.5863,-3.5459,-3.504,-3.4502,-3.526,-3.5776,-3.5932,-3.6499,-3.6772,0.0,0.0,0.0,0.0,0.0,0.0,0.0,0.0,0.0,0.0,0.0,0.0,0.0,0.0,0.0,0.0,0.0,0.0,0.0,0.0,0.0,0.0,-2.3896,-2.5478,-2.6435,-2.8232,-2.9912,-3.1133,-3.2285,-3.3066,-3.331,-3.3105,-3.3174,-3.3662,-3.3301,-3.3164,-3.3408,-3.3418,-3.3418,-3.3418,-3.3838,-3.5206,-3.749,-3.7406,-3.8375,-4.0651,-4.0325,-4.0011,-3.9697,-4.0023,-3.9998,0.0,-3.9697,-3.9697,-3.9672,-3.9446,-3.9157,0.0,0.0,0.0,0.0,0.0,-3.9697,-4.1141,-4.3153,-4.3658,-4.3329,-4.3329,-4.3329,-4.3329,-4.3329,-4.3135,-4.2925,-4.2925,-4.2656,-4.2357,-4.2357,-4.2566,-4.2776,-4.2776,-4.2551,-4.2357,-4.2357,-4.1848,-4.1294,-4.1025,-4.0965,0.0,-4.0113,-3.9903,-3.9828,-3.9828,-3.9589,-3.9649,-4.0307,-4.0157,-3.9993,-3.9993,-3.9993,-3.9559,-3.8482,-3.8033,0.0,0.0,0.0,-3.5368,-3.5491,-3.5197,0.0,0.0,0.0,-3.7143,-3.6772,0.0,0.0,0.0,-3.777,-3.7787,0.0,0.0,0.0,0.0,0.0,0.0,0.0,0.0,0.0,0.0,0.0,0.0,0.0,0.0,0.0,0.0,-2.5889,-2.79,-2.9619,-3.0225,-3.1074,-3.2676,-3.3584,-3.4111,-3.4209,-3.4131,-3.4092,-3.4141,-3.3691,-3.3418,-3.3418,0.0,0.0,0.0,0.0,-3.5414,-3.6731,-3.7583,-3.8633,-3.9785,-3.9722,-3.9697,-3.9697,-3.9697,-3.9697,-3.9697,-3.9697,-3.9659,-3.9559,-3.9082,-3.8793,-3.863,-3.8115,-3.7673,-3.7489,-3.9119,-3.9885,-4.0418,-4.2386,0.0,0.0,-4.3314,-4.3225,-4.3135,-4.3284,-4.288,-4.2357,-4.2357,-4.2312,-4.2237,-4.2162,-4.2566,-4.3,-4.3,-4.2566,-4.2132,-4.2132,-4.1683,-4.11,-4.0516,-4.0397,-4.0217,-3.9634,-3.9948,-4.0292,-4.0292,-3.9783,-3.9634,-4.0217,-3.9783,-3.9424,-3.9424,0.0,0.0,-3.8452,-3.8317,-3.7734,-3.6462,-3.6312,-3.6345,-3.6553,-3.6069,-3.6052,-3.6659,-3.7458,-3.7519,-3.6797,-3.7567,-3.7889,-3.7905,-3.8565,-3.8514,0.0,0.0,0.0,0.0,0.0,0.0,0.0,0.0,0.0,0.0,0.0,0.0,0.0,0.0,0.0,-2.5518,-2.7676,-2.9687,-3.1426,-3.2021,-3.2539,-3.3223,-3.376,-3.4355,-3.5068,-3.4492,-3.4209,-3.4551,-3.3857,-3.3418,-3.3418,-3.3105,-3.3076,-3.3408,-3.2568,-3.3778,-3.7222,-3.6297,-3.7355,-4.035,0.0,0.0,-3.9697,-3.9697,-3.9697,-3.9697,-3.9697,-3.9433,-3.9019,-3.8906,-3.8329,-3.75,-3.7387,-3.7629,-3.8005,-3.8328,-3.9683,-4.1337,-4.1767,-4.221,-4.2626,-4.3165,-4.2611,-4.1953,-4.3015,-4.288,0.0,-4.2357,-4.1983,-4.1444,-4.092,-4.0876,-4.0965,-4.0965,-4.0861,-4.0786,-4.0786,-4.0681,-4.0546,-4.0427,-4.0397,-4.0367,-4.0232,-3.9873,-3.9604,-3.9604,-3.9499,-3.9469,-3.9589,-3.9499,-3.9424,-3.9424,-3.9424,-3.914,-3.8452,-3.7898,-3.706,-3.5774,-3.5175,-3.4928,-3.4967,-3.5355,-3.5605,-3.5759,-3.6546,-3.6884,-3.6721,-3.7525,-3.7878,-3.7878,-3.8055,-3.8038,0.0,0.0,0.0,0.0,0.0,0.0,0.0,0.0,0.0,0.0,0.0,-2.0654,-2.1934,0.0,-2.54,-2.7344,-2.9101,-3.0684,-3.1982,-3.2529,-3.3037,-3.3672,-3.3945,-3.4326,-3.498,-3.4453,-3.416,-3.4365,-3.3789,-3.333,-3.3115,-3.3105,-3.3008,-3.2803,-3.2178,-3.3428,-3.663,-3.5781,-3.6963,-4.0111,-3.9823,-3.9697,-3.9697,-3.9697,-3.9697,-3.9685,-3.9408,-3.9132,-3.8831,-3.8266,-3.7538,-3.6772,-3.6772,-3.695,-3.7322,-3.7848,-3.9258,-4.0831,-4.142,-4.1961,-4.2417,-4.2746,-4.2177,-4.1504,-4.2162,-4.1893,-4.1384,-4.1384,-4.1145,-4.0816,-4.0487,-4.0651,-4.0891,-4.0891,-4.0636,-4.0397,-4.0397,-4.0142,-3.9903,-3.9903,-4.0172,-4.0292,-3.9963,-4.0187,-4.0172,-3.9514,-3.9424,-3.9424,-3.9424,-3.9424,-3.9424,-3.9424,-3.9424,-3.9275,-3.8931,-3.7988,-3.7,-3.6058,-3.537,-3.4831,-3.4487,-3.4817,-3.5169,-3.5618,-3.6371,-3.7121,-3.787,-3.8652,-3.8984,-3.8984,-3.9003,-3.8814,0.0,0.0,0.0,0.0,0.0,0.0,0.0,-1.9268,-1.9756,-2.1045,-2.1738,-2.2666,-2.4473,-2.5869,-2.7256,-2.8799,-3.0225,-3.1377,-3.207,-3.2598,-3.3174,-3.3867,-3.4023,-3.4238,-3.4658,-3.4316,-3.4072,-3.4072,-3.3672,-3.3271,-3.2939,-3.3086,-3.2939,-3.2432,-3.209,-3.3315,-3.6049,-3.558,-3.6834,-3.9697,-3.9697,-3.9697,-3.9697,-3.9697,-3.9634,-3.9496,-3.8831,-3.8542,-3.8467,-3.7437,-3.6759,-3.6358,-3.6358,-3.6358,-3.6546,-3.7415,-3.8572,-3.9711,-4.0901,-4.1607,-4.2123,-4.2428,-4.1923,-4.1235,-4.1489,-4.1025,-4.0397,-4.0397,-4.0397,-4.0367,-4.0247,-4.0606,-4.0995,-4.0995,-4.0591,-4.0217,-4.0217,-3.9798,-3.9424,-3.9424,-3.9843,-4.0083,-3.9679,-4.0487,-4.0831,-3.9768,-3.9723,-3.9753,-3.9634,-3.9604,-3.9559,-3.9424,-3.9424,-3.9364,-3.923,-3.8227,-3.7285,-3.6537,-3.5983,-3.5385,-3.4696,-3.4666,-3.4988,-3.5622,-3.6389,-3.7422,-3.8791,-3.9497,-3.9969,-4.007,-4.007,-3.9781,-2.0719,-1.9544,-1.9074,-2.0298,-1.9958,-1.9902,0.0,-2.2588,-2.2441,-2.3721,-2.4648,-2.542,-2.6055,-2.7217,-2.8389,-2.9346,-3.0918,-3.206,-3.2158,-3.2851,-3.3389,-3.3486,-3.3838,-3.4238,-3.4658,-3.4316,-3.4072,-3.4072,-3.3672,-3.3398,-3.335,-3.2685,-3.2607,-3.3262,-3.1816,-3.2834,-3.6437,-3.5759,-3.6834,-3.9697,-3.9697,-3.9697,-3.9697,-3.9697,-3.9433,-3.8906,-3.7839,-3.7374,-3.7324,-3.6709,-3.642,-3.6358,-3.6358,-3.6358,-3.6452,-3.6534,-3.7335,-3.8469,-3.9711,-4.0421,-4.1091,-4.2684,-4.1998,-4.0726,-4.1893,-4.1384,-4.0397,-4.0397,-4.0397,-4.0262,-3.9679,-3.9589,-3.9634,-3.9634,-3.9589,-3.9529,-3.9529,-3.9469,-3.9424,-3.9424,-3.9484,-3.9694,-4.0202,-4.0412,-4.0457,-4.0307,-4.0786,-4.095,-4.0367,-4.0292,-4.0068,-3.9484,-3.9424,-3.917,-3.8556,-3.8362,-3.7764,-3.6567,-3.6417,-3.6088,-3.5415,-3.5385,-3.5404,-3.5522,-3.6222,-3.7042,-3.7923,-3.8678,-3.9396,-4.007,-4.007,-4.007,-2.2207,-2.1246,-2.0706,-2.1362,-2.1718,-2.2236,-2.3506,-2.3896,-2.4297,-2.5352,-2.6055,-2.6689,-2.7373,-2.834,-2.9228,-2.9834,-3.0976,-3.1787,-3.1787,-3.2314,-3.2598,-3.2344,-3.2695,-3.3125,-3.3555,-3.3428,-3.333,-3.333,-3.3389,-3.3213,-3.2725,-3.2822,-3.2607,-3.1973,-3.1748,-3.3039,-3.5793,-3.5501,-3.6834,-3.9697,-3.9371,-3.922,-3.9195,-3.8868,-3.8417,-3.7864,-3.7387,-3.6998,-3.6684,-3.6458,-3.6358,-3.6358,-3.6358,-3.6358,-3.6358,-3.6358,-3.715,-3.8289,-3.9448,-3.9929,-4.0242,-4.1685,-4.113,-3.9933,-4.0487,-4.0262,-3.9828,-3.9828,-3.9828,-3.9768,-3.9484,-3.9424,-3.9424,-3.9424,-3.9424,-3.9424,-3.9424,-3.9424,-3.9424,-3.9424,-3.9723,-4.0083,-4.0352,-4.104,-4.1534,-4.1534,-4.1444,-4.1145,-4.0487,-4.0726,-4.0726,-4.0053,-3.9649,-3.9305,-3.902,-3.8616,-3.8153,-3.7638,-3.6926,-3.6357,-3.606,-3.5689,-3.5689,-3.614,-3.6457,-3.6999,-3.7789,-3.81,-3.864,-3.9396,-3.9396,-3.9632,-2.2596,-2.2232,-2.2268,-2.2282,-2.3293,-2.4209,-2.4453,-2.5078,-2.5781,-2.6426,-2.6894,-2.7383,-2.8008,-2.8721,-2.9394,-2.9932,-3.0771,-3.1387,-3.1504,-3.1787,-3.1826,-3.1396,-3.1514,-3.1738,-3.2051,-3.2412,-3.2627,-3.2627,-3.29,-3.2812,-3.2207,-3.2627,-3.2383,-3.1279,-3.2068,-3.3379,-3.5501,-3.5795,-3.7156,-3.9685,-3.9295,-3.9019,-3.8843,-3.8115,-3.7563,-3.7174,-3.7023,-3.6734,-3.6358,-3.6358,-3.6358,-3.6358,-3.6358,-3.6358,-3.6345,-3.6194,-3.6654,-3.7534,-3.8762,-3.92,-3.9382,-4.0543,-4.0367,-3.9694,-3.9694,-3.9574,-3.9424,-3.9424,-3.9424,-3.9424,-3.9424,-3.9424,-3.9424,-3.9424,-3.9559,-3.9649,-3.9454,-3.9709,-3.9903,-3.9723,-4.0217,-4.0726,-4.0905,-4.1728,-4.2432,-4.2596,-4.2222,-4.1683,-4.1025,-4.104,-4.0935,-4.0442,-3.9813,-3.9424,-3.9424,-3.896,-3.8571,-3.8372,-3.7386,-3.6641,-3.6526,-3.5844,-3.5719,-3.6295,-3.631,-3.6708,-3.7487,-3.7487,-3.7965,-3.8875,-3.8875,-3.9345,-2.1177,-2.1876,-2.3155,-2.312,-2.4153,-2.5254,-2.6113,-2.6641,-2.6963,-2.6992,-2.7344,-2.7656,-2.7685,-2.8037,-2.8603,-2.9453,-3.0332,-3.1055,-3.1465,-3.1533,-3.1377,-3.0957,-3.0518,-3.0264,-3.0273,-3.1435,-3.2187,-3.2187,-3.2197,-3.2197,-3.2168,-3.1787,-3.1748,-3.2119,-3.2793,-3.399,-3.5871,-3.6948,-3.8243,-3.9697,-3.9672,-3.9383,-3.8831,-3.7713,-3.7199,-3.7149,-3.6621,-3.6383,-3.6358,-3.6358,-3.6358,-3.6358,-3.6358,-3.6358,-3.6295,-3.5768,-3.5567,-3.5739,-3.6933,-3.775,-3.8338,-3.9476,-4.0088,-4.0367,-4.0367,-3.9933,-3.9424,-3.9424,-3.9424,-3.9424,-3.9424,-3.9424,-3.9424,-3.9424,-3.9903,-4.0187,-3.9559,-4.0427,-4.113,-4.0502,-4.0905,-4.1549,-4.2192,-4.2327,-4.2581,-4.321,-4.3284,-4.303,-4.2387,-4.1205,-4.0427,-4.0397,-3.9813,-3.9424,-3.9424,-3.9394,-3.908,-3.8402,-3.7733,-3.7083,-3.6542,-3.5844,-3.5504,-3.5519,-3.5519,-3.5909,-3.6675,-3.6675,-3.7436,-3.8875,-3.8875,-3.9345,-2.3405,-2.4176,-2.5449,-2.6861,-2.6812,-2.6704,-2.8268,-2.8034,-2.7363,-2.707,-2.668,-2.6299,-2.5996,-2.6533,-2.7305,-2.8164,-2.9268,-3.0273,-3.0996,-3.1103,-3.083,-3.0107,-3.0127,-2.9971,-2.9404,-3.0264,-3.1103,-3.1689,-3.1738,-3.1738,-3.1738,-3.1875,-3.1758,-3.1328,-3.1751,-3.268,-3.4081,-3.5367,-3.6811,-3.823,-3.85,-3.8278,-3.7726,-3.6985,-3.6634,-3.6621,-3.6445,-3.6358,-3.6358,-3.6358,-3.6144,-3.5818,-3.5818,-3.5592,-3.5253,-3.5064,-3.4763,-3.4666,-3.6214,-3.7057,-3.7631,-3.8767,-3.9396,-3.9753,-3.9753,-3.9589,-3.9424,-3.9424,-3.9424,-3.9424,-3.9424,-3.9424,-3.9424,-3.9424,-3.9589,-3.9694,-3.9469,-4.0113,-4.0666,-4.0442,-4.0935,-4.1594,-4.2252,-4.2357,-4.2581,-4.324,-4.297,-4.2761,-4.297,-4.1489,-4.0726,-4.1609,-4.0337,-3.9546,-4.0054,-3.9636,-3.9305,-3.9065,-3.8424,-3.7764,-3.7101,-3.6496,-3.5969,-3.5504,-3.5504,-3.5644,-3.5859,-3.5859,-3.6362,-3.7364,-3.7367,-3.804,-2.5655,-2.6472,-2.7447,-2.8779,-2.8655,-2.8337,-2.9023,-2.8241,-2.7314,-2.6885,-2.5977,-2.5127,-2.4697,-2.5078,-2.5742,-2.6602,-2.7695,-2.8848,-3.0019,-3.0185,-3.0088,-2.9824,-2.9902,-2.9814,-2.9414,-2.96,-3.0098,-3.0976,-3.1201,-3.1299,-3.1299,-3.1562,-3.1465,-3.0908,-3.1709,-3.2377,-3.3077,-3.5057,-3.6729,-3.7952,-3.8016,-3.7713,-3.7161,-3.6609,-3.6358,-3.6358,-3.6358,-3.6358,-3.6358,-3.6358,-3.6031,-3.5542,-3.5542,-3.5203,-3.47,-3.45,-3.4211,-3.4035,-3.5218,-3.5862,-3.6429,-3.7535,-3.8312,-3.887,-3.9265,-3.9424,-3.9424,-3.9424,-3.9424,-3.9424,-3.9424,-3.9424,-3.9424,-3.9424,-3.9604,-3.9768,-3.9768,-4.0472,-4.11,-4.11,-4.1624,-4.2222,-4.2641,-4.2701,-4.2851,-4.3269,-4.297,-4.2865,-4.3284,-4.2028,-4.1324,-4.1953,-4.0696,-3.983,-4.0054,-3.9621,-3.9424,-3.9424,-3.8763,-3.8136,-3.7459,-3.6824,-3.617,-3.5504,-3.5504,-3.5504,-3.5504,-3.5504,-3.5853,-3.6595,-3.658,-3.7278,-2.7565,-2.8666,-2.9129,-2.9168,-2.9758,-2.987,-2.8638,-2.7643,-2.6888,-2.6348,-2.5205,-2.416,-2.374,-2.3711,-2.4043,-2.4922,-2.5869,-2.707,-2.875,-2.9004,-2.9316,-3.0098,-2.9844,-2.9756,-3.0127,-2.9443,-2.9316,-3.0137,0.0,-3.084,-3.0889,-3.0889,-3.0889,-3.0889,-3.2311,-3.2964,-3.2964,-3.5934,-3.7871,-3.8856,-3.8278,-3.7713,-3.7161,-3.6609,-3.6358,-3.6358,-3.6358,-3.6358,-3.6358,-3.6332,-3.5994,-3.5504,-3.5466,-3.5127,-3.4575,-3.4048,-3.3859,-3.3859,-3.3859,-3.4247,-3.4897,-3.5894,-3.693,-3.7994,-3.9104,-3.9424,-3.9424,-3.9424,-3.9424,-3.9424,-3.9424,-3.9424,-3.9424,-3.9424,-3.9903,-4.0352,-4.0352,-4.1384,-4.2312,-4.2312,-4.2865,-4.3329,-4.3329,-4.3329,-4.3329,-4.3329,-4.3329,-4.3329,-4.3329,-4.2761,-4.2132,-4.1504,-4.083,-4.0114,-3.9486,-3.9439,-3.9424,-3.9424,-3.8778,-3.8119,-3.7448,-3.6896,-3.62,-3.5534,-3.5519,-3.5504,-3.5504,-3.5504,-3.5882,-3.6565,-3.6538,-3.6964,-2.9451,-2.9986,-3.043,-3.1219,-3.0579,-2.9515,-2.898,-2.7847,-2.6462,-2.4785,-2.3428,-2.2402,-2.1973,-2.2666,-2.3691,-2.4873,-2.6611,-2.8291,-2.9678,-3.0176,-3.0342,-3.0215,-3.0098,-2.9961,-2.9756,-2.9814,-2.9961,-3.0176,-3.0019,-3.0195,-3.0859,-3.0889,-3.0889,-3.0889,-3.1218,-3.1441,-3.1441,-3.4414,-3.6897,-3.8856,-3.8278,-3.7713,-3.7161,-3.6609,-3.6358,-3.6358,-3.6358,-3.6358,-3.6332,-3.5918,-3.5429,-3.4889,-3.4474,-3.3985,-3.3483,-3.3332,-3.3282,-3.3282,-3.3282,-3.3913,-3.4897,-3.5894,-3.693,-3.7994,-3.9104,-3.9424,-3.9424,-3.9424,-3.9424,-3.9424,-3.9424,-3.9424,-3.9424,-3.9424,-3.9544,-3.9664,-3.9664,-4.0711,-4.1624,-4.1624,-4.2551,-4.3329,-4.3329,-4.3329,-4.3329,-4.3329,-4.3329,-4.3329,-4.3329,-4.2761,-4.2297,-4.2132,-4.1099,-4.0293,-4.0159,-3.9667,-3.9424,-3.9424,-3.9247,-3.8807,-3.8206,-3.7541,-3.6854,-3.628,-3.5719,-3.5504,-3.5504,-3.5504,-3.5604,-3.5785,-3.5767,-3.618,-3.205,-3.1949,-3.1593,-3.2476,-3.1526,-3.0038,-2.8785,-2.784,-2.6657,-2.454,-2.3136,-2.206,-2.136,-2.1816,-2.2725,-2.4014,-2.5713,-2.7461,-2.9131,-2.9912,-3.0351,-3.0488,-3.0508,-3.041,-3.0176,-3.0176,-3.0283,-3.0488,-3.0283,-3.0371,-3.0859,-3.0889,-3.0801,-3.0596,-3.0781,-3.1556,-3.2768,-3.4526,-3.6342,-3.8492,-3.8165,-3.7588,-3.681,-3.6508,-3.6358,-3.6358,0.0,-3.6219,-3.5981,-3.5667,-3.5077,-3.4324,-3.4022,-3.3558,-3.3081,-3.3081,-3.3081,-3.3081,-3.3081,-3.3471,-3.4191,-3.5197,-3.6225,-3.7329,-3.8383,-3.9017,-3.9424,-3.9424,-3.9424,-3.9424,-3.9424,-3.9424,-3.9424,-3.9424,-3.9424,-3.9574,-4.0157,-4.0861,-4.1549,-4.2132,-4.2836,-4.3329,-4.3329,-4.3329,-4.3329,-4.3329,-4.3329,-4.3329,-4.3329,-4.3015,-4.2671,-4.2387,-4.1489,-4.0711,-4.0397,-3.9813,-3.9424,-3.9424,-3.9424,-3.9101,-3.8426,-3.7766,-3.711,-3.6541,-3.5854,-3.5504,-3.5504,-3.5504,-3.5504,-3.5504,-3.5504,-3.5733,-3.4686,-3.4102,-3.2757,-3.3277,-3.2542,-3.0949,-2.8443,-2.7822,-2.7004,-2.4809,-2.3447,-2.2267,-2.1292,-2.124,-2.1758,-2.3096,-2.4346,-2.5928,-2.8144,-2.9101,-2.9893,-3.0791,-3.0889,-3.0889,-3.0889,-3.0527,-3.0459,-3.0859,-3.083,-3.083,-3.0889,-3.083,-3.0596,-3.0127,-3.0728,-3.2365,-3.5098,-3.5316,-3.6239,-3.7902,-3.7902,-3.7362,-3.6358,-3.6282,-3.6257,-3.6257,-3.6182,0.0,-3.5429,-3.5353,-3.4763,-3.3884,-3.3822,-3.3495,-3.3081,-3.3081,-3.3081,-3.3081,-3.3081,-3.3081,-3.3326,-3.4345,-3.5359,-3.6369,-3.7496,-3.8546,-3.9424,-3.9424,-3.9424,-3.9424,-3.9424,-3.9424,-3.9424,-3.9424,-3.9484,-3.9858,-4.101,-4.1384,-4.1863,-4.309,-4.3329,-4.3329,-4.3329,-4.3329,-4.3329,-4.3329,-4.3329,-4.3329,-4.3329,-4.3329,-4.309,-4.2432,-4.1893,-4.122,-4.0462,-3.9839,-3.9469,-3.9424,-3.9424,-3.9116,-3.8572,-3.7774,-3.718,-3.6611,-3.5857,-3.5504,-3.5504,-3.5504,-3.5504,-3.5504,-3.5504,-3.5504,-3.5742,-3.5198,-3.4197,-3.4693,-3.33,-3.1263,-2.8967,-2.7969,-2.6711,-2.3673,-2.2516,-2.1859,-2.0908,-2.1279,-2.2305,-2.3926,-2.5,-2.6494,-2.8994,-2.9473,-2.9893,-3.0791,-3.0889,-3.0889,-3.0889,-3.082,-3.0801,-3.0889,-3.0537,-3.0488,-3.0869,-3.0527,-3.0117,-2.9687,-3.0822,-3.2359,-3.4067,-3.5132,-3.6302,-3.7324,-3.7324,-3.6985,-3.6345,-3.5893,-3.5692,-3.5667,-3.5203,0.0,-3.4826,-3.4374,-3.4073,-3.3859,-3.3395,-3.3156,-3.3081,-3.3081,-3.3081,-3.3081,-3.3081,-3.3081,-3.3326,-3.4345,-3.5359,-3.6369,-3.7496,-3.8546,-3.9424,-3.9424,-3.9424,-3.9424,-3.9424,-3.9424,-3.9424,-3.9424,-3.9828,-4.0292,-4.0516,-4.1429,-4.2417,-4.318,-4.3329,-4.3329,-4.3329,-4.3329,-4.3329,-4.3329,-4.3329,-4.3329,-4.3329,-4.3329,-4.309,-4.2432,-4.2321,-4.1709,-4.0523,-4.0311,-3.9986,-3.9439,-3.9424,-3.9322,-3.9247,-3.8027,-3.7361,-3.727,-3.6118,-3.5504,-3.5504,-3.5504,-3.5504,-3.5504,-3.5504,-3.5504,-3.6345,-3.588,-3.4924,-3.5163,-3.3553,-3.1392,-2.9473,-2.8643,-2.7272,-2.3818,-2.2939,-2.2478,-2.1527,-2.1402,-2.2119,-2.3891,-2.4505,-2.5547,-2.791,-2.8623,-2.9307,-3.04,-3.0742,-3.0889,-3.0889,-3.0889,-3.0889,-3.0889,-3.0459,-3.0293,-3.0518,-2.9893,-2.9541,-2.957,-3.0734,-3.2084,-3.381,-3.5085,-3.6275,-3.7186,-3.7186,-3.6897,-3.6345,-3.5805,-3.5542,-3.5516,-3.4964,0.0,-3.4274,-3.401,-3.3734,-3.3445,-3.3181,-3.3081,-3.3081,-3.3081,-3.3081,-3.3081,-3.3081,-3.3081,-3.3154,-3.3713,-3.4581,-3.5521,-3.6001,-3.7281,-3.8546,-3.8546,-3.8943,-3.9424,-3.9424,-3.9424,-3.9424,-3.9424,-4.0187,-4.101,-4.1354,-4.2177,-4.2955,-4.3269,-4.3329,-4.3329,-4.3329,-4.3329,-4.3329,-4.3329,-4.3329,-4.3329,-4.3329,-4.3329,-4.321,-4.2895,-4.2263,-4.1588,-4.1007,-4.0262,-3.9763,-3.9424,-3.9424,-3.9424,-3.9424,-3.8417,-3.7781,-3.7419,-3.6492,-3.5848,-3.5504,-3.5504,-3.5504,-3.5504,-3.5504,-3.5504,-3.6558,-3.6283,-3.5463,-3.5463,-3.3777,-3.1716,-3.0061,-2.9041,-2.7444,-2.4164,-2.3514,-2.3147,-2.1886,-2.1524,-2.189,-2.3535,-2.3637,-2.4336,-2.6689,-2.7676,-2.8633,-2.9912,-3.0547,-3.0889,-3.0889,-3.0889,-3.085,-3.0752,-3.0234,-2.9922,-2.9922,-2.9287,-2.9033,-2.9287,-3.0335,-3.1561,-3.3077,-3.4646,-3.5897,-3.6599,-3.6902,-3.6784,-3.6332,-3.568,-3.5366,-3.5328,-3.4663,0.0,0.0,-3.3721,-3.347,-3.3081,-3.3081,-3.3081,-3.3081,-3.3081,-3.3081,-3.3081,-3.3081,-3.3081,-3.3081,-3.3081,-3.3797,-3.4664,-3.4664,-3.6001,-3.751,-3.7753,-3.8383,-3.9104,-3.9337,-3.9424,-3.9484,-3.9768,-4.0621,-4.1594,-4.2402,-4.297,-4.3329,-4.3329,-4.3329,-4.3329,-4.3329,-4.3329,-4.3329,-4.3329,-4.3329,-4.3329,-4.3329,-4.3329,-4.3329,-4.3329,-4.2273,-4.1563,-4.1435,-4.0278,-3.9586,-3.9424,-3.9424,-3.9334,-3.9197,-3.8672,-3.8027,-3.7225,-3.6731,-3.6163,-3.5504,-3.5504,-3.5504,-3.5504,-3.5504,-3.5504,-3.5981,-3.642,-3.6326,-3.6326,-3.4582,-3.2534,-3.0885,-2.8558,-2.6202,-2.3948,-2.3514,-2.2925,-2.1088,-2.1405,-2.222,-2.3061,-2.2908,-2.3662,-2.6602,-2.7422,-2.8193,-2.9473,-3.0371,-3.0889,-3.0889,-3.0889,-3.0713,-3.0293,-2.9502,-2.9033,-2.9033,-2.8955,-2.876,-2.8418,-2.969,-3.0401,-3.0641,-3.3204,-3.4602,-3.4652,-3.5837,-3.6408,-3.632,-3.5278,-3.4801,-3.4738,-3.3684,0.0,0.0,-3.3156,-3.3119,-3.3081,-3.3081,-3.3081,-3.3081,-3.3081,-3.3081,-3.3081,-3.3081,-3.3081,-3.3081,-3.3081,-3.3797,-3.4664,-3.4664,-3.544,-3.6526,-3.751,-3.7829,-3.8144,-3.9177,-3.9424,-3.9723,-4.092,-4.1294,-4.1728,-4.297,-4.3284,-4.3329,-4.3329,-4.3329,-4.3329,-4.3329,-4.3329,-4.3329,-4.3329,-4.3329,-4.3329,-4.3329,-4.3329,-4.3329,-4.3329,-4.2669,-4.209,-4.1458,-4.0753,-4.0016,-3.9439,-3.9424,-3.9107,-3.8515,-3.8427,-3.7808,-3.6596,-3.6522,-3.6163,-3.5504,-3.5504,-3.5504,-3.5504,-3.5504,-3.5504,-3.4826,-3.5855,-3.6282,-3.5956,-3.4198,-3.2215,-3.0909,-2.8723,-2.6542,-2.4776,-2.4409,-2.3963,-2.2638,-2.2188,-2.222,-2.2757,-2.2237,-2.2519,-2.4766,-2.5439,-2.6484,-2.8555,-2.9336,-2.9902,-3.042,-3.0478,-3.0185,-2.9482,-2.9111,-2.8809,-2.8555,-2.8545,-2.8467,-2.8301,-2.9608,-3.0192,-2.9919,-3.251,-3.3743,-3.3529,-3.4786,-3.5554,-3.583,-3.4726,-3.4412,-3.4663,-3.3558,0.0,0.0,-3.3081,-3.3081,-3.3081,-3.3081,-3.3081,-3.3081,-3.3081,-3.3081,-3.3081,-3.3081,-3.3081,-3.3081,-3.3081,-3.3398,-3.3713,-3.3713,-3.4498,-3.5359,-3.5775,-3.6802,-3.7904,-3.8308,-3.8943,-3.9753,-4.107,-4.1384,-4.1743,-4.3045,-4.3329,-4.3329,-4.3329,-4.3329,-4.3329,-4.3329,-4.3329,-4.3329,-4.3329,-4.3329,-4.3329,-4.3329,-4.3329,-4.3329,-4.3329,-4.2778,-4.2142,-4.1472,-4.0807,-4.0133,-3.9439,-3.9424,-3.9245,-3.9013,-3.8627,-3.7958,-3.706,-3.6671,-3.6163,-3.5504,-3.5504,-3.5504,-3.5504,-3.5504,-3.5504,-3.3219,-3.4663,-3.5504,-3.4951,-3.3382,-3.165,-3.0394,-2.8175,-2.6142,-2.5195,-2.4779,-2.4337,-2.3661,-2.3147,-2.2864,-2.2734,-2.2247,-2.2234,-2.3487,-2.4189,-2.5342,-2.7305,-2.8018,-2.8691,-2.9551,-2.9746,-2.957,-2.8965,-2.8691,-2.8476,-2.8301,-2.8174,-2.8164,-2.8291,-2.9207,-2.9497,-2.9157,-3.1318,-3.2144,-3.1746,-3.3373,-3.4354,-3.4687,-3.4145,-3.411,-3.4424,-3.3483,0.0,0.0,-3.3081,-3.3081,-3.3081,-3.3081,-3.3081,-3.3081,-3.3081,-3.3081,-3.3081,-3.3081,-3.3081,-3.3081,-3.3081,-3.3081,-3.3081,-3.3081,-3.3641,-3.4275,-3.4581,-3.6174,-3.7829,-3.7829,-3.862,-3.9753,-4.107,-4.1384,-4.1743,-4.3045,-4.3329,-4.3329,-4.3329,-4.3329,-4.3329,-4.3329,-4.3329,-4.3329,-4.3329,-4.3329,-4.3329,-4.3329,-4.3329,-4.3329,-4.3329,-4.2778,-4.2108,-4.1475,-4.0601,-3.9926,-3.9439,-3.9424,-3.9292,-3.9101,-3.8814,-3.8287,-3.7419,-3.6985,-3.6447,-3.5804,-3.5609,-3.5504,-3.5504,-3.5504,-3.5504,-3.1135,-3.2641,-3.3796,-3.3244,-3.224,-3.0972,-2.9315,-2.6526,-2.4494,-2.4897,-2.4192,-2.3514,-2.3514,-2.4337,-2.4438,-2.2956,-2.3029,-2.3258,-2.3211,-2.4258,-2.5234,-2.5713,-2.6514,-2.7373,-2.8232,-2.8682,-2.8926,-2.8916,-2.8144,0.0,-2.8271,-2.79,-2.7861,-2.8281,-2.8291,-2.8086,-2.777,-2.9055,-2.9505,-2.9042,-3.1651,-3.2909,-3.299,-3.3588,-3.3897,0.0,0.0,0.0,0.0,-3.3081,-3.3081,-3.3081,-3.3081,-3.3081,-3.3081,-3.3081,-3.3081,-3.3081,-3.3081,-3.3081,-3.3081,-3.3081,-3.3081,-3.3081,-3.3081,-3.3081,-3.3313,-3.4428,-3.6174,-3.7829,-3.7829,-3.862,-3.9753,-4.107,-4.1384,-4.1743,-4.3045,-4.3329,-4.3329,-4.3329,-4.3329,-4.3329,-4.3329,-4.3329,-4.3329,-4.3329,-4.3329,-4.3329,-4.3329,-4.3329,-4.3329,-4.3329,-4.2778,-4.209,-4.1469,-4.0203,-3.9424,-3.9424,-3.9424,-3.9101,-3.8426,-3.9056,-3.8781,-3.7434,-3.7404,-3.709,-3.6477,-3.5818,-3.5504,-3.5504,-3.5504,-3.5504,-2.9202,-3.0382,-3.1148,-3.1348,-3.0545,-2.9478,-2.8574,-2.7051,-2.5859,-2.598,-2.5791,-2.5358,-2.4636,-2.4791,-2.4626,-2.3292,-2.3228,-2.3248,-2.3191,-2.375,-2.4687,-2.6025,-2.7441,-2.8428,-2.8691,-2.8584,-2.8496,-2.8496,-2.7978,-2.7851,-2.8271,-2.7607,-2.7422,-2.7851,-2.7861,-2.7519,-2.6797,-2.8031,-2.8471,-2.8019,-2.9691,-3.1182,-3.2361,-3.2183,-3.2693,0.0,0.0,0.0,0.0,-3.3081,-3.3081,-3.3081,-3.3081,-3.3081,-3.3081,-3.3081,-3.3081,-3.3081,-3.3081,-3.3081,-3.3081,-3.3081,-3.3081,-3.3081,-3.3081,-3.3081,-3.3313,-3.4428,-3.5682,-3.6852,-3.7587,-3.8958,-4.0187,-4.0606,-4.1055,-4.1624,-4.2491,-4.2671,-4.2806,-4.324,-4.3329,-4.3329,-4.3329,-4.3329,-4.3329,-4.3329,-4.3329,-4.3329,-4.3329,-4.3329,-4.3329,-4.3329,-4.2382,-4.167,-4.14,-4.0616,-3.9926,-3.9439,-3.9424,-3.9292,-3.9101,-3.8829,-3.8512,-3.8078,-3.7644,-3.7105,-3.6492,-3.6282,-3.5953,-3.5504,-3.5504,-3.5504,-2.7394,-2.8561,-2.9289,-2.9842,-2.9289,-2.8473,-2.7921,-2.681,-2.6025,-2.6383,-2.6164,-2.5873,-2.5581,-2.5581,-2.5063,-2.3634,-2.3645,-2.3612,-2.2748,-2.3447,-2.4551,-2.5977,-2.7363,-2.8193,-2.8193,-2.8252,-2.8223,-2.8066,-2.7666,-2.7539,-2.7803,-2.7158,-2.6904,-2.7178,-2.7334,-2.709,-2.6396,-2.714,-2.7288,-2.6945,-2.8132,-2.9298,-3.0422,-3.0466,-3.1401,0.0,0.0,0.0,0.0,-3.3081,-3.3081,-3.3081,-3.3081,-3.3081,-3.3081,-3.3081,-3.3081,-3.3081,-3.3081,-3.3081,-3.3081,-3.3081,-3.3081,-3.3081,-3.3081,-3.3081,-3.324,-3.3869,-3.4815,-3.5908,-3.693,-3.8457,-3.9964,-4.0621,-4.1085,-4.1564,-4.2299,-4.2357,-4.2476,-4.2895,-4.3165,-4.3329,-4.3329,-4.3329,-4.3329,-4.3329,-4.3329,-4.3329,-4.3329,-4.3329,-4.3329,-4.3329,-4.2411,-4.1636,-4.143,-4.0558,-3.9824,-3.9439,-3.9424,-3.9424,-3.9424,-3.9005,-3.8781,-3.8781,-3.8123,-3.7464,-3.6836,-3.6357,-3.5908,-3.5504,-3.5504,-3.5504,0.0,-2.7067,-2.7959,-2.8599,-2.8335,-2.7808,-2.7331,-2.6159,0.0,-2.6314,-2.5734,-2.537,-2.6314,-2.6533,-2.5873,-2.3863,-2.429,-2.4219,-2.2317,-2.3506,-2.4898,-2.5635,-2.6543,-2.708,-2.7021,-2.7764,-2.8086,-2.7695,-2.7236,-2.6982,-2.7012,-2.6592,-2.6357,-2.6387,-2.6738,-2.6738,-2.6348,-2.6338,-2.6143,-2.5732,-2.6945,-2.7494,-2.7683,-2.8866,-3.0033,0.0,0.0,0.0,0.0,-3.3081,-3.3081,-3.3081,-3.3081,-3.3081,-3.3081,-3.3081,-3.3081,-3.3081,-3.3081,-3.3081,-3.3081,-3.3081,-3.3081,-3.3081,-3.3081,-3.3081,-3.3081,-3.3081,-3.3869,-3.4897,-3.5814,-3.7394,-3.9078,-4.0768,-4.1189,-4.1398,-4.2147,-4.2374,-4.2327,-4.2417,-4.2925,-4.3329,-4.3329,-4.3329,-4.3329,-4.3329,-4.3329,-4.3329,-4.3329,-4.3329,-4.3329,-4.3329,-4.2763,-4.2075,-4.1469,-4.0218,-3.9454,-3.9424,-3.9424,-3.9424,-3.9424,-3.9424,-3.9424,-3.9424,-3.8691,-3.8018,-3.7404,-3.6133,-3.5504,-3.5504,-3.5504,-3.5504,-2.4833,0.0,-2.5297,-2.6691,-2.6603,-2.6276,0.0,-2.6402,-2.6233,-2.6465,-2.6314,-2.6245,-2.6452,-2.6533,-2.5938,-2.4328,-2.5222,-2.5529,-2.3916,-2.5424,-2.6415,-2.58,-2.707,-2.7734,-2.708,-2.75,-2.7773,-2.7676,-2.6963,-2.668,-2.6992,-2.6299,-2.6045,-2.6377,-2.6162,-2.5986,-2.5889,-2.5889,-2.584,-2.5742,-2.6014,-2.6668,-2.7683,-2.8866,-3.0033,0.0,0.0,0.0,-3.3081,-3.3081,-3.3081,-3.3081,-3.3081,-3.3081,-3.3081,-3.3081,-3.3081,-3.3081,-3.3081,-3.3081,-3.3081,-3.3081,-3.3081,-3.3081,-3.3081,-3.3081,-3.3081,-3.3081,-3.3869,-3.4746,-3.4979,-3.6292,-3.7802,-3.8514,-3.9048,-3.9817,-4.1292,-4.1609,-4.1908,-4.291,-4.3225,-4.3329,-4.3329,-4.3329,-4.3329,-4.3329,-4.3329,-4.3329,-4.3329,-4.3329,-4.3329,-4.3329,-4.2273,-4.1542,-4.1374,-4.0621,-3.9956,-3.9439,-3.9424,-3.9424,-3.9424,-3.9424,-3.9424,-3.9424,-3.8242,-3.7569,-3.7404,-3.6133,-3.5504,-3.5504,-3.5504,-3.5504,-2.4205,-2.4406,-2.4707,-2.6113,-2.6226,-2.6076,-2.6458,-2.6533,-2.6533,-2.6533,-2.6533,-2.6533,-2.6533,-2.6533,-2.6186,-2.5071,-2.5843,-2.6372,-2.5895,-2.6831,-2.7429,-2.7067,-2.7734,-2.7971,-2.7418,-2.7344,-2.7285,-2.71,-2.665,-2.6406,-2.6426,-2.5986,-2.585,-2.6084,-2.5664,-2.543,-2.543,-2.543,-2.5332,-2.5137,-2.5332,-2.6079,-2.7264,-2.7893,-2.915,0.0,0.0,0.0,-3.2303,-3.2303,-3.2303,-3.2303,-3.2303,-3.2303,-3.2303,-3.2303,-3.2303,-3.2303,-3.2303,-3.2303,-3.2303,-3.2303,-3.2478,-3.2679,-3.2679,-3.2867,-3.3081,-3.3081,-3.3556,-3.4108,-3.4594,-3.5584,-3.673,-3.763,-3.861,-3.9619,-4.0759,-4.1495,-4.2043,-4.2746,-4.3135,-4.3329,-4.3329,-4.3329,-4.3329,-4.3329,-4.3329,-4.3329,-4.3329,-4.3329,-4.3329,-4.3329,-4.2441,-4.174,-4.1458,-4.0798,-4.0133,-3.9439,-3.9424,-3.9424,-3.9424,-3.9424,-3.9275,-3.896,-3.7943,-3.727,-3.6985,-3.5983,-3.5504,-3.5504,-3.5504,-3.5504,-2.3841,-2.4456,-2.5159,-2.6101,-2.6327,-2.642,-2.6508,-2.6533,-2.6533,-2.6533,-2.6533,-2.6533,-2.6533,-2.6533,-2.6338,-2.5889,-2.6348,-2.7073,-2.7917,-2.8128,-2.8376,-2.8634,-2.8557,-2.8323,-2.7994,-2.7488,-2.7051,-2.6695,-2.6418,-2.6133,-2.5752,-2.5742,-2.5703,-2.5635,-2.5273,-2.501,-2.4873,-2.4941,-2.4785,-2.4424,-2.4785,-2.5515,-2.6505,-2.6587,-2.7918,-3.0024,0.0,0.0,-3.1386,-3.1386,-3.1386,-3.1386,-3.1386,-3.1386,-3.1386,-3.1386,-3.1386,-3.1386,-3.1386,-3.1386,-3.1399,-3.1486,-3.1838,-3.2227,-3.2315,-3.2692,-3.3081,-3.3081,-3.3081,-3.3313,-3.4191,-3.4866,-3.5619,-3.7247,-3.8552,-3.9599,-4.0412,-4.1592,-4.2387,-4.2491,-4.2955,-4.3329,-4.3329,-4.3329,-4.3329,-4.3329,-4.3329,-4.3329,-4.3329,-4.3205,-4.3175,-4.3175,-4.2485,-4.1888,-4.1298,-4.0652,-3.9986,-3.9439,-3.9424,-3.9424,-3.9424,-3.932,-3.899,-3.8407,-3.7644,-3.7,-3.6492,-3.5833,-3.5504,-3.5504,-3.5504,-3.5504,-2.3841,-2.472,-2.5523,-2.5686,-2.5724,-2.585,-2.6352,-2.6533,-2.6533,-2.6533,-2.6533,-2.6533,-2.6533,-2.6533,-2.6338,-2.5889,-2.7019,-2.8298,-2.915,-2.9968,-3.0117,-2.8947,-2.967,-3.0006,-2.925,-2.8466,-2.7955,-2.7893,-2.6593,-2.581,-2.5742,-2.5742,-2.5566,-2.5185,-2.5098,-2.4717,-2.3994,-2.4336,-2.4482,-2.4414,-2.4482,-2.4604,-2.4779,-2.5836,-2.7071,-2.8377,0.0,-3.036,-3.1386,-3.1386,-3.1386,-3.1386,-3.1386,-3.1386,-3.1386,-3.1386,-3.1386,-3.1386,-3.1386,-3.1386,-3.1461,-3.1938,-3.2139,-3.2303,-3.2792,-3.3006,-3.3081,-3.3081,-3.3081,-3.3154,-3.3313,-3.3376,-3.3909,-3.5521,-3.6797,-3.8162,-4.0149,-4.1592,-4.2521,-4.3075,-4.3269,-4.3329,-4.3329,-4.3329,-4.3329,-4.3329,-4.3329,-4.3329,-4.3329,-4.2837,-4.258,-4.258,-4.1469,-4.0665,-4.0568,-3.9956,-3.9484,-3.9424,-3.9424,-3.9424,-3.9424,-3.8856,-3.8497,-3.8392,-3.7225,-3.6582,-3.6492,-3.5833,-3.5504,-3.5504,-3.5504,-3.5504,-2.3464,-2.4343,-2.5172,-2.5172,-2.585,-2.6502,-2.6533,-2.6533,-2.6533,-2.6533,-2.6533,-2.6533,-2.6533,-2.6703,-2.7026,-2.7397,-2.8664,-2.964,-3.0049,-3.077,-3.0821,-2.9729,-3.0166,-3.0239,-2.9418,-2.8183,-2.762,-2.7883,-2.6365,-2.5371,-2.5371,-2.5371,-2.5176,-2.4727,-2.4492,-2.4189,-2.3799,-2.375,-2.373,-2.373,-2.3965,-2.4425,-2.5104,-2.6235,-2.7353,-2.8533,0.0,-3.0109,-3.0532,-3.0532,-3.0532,-3.0532,-3.0532,-3.0532,-3.0532,-3.0532,-3.0532,-3.0532,-3.0532,-3.0532,-3.062,-3.1173,-3.1537,-3.1863,-3.2441,-3.283,-3.3081,-3.3081,-3.3081,-3.3081,-3.3081,-3.3081,-3.3379,-3.4417,-3.5929,-3.7645,-3.9367,-4.1164,-4.2551,-4.321,-4.3329,-4.3329,-4.3329,-4.3329,-4.3329,-4.3329,-4.3329,-4.3329,-4.3329,-4.2793,-4.2372,-4.2387,-4.1171,-4.0398,-4.0417,-3.9793,-3.9424,-3.9424,-3.9424,-3.9424,-3.9424,-3.8751,-3.8227,-3.7868,-3.6956,-3.6312,-3.5953,-3.5654,-3.5504,-3.5504,-3.5504,-3.5504,-2.3078,-2.4042,-2.4971,-2.4858,-2.5963,-2.7017,-2.6716,-2.6722,-2.6691,-2.6816,-2.6841,-2.6804,-2.6747,-2.7105,-2.7758,-2.8599,-2.9792,-3.062,-3.062,-3.106,-3.1195,-3.0543,-3.0603,-3.0414,-2.9823,-2.8353,-2.7677,-2.8045,-2.6372,-2.5371,-2.5371,-2.51,-2.4717,-2.4287,-2.3955,-2.374,-2.3633,-2.3301,-2.3135,-2.3144,-2.3477,-2.4137,-2.5062,-2.6087,-2.7178,-2.8339,-2.912,-2.9534,-2.9792,-2.9792,-2.9792,-2.9792,-2.9792,-2.9792,-2.9792,-2.9792,-2.9792,-2.9792,-2.9792,-2.9792,-2.988,-3.0432,-3.0972,-3.1499,-3.2051,-3.2616,-3.3081,-3.3081,-3.3081,-3.3081,-3.3081,-3.3081,-3.3257,-3.3935,-3.5562,-3.7359,-3.8564,-4.0607,-4.2387,-4.2797,-4.3155,-4.3329,-4.3329,-4.3329,-4.3329,-4.3329,-4.321,-4.3105,-4.3105,-4.2535,-4.2149,-4.2198,-4.1111,-4.0341,-4.0164,-3.9661,-3.9424,-3.9424,-3.9424,-3.9424,-3.9424,-3.8751,-3.8153,-3.7644,-3.6881,-3.6237,-3.5729,-3.5579,-3.5504,-3.5504,-3.5504,-3.5504,-2.3078,-2.4318,-2.5423,-2.4946,-2.5674,-2.671,-2.7118,-2.7218,-2.7369,-2.7883,-2.7984,-2.7833,-2.7318,-2.767,-2.8072,-2.816,-2.9541,-3.062,-3.062,-3.106,-3.1399,-3.1354,-3.1354,-3.1297,-3.124,-3.017,-2.9385,-2.9421,-2.7315,-2.5986,-2.5986,-2.5005,-2.4268,-2.3848,-2.3809,-2.3594,-2.3193,-2.3154,-2.3135,-2.3135,-2.3164,-2.3184,-2.3349,-2.4423,-2.5589,-2.6693,-2.7787,-2.8846,-2.9792,-2.9792,-2.9792,-2.9792,-2.9792,-2.9792,-2.9792,-2.9792,-2.9792,-2.9792,-2.9792,-2.9792,-2.988,-3.0432,-3.0972,-3.1499,-3.2051,-3.2616,-3.3081,-3.3081,-3.3081,-3.3081,-3.3081,-3.3081,-3.3345,-3.4412,-3.5579,-3.6804,-3.797,-3.9962,-4.1709,-4.167,-4.2548,-4.3329,-4.3329,-4.3329,-4.3329,-4.3329,-4.2821,-4.2432,-4.2432,-4.1858,-4.1499,-4.1474,-4.0798,-4.0148,-3.9484,-3.9439,-3.9424,-3.9424,-3.9424,-3.9424,-3.9424,-3.8751,-3.8362,-3.8317,-3.7105,-3.6462,-3.6417,-3.5804,-3.5504,-3.5504,-3.5504,-3.5504,-2.3078,-2.4104,-2.5071,-2.487,-2.5649,-2.6603,-2.7155,-2.7281,-2.7344,-2.7557,-2.7871,-2.8047,-2.7833,-2.8247,-2.8612,-2.8612,-2.9741,-3.062,-3.062,-3.106,-3.1273,-3.0947,-3.1198,-3.126,-3.0934,-2.9861,-2.9308,-2.9557,-2.782,-2.6454,-2.5675,-2.5242,-2.4515,-2.3398,-2.3389,-2.3301,-2.3135,-2.3135,-2.3135,-2.3135,-2.3135,-2.3135,-2.3135,-2.4296,-2.5378,-2.6565,-2.7602,-2.8767,-2.9792,-2.9792,-2.9792,-2.9792,-2.9792,-2.9792,-2.9792,-2.9792,-2.9792,-2.9842,-3.0181,-3.0306,-3.0444,-3.1323,-3.1738,-3.2014,-3.2579,-3.2905,-3.3081,-3.3081,-3.3081,-3.3081,-3.3081,-3.3081,-3.3181,-3.3608,-3.4598,-3.5619,-3.6426,-3.8256,-3.996,-4.0429,-4.168,-4.2596,-4.2192,-4.2791,-4.306,-4.2237,-4.2252,-4.2207,-4.1803,-4.1186,-4.0746,-4.0749,-4.0174,-3.9661,-3.9424,-3.9424,-3.9424,-3.9424,-3.902,-3.8781,-3.8781,-3.8138,-3.7599,-3.721,-3.6731,-3.6282,-3.5878,-3.5624,-3.5504,-3.5504,-3.5504,-3.5504,-2.3078,-2.3966,-2.482,-2.482,-2.5774,-2.6866,-2.7419,-2.7544,-2.7645,-2.8009,-2.8097,-2.816,-2.8335,-2.8536,-2.8725,-2.89,-2.9729,-3.0357,-3.0357,-3.0658,-3.0758,-3.0394,-3.067,-3.0746,-3.0382,-2.9659,-2.9298,-2.9661,-2.8256,-2.7037,0.0,-2.5958,-2.5133,-2.3637,-2.3637,-2.3464,-2.3135,-2.3135,-2.3135,-2.3135,-2.3135,-2.3135,-2.3135,-2.4296,-2.521,-2.6047,-2.7116,-2.8199,-2.9275,-2.9275,-2.9456,-2.9792,-2.9792,-2.9792,-2.9792,-2.9792,-2.9792,-2.988,-3.0419,-3.0507,-3.0532,-3.1599,-3.1951,-3.2064,-3.2629,-3.293,-3.3081,-3.3081,-3.3081,-3.3081,-3.3081,-3.3081,-3.3119,-3.3294,-3.3896,-3.4692,-3.5594,-3.7277,-3.8788,-3.9549,-4.0989,-4.1968,-4.1728,-4.2432,-4.2716,-4.1833,-4.1893,-4.1818,-4.116,-4.0666,-4.0426,-4.0403,-4.001,-3.9631,-3.9424,-3.9424,-3.9424,-3.9424,-3.8766,-3.8482,-3.8706,-3.8078,-3.7524,-3.709,-3.6686,-3.6267,-3.5818,-3.5609,-3.5504,-3.5504,-3.5504,-3.5504,-2.309,-2.3966,-2.482,-2.4833,-2.6063,-2.7419,-2.7984,-2.8109,-2.8423,-2.9553,-2.8888,-2.8285,-2.8825,-2.8486,-2.8298,-2.8837,-2.9415,-2.9792,-2.9792,-2.9792,-2.9792,-2.9792,-2.9792,-2.9792,-2.9792,-2.9779,-2.9779,-2.9779,-2.8755,-2.8072,0.0,-2.7116,-2.5953,-2.4861,-2.4787,-2.4296,-2.3135,-2.3144,-2.3135,-2.3135,-2.3135,-2.3135,-2.3135,-2.4296,-2.4787,-2.4872,-2.5975,-2.7116,-2.8096,-2.8096,-2.8767,-2.9792,-2.9792,-2.9792,-2.9792,-2.9792,-2.9792,-2.988,-3.0432,-3.0269,-2.998,-3.106,-3.1411,-3.1512,-3.2051,-3.2616,-3.3081,-3.3081,-3.3081,-3.3081,-3.3081,-3.3081,-3.3219,-3.3759,-3.3884,-3.4375,-3.5913,-3.7196,-3.8283,-3.9353,-4.0529,-4.1579,-4.2314,-4.2434,-4.2434,-4.2342,-4.1788,-4.113,-4.0472,-4.0382,-4.0412,-4.038,-4.0381,-4.0133,-3.9454,-3.9409,-3.9409,-3.9409,-3.8766,-3.8691,-3.9364,-3.8736,-3.8377,-3.8362,-3.7135,-3.6492,-3.6477,-3.5818,-3.5504,-3.5504,-3.5504,-3.5504,-2.4217,-2.4569,-2.4908,-2.5272,-2.6038,-2.6954,-2.7896,-2.8109,-2.831,-2.9038,-2.8913,-2.8737,-2.89,-2.9126,-2.9214,-2.8963,-2.9415,-2.9792,-2.9792,-2.9792,-2.9792,-2.9792,-2.9792,-2.9792,-2.9792,-2.9428,-2.9189,-2.9189,-2.8499,0.0,0.0,-2.664,-2.6153,-2.5355,-2.4647,-2.4241,-2.4296,-2.3464,-2.3135,-2.3135,-2.3135,-2.3135,-2.3135,-2.3464,-2.4049,-2.4787,-2.5126,-2.5964,-2.7046,-2.7763,-2.8767,-2.9792,-2.9792,-2.9792,-2.9792,-2.9792,-2.9792,-2.993,-3.0846,-3.1047,-3.1097,-3.2215,-3.2579,-3.2604,-3.2767,-3.2943,-3.3081,-3.3081,-3.3081,-3.3081,-3.3081,-3.3081,-3.3119,-3.3282,-3.3319,-3.3444,-3.3929,-3.5485,-3.683,-3.7149,-3.9135,-4.0756,-4.095,-4.1369,-4.1519,-4.1055,-4.0816,-4.0442,-3.9798,-3.9709,-3.9666,-3.9682,-3.9694,-3.9616,-3.9424,-3.8954,-3.8698,-3.8717,-3.8093,-3.7804,-3.8003,-3.7808,-3.7285,-3.6387,-3.6447,-3.6252,-3.5804,-3.5609,-3.5504,-3.5504,-3.5504,-3.5504,-2.4343,-2.4657,-2.5008,-2.5749,-2.6527,-2.7344,-2.8235,-2.8612,-2.8875,-2.9202,-2.9089,-2.9001,-2.9227,-2.9365,-2.9415,-2.9289,-2.9566,-2.9792,-2.9792,-2.9792,-2.9704,-2.9478,-2.9453,-2.9365,-2.9151,-2.8812,-2.8599,-2.8599,0.0,0.0,0.0,-2.7112,-2.678,-2.5982,-2.5294,-2.4703,-2.4241,-2.3703,-2.3463,-2.3539,-2.3221,-2.3299,-2.38,-2.3299,-2.3464,-2.4125,-2.4628,-2.521,-2.5964,-2.7429,-2.8518,-2.9197,-2.9624,-2.9792,-2.9792,-2.9792,-2.9792,-2.9917,-3.0783,-3.0934,-3.0934,-3.2051,-3.2265,-3.2139,-3.234,-3.2403,-3.2453,-3.2667,-3.2729,-3.278,-3.3018,-3.3081,-3.3081,-3.3081,-3.3081,-3.324,-3.3641,-3.4733,-3.5828,-3.6696,-3.8207,-3.9609,-4.0278,-4.0726,-4.0861,-4.0457,-4.0172,-3.9873,-3.9469,-3.9424,-3.9424,-3.9424,-3.9424,-3.9277,-3.9056,-3.8616,-3.8296,-3.7985,-3.7616,-3.7306,-3.7037,-3.706,-3.6686,-3.5908,-3.6028,-3.5893,-3.5504,-3.5504,-3.5504,-3.5504,-3.5504,-3.5504,-2.3991,-2.457,-2.5277,-2.6332,-2.7369,-2.8323,-2.8888,-2.9415,-2.9779,-2.9729,-2.934,-2.9164,-2.9691,-2.9365,-2.9176,-2.9704,-2.9741,-2.9716,-2.9716,-2.9679,-2.944,-2.8913,-2.885,-2.8662,-2.816,-2.8059,-2.8009,-2.7959,0.0,0.0,0.0,-2.7883,-2.7471,-2.6578,-2.6502,-2.5501,-2.3642,-2.3853,-2.3991,-2.4145,-2.3368,-2.3577,-2.4565,-2.3531,-2.3135,-2.3135,-2.4296,-2.4872,-2.5126,-2.7267,-2.8176,-2.8347,-2.9365,-2.9792,-2.9792,-2.9792,-2.9792,-2.988,-3.0419,-3.0281,-3.003,-3.106,-3.1072,-3.0771,-3.1248,-3.1386,-3.1499,-3.2001,-3.2177,-3.234,-3.2867,-3.3031,-3.3081,-3.3081,-3.3081,-3.3398,-3.4511,-3.4746,-3.5453,-3.7434,-3.7904,-3.8512,-4.0129,-4.0352,-4.0307,-4.0307,-3.9798,-3.9424,-3.9424,-3.9424,-3.9424,-3.9424,-3.9424,-3.913,-3.8557,-3.8379,-3.8063,-3.7506,-3.7283,-3.7015,-3.6529,-3.6522,-3.6462,-3.6402,-3.5804,-3.5504,-3.5504,-3.5504,-3.5504,-3.5504,-3.5504,-3.5504,-2.5109,-2.591,-2.6713,-2.7025,-2.7934,-2.89,-2.9478,-2.9704,-2.9666,-2.9202,-2.9377,-2.9641,-2.9767,-2.9691,-2.9641,-2.9779,-2.9415,-2.9114,-2.9114,-2.8737,-2.8423,-2.8298,-2.8285,-2.8235,-2.8109,-2.7708,-2.7281,0.0,0.0,0.0,-2.6138,-2.6138,-2.6471,-2.7133,-2.625,-2.5836,-2.5777,-2.4227,-2.3479,0.0,-2.2918,-2.2732,-2.2978,-2.3075,-2.3135,-2.3135,-2.4296,-2.5294,-2.6224,-2.7522,-2.8597,-2.9456,-2.9702,-2.9792,-2.9792,-2.9792,-2.9792,-2.988,-3.0419,-3.0532,-3.0545,-3.1185,-3.1311,-3.1248,-3.1361,-3.1386,-3.1411,-3.1537,-3.1876,-3.224,-3.2365,-3.2742,-3.3081,-3.3081,-3.3081,-3.3398,-3.4511,-3.5278,-3.6304,-3.751,-3.8472,-3.9312,-4.0203,-3.9963,-3.9634,-3.9634,-3.9514,-3.9424,-3.9424,-3.9424,-3.9424,-3.9424,-3.9424,-3.9307,-3.9233,-3.8219,-3.7776,-3.8169,-3.6773,-3.6099,-3.6471,-3.652,-3.6237,-3.5729,-3.5579,-3.5504,-3.5504,-3.5504,-3.5504,-3.5504,-3.5504,-3.5504,-2.5679,-2.6704,-2.7709,-2.8192,-2.9194,-3.0108,-3.0417,-3.0482,-3.0405,-3.0095,-2.9847,-2.9792,-2.9792,-2.9792,-2.9704,-2.9428,-2.9126,-2.8837,-2.8574,-2.8285,-2.8009,-2.7745,-2.7708,-2.7607,-2.7344,-2.6804,-2.6352,0.0,0.0,-2.5222,-2.5222,-2.546,-2.5862,-2.6452,-2.6214,-2.5985,-2.5751,-2.4892,-2.4459,-2.4459,-2.3387,-2.2758,-2.2526,-2.293,-2.3388,-2.3964,-2.4543,-2.5455,-2.6565,-2.7672,-2.8443,-2.9034,-2.9571,-2.9792,-2.9792,-2.9792,-2.9792,-2.9829,-3.0118,-3.0218,-3.0269,-3.0532,-3.062,-3.062,-3.062,-3.062,-3.0683,-3.0947,-3.1223,-3.1562,-3.2077,-3.224,-3.2328,-3.2604,-3.288,-3.324,-3.3797,-3.4733,-3.5748,-3.6852,-3.7904,-3.89,-3.9785,-3.9649,-3.9424,-3.9424,-3.9424,-3.9424,-3.9424,-3.9424,-3.9424,-3.9424,-3.9424,-3.9277,-3.8939,-3.8312,-3.7873,-3.7916,-3.6712,-3.6148,-3.6496,-3.6175,-3.5863,-3.5519,-3.5504,-3.5504,-3.5504,-3.5504,-3.5504,-3.5504,-3.5504,-3.5504,-2.6064,-2.7242,-2.8669,-2.9605,-3.0588,-3.1269,-3.1449,-3.1462,-3.1436,-3.1256,-3.0493,-2.9792,-2.9792,-2.9792,-2.9641,-2.9151,-2.8913,-2.8624,-2.8172,-2.7946,-2.7657,-2.7193,-2.7143,-2.6917,-2.6433,-2.5875,-2.5523,0.0,0.0,-2.4682,-2.4682,-2.5084,-2.5372,-2.546,-2.5925,-2.5859,-2.5085,-2.529,-2.5467,-2.5623,-2.3995,-2.3032,-2.2631,-2.2967,-2.3622,-2.4553,-2.4892,-2.5668,-2.6554,-2.7649,-2.8203,-2.8503,-2.9415,-2.9792,-2.9792,-2.9792,-2.9792,-2.9792,-2.9792,-2.9792,-2.9792,-2.9792,-2.9792,-2.9792,-2.9792,-2.9792,-2.9892,-3.0344,-3.0545,-3.0821,-3.1712,-3.1662,-3.1499,-3.1964,-3.2441,-3.289,-3.3148,-3.4043,-3.5047,-3.6212,-3.7343,-3.8383,-3.9265,-3.9424,-3.9424,-3.9424,-3.9424,-3.9424,-3.9424,-3.9424,-3.9379,-3.926,-3.923,-3.8922,-3.832,-3.8147,-3.7857,-3.7455,-3.6707,-3.6401,-3.6511,-3.5844,-3.5504,-3.5504,-3.5504,-3.5504,-3.5504,-3.5504,-3.5504,-3.5504,-3.5504,-3.5504,-2.6568,-2.8174,-2.991,-3.1409,-3.1662,-3.1678,-3.2269,-3.2393,-3.2242,-3.165,-3.0642,-2.9792,-2.9792,-2.9792,-2.9767,-2.9691,-2.885,-2.8185,-2.8109,-2.7281,-2.6722,-2.6647,-2.6634,-2.6339,-2.5774,-2.5636,0.0,0.0,-2.4155,-2.4104,-2.4104,-2.4167,-2.4431,-2.4908,-2.4996,-2.5194,-2.5498,-2.4743,-2.466,-2.5111,-2.3536,-2.2891,-2.3176,-2.3252,-2.3271,-2.3456,-2.538,-2.6351,-2.6614,-2.7696,-2.8668,-2.9571,-2.9714,-2.9792,-2.9792,-2.9792,-2.9792,-2.9792,-2.9792,-2.9792,-2.9792,-2.9792,-2.9792,-2.9792,-2.9792,-2.9792,-2.9804,-2.988,-3.0244,-3.0645,-3.0796,-3.111,-3.1411,-3.1486,-3.1562,-3.1972,-3.3388,-3.4212,-3.5305,-3.719,-3.8457,-3.9265,-3.9352,-3.9424,-3.9424,-3.9424,-3.9424,-3.9424,-3.9424,-3.9424,-3.9185,-3.8601,-3.8552,-3.8287,-3.7619,-3.7023,-3.6938,-3.7399,-3.6273,-3.5915,-3.6461,-3.5844,-3.5504,-3.5504,-3.5504,-3.5504,-3.5504,-3.5504,-3.5504,-3.5504,-3.5504,-3.5504,-2.8661,-2.9153,-2.967,-3.0745,-3.1425,-3.2041,-3.2758,-3.3154,-3.3309,-3.3041,-3.2072,-3.1101,-3.0219,-3.0106,-2.9854,-2.8963,-2.8172,-2.7544,-2.7231,-2.6766,-2.6533,-2.6533,-2.6176,-2.5875,-2.5624,-2.5059,0.0,0.0,-2.3703,-2.3514,-2.3514,-2.3828,-2.4117,-2.4356,-2.4657,-2.4933,-2.5159,-2.4764,-2.4541,-2.4576,-2.4397,-2.3869,-2.3018,-2.3819,-2.4189,-2.4297,-2.5819,-2.7001,-2.7872,-2.8371,-2.9015,-2.9792,-2.9792,-2.9792,-2.9792,-2.9792,-2.9792,-2.9792,-2.9792,-2.9792,-2.9792,-2.9792,-2.9792,-2.9792,-2.9792,-2.9792,-2.9792,-2.9792,-2.9967,-3.0231,-3.0532,-3.0557,-3.057,-3.0884,-3.0959,-3.1318,-3.2516,-3.3724,-3.5237,-3.7682,-3.8837,-3.929,-3.8901,-3.8841,-3.8841,-3.8841,-3.8841,-3.8841,-3.8841,-3.8841,-3.8586,-3.7913,-3.7808,-3.7689,-3.7419,-3.7129,-3.7114,-3.7413,-3.6565,-3.6201,-3.6496,-3.5844,-3.5504,-3.5504,-3.5504,-3.5504,-3.5504,-3.5504,-3.5504,-3.5504,-3.5504,-3.5504,-3.0031,-2.9987,-2.9768,-3.0131,-3.1221,-3.2309,-3.2803,-3.358,-3.4089,-3.3929,-3.3593,-3.2849,-3.126,-3.0743,-3.0118,-2.8707,-2.7902,-2.7306,-2.6753,-2.6622,-2.6533,-2.6533,-2.6076,-2.5699,-2.5423,-2.4669,0.0,0.0,-2.3376,-2.3078,-2.3078,-2.354,-2.3778,-2.3778,-2.418,-2.4456,-2.4607,-2.4745,-2.4744,-2.4575,-2.501,-2.4554,-2.3318,-2.4481,-2.4971,-2.5031,-2.5786,-2.6922,-2.8328,-2.827,-2.8774,-2.9549,-2.9549,-2.9651,-2.9792,-2.9792,-2.9792,-2.9792,-2.9792,-2.9792,-2.9792,-2.9792,-2.9792,-2.9792,-2.9792,-2.9792,-2.9792,-2.9792,-2.9792,-2.9892,-3.0306,-3.0093,-2.9892,-3.0306,-3.0407,-3.0811,-3.2162,-3.3791,-3.56,-3.7605,-3.8653,-3.8945,-3.8257,-3.8138,-3.8138,-3.8138,-3.8138,-3.8138,-3.8138,-3.8138,-3.7898,-3.724,-3.718,-3.7128,-3.6895,-3.6947,-3.6893,-3.6949,-3.6481,-3.631,-3.6481,-3.6024,-3.5744,-3.5719,-3.5779,-3.5669,-3.5504,-3.5504,-3.5504,-3.5504,-3.5504,-3.5504,-2.9491,-3.0324,-3.1215,-3.0645,-3.1511,-3.2512,-3.2542,-3.3543,-3.4274,-3.3662,-3.448,-3.4875,-3.3249,-3.1981,-3.0771,-2.9495,-2.8626,-2.7871,-2.7318,-2.6791,-2.6533,-2.6533,-2.6496,-2.6,-2.4958,-2.4808,0.0,0.0,-2.309,-2.3078,-2.3078,-2.3103,-2.3175,-2.3175,-2.3153,-2.3489,-2.4042,-2.4556,-2.5018,-2.5519,-2.4687,-2.4465,-2.4855,-2.4981,-2.4993,-2.4993,-2.505,-2.5648,-2.6606,-2.6614,-2.7502,-2.8978,-2.8978,-2.9282,-2.9792,-2.9792,-2.9792,-2.9792,-2.9792,-2.9792,-2.9792,-2.9792,-2.9792,-2.9792,-2.9792,-2.9792,-2.9792,-2.9792,-2.9792,-2.9804,-2.9829,-2.9817,-2.9804,-2.9829,-2.9829,-3.0544,-3.3172,-3.5308,-3.6733,-3.6835,-3.7723,-3.8242,-3.7569,-3.7464,-3.7464,-3.7464,-3.7464,-3.7464,-3.7464,-3.7464,-3.7225,-3.6596,-3.6537,-3.6282,-3.5639,-3.5594,-3.5579,-3.5629,-3.5549,-3.5829,-3.6466,-3.6469,-3.6484,-3.6466,-3.6445,-3.6133,-3.5504,-3.5504,-3.5504,-3.5504,-3.5504,-3.5504,-3.0275,-3.0446,-3.0806,-3.0567,-3.1195,-3.1884,-3.1884,-3.2901,-3.3664,-3.3006,-3.3589,-3.3883,-3.2889,-3.1797,-3.0896,-3.0405,-2.89,-2.7952,-2.8332,-2.825,-2.8117,-2.8117,-2.7782,-2.7203,-2.6245,-2.5467,0.0,0.0,0.0,-2.3078,-2.3078,-2.3078,-2.3078,-2.3078,-2.3078,-2.3178,-2.3439,-2.4004,-2.4393,-2.4582,-2.4921,-2.4866,-2.451,-2.4838,-2.4967,-2.5016,-2.4963,-2.5753,-2.698,-2.7039,-2.7754,-2.8903,-2.8861,-2.9269,-2.9792,-2.9792,-2.9792,-2.9792,-2.9792,-2.9792,-2.9792,-2.9792,-2.9792,-2.9792,-2.9792,-2.9792,-2.9792,-2.9792,-2.9792,-2.9792,-2.9792,-2.9792,-2.9792,-2.9792,-3.0709,-3.1964,-3.3411,-3.4214,-3.4891,-3.5554,-3.6796,-3.7569,-3.6926,-3.6821,-3.6821,-3.6821,-3.6821,-3.6821,-3.6821,-3.6821,-3.6567,-3.5923,-3.5863,-3.5759,-3.5534,-3.5504,-3.5504,-3.5504,-3.5504,-3.5629,-3.5844,-3.5833,-3.5848,-3.5859,-3.5869,-3.5744,-3.5504,-3.5504,-3.5504,-3.5504,-3.5504,-3.5504,-3.0971,-3.0851,-3.0791,-3.0567,-3.1016,-3.1362,-3.0986,-3.2063,-3.2976,-3.2317,-3.2886,-3.3365,-3.2916,-3.1884,-3.0951,-3.069,-2.9367,-2.8527,-2.8967,-2.9002,-2.9002,-2.9002,-2.8706,-2.8202,-2.7386,-2.6459,-2.5455,0.0,0.0,0.0,-2.3138,-2.3078,-2.3078,-2.3078,-2.3078,-2.3078,-2.3078,-2.3514,-2.3828,-2.3992,-2.4898,-2.5124,-2.4707,-2.5269,-2.5505,-2.5505,-2.5505,-2.6083,-2.7023,-2.7023,-2.7636,-2.8621,-2.8637,-2.913,-2.9792,-2.9792,-2.9792,-2.9792,-2.9792,-2.9792,-2.9792,-2.9792,-2.9792,-2.9792,-2.9792,-2.9792,-2.9792,-2.9792,-2.9792,-2.9792,-2.9792,-2.9792,-2.9856,-3.0216,-3.1193,-3.2359,-3.3104,-3.3944,-3.4767,-3.5339,-3.6354,-3.6896,-3.6267,-3.6148,-3.6148,-3.6148,-3.6148,-3.6148,-3.6148,-3.6148,-3.5983,-3.5549,-3.5504,-3.5504,-3.5504,-3.5504,-3.5504,-3.5504,-3.5504,-3.5629,-3.5829,-3.5854,-3.5854,-3.5829,-3.5818,-3.5693,-3.5504,-3.5504,-3.5504,-3.5504,-3.5504,-3.5504,0.0,0.0,0.0,-3.0702,-3.1046,-3.1195,-2.9909,-3.1106,-3.2302,-3.1614,-3.2497,-3.341,-3.338,-3.2173,-3.0949,-3.0372,-3.0045,-2.9665,-2.9149,-2.9066,-2.9066,-2.9066,-2.9066,-2.883,-2.8296,-2.7626,0.0,0.0,-2.4667,-2.3956,-2.321,-2.3163,-2.3103,-2.3103,-2.3103,-2.3103,-2.3128,-2.3128,-2.3441,-2.4016,-2.4558,-2.5086,-2.5586,-2.6202,-2.6533,-2.6533,-2.6533,-2.6533,-2.6533,-2.6533,-2.713,-2.8097,-2.805,-2.8762,-2.9779,-2.9779,-2.9779,-2.9792,-2.9792,-2.9792,-2.9792,-2.9792,-2.9792,-2.9792,-2.9792,-2.9792,-2.9792,-2.9792,-2.9792,-2.9792,-2.9792,-2.9792,-2.9998,-3.097,-3.118,-3.1462,-3.2393,-3.4614,-3.6462,-3.6462,-3.6462,-3.6252,-3.5609,-3.5504,-3.5504,-3.5504,-3.5504,-3.5504,-3.5504,-3.5504,-3.5504,-3.5504,-3.5504,-3.5504,-3.5504,-3.5504,-3.5504,-3.5504,-3.5504,-3.5799,-3.6451,-3.646,-3.6475,-3.6481,-3.6484,-3.6171,-3.5504,-3.5504,-3.5504,-3.5504,-3.5504,-3.5504,-3.1482,0.0,0.0,0.0,0.0,0.0,-3.0447,-3.1061,-3.148,-3.0357,-3.0761,-3.1195,-3.0746,-3.0324,-3.0018,-2.9841,-3.0,-3.0334,-3.0732,-3.0837,-3.0837,-3.0837,-3.0837,-3.0511,-2.9768,0.0,0.0,0.0,-2.5186,-2.436,-2.4541,-2.4048,-2.3753,-2.3753,-2.3753,-2.3954,-2.4356,-2.4356,-2.4243,-2.3979,-2.4939,-2.5277,-2.5065,-2.6063,-2.6533,-2.6533,-2.6533,-2.6533,-2.6533,-2.6533,-2.6904,-2.7506,-2.7529,-2.822,-2.9142,-2.9142,-2.9409,-2.9792,-2.9792,-2.9792,-2.9792,-2.9792,-2.9792,-2.9792,-2.9792,-2.9792,-2.9792,-2.9792,-2.9792,-2.9792,-2.9792,-2.9792,-2.9869,-3.0139,-3.0696,-3.1462,-3.2393,-3.3675,-3.4724,-3.4724,-3.5252,-3.5714,-3.5534,-3.5504,-3.5504,-3.5504,-3.5504,-3.5504,-3.5504,-3.5504,-3.5504,-3.5504,-3.5504,-3.5504,-3.5504,-3.5504,-3.5504,-3.5504,-3.5504,-3.5549,-3.5799,-3.5809,-3.5809,-3.5799,-3.5774,-3.5714,-3.5504,-3.5504,-3.5504,-3.5504,-3.5504,-3.5504,-3.1482,-3.1482,-3.1482,-3.1482,0.0,0.0,-3.0328,-3.0627,-3.0731,-2.9445,-2.9684,-3.0013,-2.9639,-2.9579,-2.9579,-2.9579,-2.9859,-3.016,-3.066,-3.118,-3.133,-3.0791,-3.0941,-3.0919,-3.0412,-2.9488,-2.871,-2.8133,-2.6784,-2.5891,-2.5554,-2.4745,-2.4343,-2.4343,-2.4343,-2.4494,-2.482,-2.482,-2.4643,-2.4341,-2.5198,-2.5458,-2.5174,-2.6045,-2.6533,-2.6533,-2.6533,-2.6533,-2.6533,-2.6533,-2.6797,-2.7296,-2.7528,-2.8138,-2.891,-2.9187,-2.9512,-2.9792,-2.9792,-2.9792,-2.9792,-2.9792,-2.9792,-2.9792,-2.9792,-2.9792,-2.9792,-2.9792,-2.9792,-2.9792,-2.9792,-2.9792,-2.9934,-3.0279,-3.1119,-3.2033,-3.2961,-3.3959,-3.4624,-3.4624,-3.5133,-3.5504,-3.5504,-3.5504,-3.5504,-3.5504,-3.5504,-3.5504,-3.5504,-3.5504,-3.5504,-3.5504,-3.5504,-3.5504,-3.5504,-3.5504,-3.5504,-3.5504,-3.5504,-3.5504,-3.5504,-3.5504,-3.5504,-3.5504,-3.5504,-3.5504,-3.5504,-3.5504,-3.5504,-3.5504,-3.5504,-3.5504,-3.1482,-3.1482,-3.1482,-3.1482,-3.1482,0.0,-3.0058,-3.0223,-3.0268,-2.9056,-2.928,-2.9669,-2.9594,-2.9579,-2.9579,-2.9579,-2.9579,-2.9579,-2.9579,-3.0582,-3.0881,-2.9714,-3.0118,-3.0477,-3.0417,-2.9968,-2.9629,-2.945,-2.8842,-2.7778,-2.6193,-2.5422,-2.4973,-2.4908,-2.4908,-2.4946,-2.5008,-2.5008,-2.4928,-2.4909,-2.5435,-2.5675,-2.5592,-2.6246,-2.6533,-2.6533,-2.6533,-2.6533,-2.6533,-2.6533,-2.6784,-2.7263,-2.7769,-2.8369,-2.889,-2.9454,-2.9767,-2.9792,-2.9792,-2.9792,-2.9792,-2.9792,-2.9792,-2.9792,-2.9792,-2.9792,-2.9792,-2.9792,-2.9792,-2.9792,-2.9792,-2.9869,-3.0139,-3.097,-3.1888,-3.289,-3.3808,-3.4691,-3.5359,-3.5504,-3.5504,-3.5504,-3.5504,-3.5504,-3.5504,-3.5504,-3.5504,-3.5504,-3.5504,-3.5504,-3.5504,-3.5504,-3.5504,-3.5504,-3.5504,-3.5504,-3.5504,-3.5504,-3.5504,-3.5504,-3.5504,-3.5504,-3.5504,-3.5504,-3.5504,-3.5504,-3.5504,-3.5504,-3.5504,-3.5504,-3.5504,-3.5504,-3.1482,-3.1482,-3.1482,-3.1482,-3.1482,0.0,-3.121,-3.124,-3.1106,-3.0298,-3.0238,-3.0178,-2.9669,-2.9579,-2.9579,-2.9579,-2.9579,-2.9579,-2.9579,-2.9804,-2.9864,-2.9609,-3.0118,-3.0313,-2.9804,-3.0103,-3.0108,-2.961,-2.9274,-2.8243,-2.6219,-2.633,-2.6142,-2.5448,-2.5435,-2.5674,-2.6138,-2.6138,-2.5925,-2.5444,-2.6072,-2.6051,-2.5623,-2.6249,-2.6533,-2.6533,-2.6533,-2.6533,-2.6533,-2.6533,-2.6559,-2.669,-2.7263,-2.7788,-2.8297,-2.8855,-2.9384,-2.9792,-2.9792,-2.9792,-2.9792,-2.9792,-2.9792,-2.9792,-2.9792,-2.9792,-2.9792,-2.9792,-2.9792,-2.9792,-2.9792,-3.0343,-3.097,-3.118,-3.1888,-3.289,-3.3808,-3.4177,-3.4543,-3.5359,-3.5504,-3.5504,-3.5504,-3.5504,-3.5504,-3.5504,-3.5504,-3.5504,-3.5504,-3.5504,-3.5504,-3.5504,-3.5504,-3.5504,-3.5504,-3.5504,-3.5504,-3.5504,-3.5504,-3.5504,-3.5504,-3.5504,-3.5504,-3.5504,-3.5504,-3.5504,-3.5504,-3.5504,-3.5504,-3.5504,-3.5504,-3.5504,-3.1482,-3.1482,-3.1482,-3.1482,-3.1482,0.0,0.0,-3.1016,-3.0836,-3.0178,-3.0043,-2.9953,-2.9639,-2.9579,-2.9579,-2.9579,-2.931,-2.9205,-2.9535,-2.9579,-2.9325,-2.8652,-2.916,0.0,-2.9131,-2.937,-2.9564,-2.9579,-2.9389,-2.8644,-2.7128,-2.6884,-2.6544,-2.608,-2.6025,-2.6163,-2.6533,-2.6533,-2.6382,-2.6025,-2.6395,-2.6362,-2.6092,-2.6332,-2.6533,-2.6533,-2.6533,-2.6533,-2.6533,-2.6533,-2.6533,-2.6546,-2.7118,-2.7661,-2.813,-2.8725,-2.9269,-2.9754,-2.9465,-2.9553,-2.9741,-2.9453,-2.9553,-2.9792,-2.9792,-2.9792,-2.9792,-2.9792,-2.9792,-2.9792,-2.9792,-3.0139,-3.0482,-3.0482,-3.1549,-3.2749,-3.3171,-3.4041,-3.4905,-3.5424,-3.5504,-3.5504,-3.5504,-3.5504,-3.5504,-3.5504,-3.5504,-3.5504,-3.5504,-3.5504,-3.5504,-3.5504,-3.5504,-3.5504,-3.5504,-3.5504,-3.5504,-3.5504,-3.5504,-3.5504,-3.5504,-3.5504,-3.5504,-3.5504,-3.5504,-3.5504,-3.5504,-3.5504,-3.5504,-3.5504,-3.5504,-3.5504,-3.1482,-3.1482,-3.1482,-3.1482,-3.1482,-3.139,0.0,0.0,0.0,-3.0058,-2.9968,-2.9968,-2.9968,-2.9968,-2.9909,-2.9774,0.0,0.0,0.0,-2.9579,0.0,-2.8083,-2.8338,0.0,-2.8607,-2.8712,-2.9011,-2.9549,-2.9574,-2.9142,-2.8288,-2.7395,-2.6857,-2.6769,-2.6589,-2.6533,-2.6533,-2.6533,-2.6533,-2.6533,-2.6533,-2.6533,-2.6533,-2.6533,-2.6533,-2.6533,-2.6533,-2.6533,-2.6533,-2.6533,-2.6533,-2.6546,-2.7118,-2.7544,-2.8022,-2.8583,-2.906,-2.9402,-2.8938,-2.9151,-2.9553,-2.9089,-2.9315,-2.9792,-2.9792,-2.9792,-2.9792,-2.9792,-2.9792,-2.9792,-2.9792,-2.9934,-3.0152,-3.0279,-3.1623,-3.289,-3.3115,-3.4409,-3.5504,-3.5504,-3.5504,-3.5504,-3.5504,-3.5504,-3.5504,-3.5504,-3.5504,-3.5504,-3.5504,-3.5504,-3.5504,-3.5504,-3.5504,-3.5504,-3.5504,-3.5504,-3.5504,-3.5504,-3.5504,-3.5504,-3.5504,-3.5504,-3.5504,-3.5504,-3.5504,-3.5504,-3.5504,-3.5504,-3.5504,-3.5504,-3.5504,-3.5504,-3.1482,-3.1482,-3.1482,-3.1482,-3.1482,-3.1452,-3.1377,0.0,-3.1405,-3.133,0.0,-3.1258,-3.1258,0.0,0.0,-3.0492,0.0,0.0,-2.9639,-2.9579,-2.952,-2.937,-2.8906,0.0,0.0,-2.9131,-2.9505,-2.9579,-3.0093,-3.0026,-2.9201,-2.8349,-2.7755,-2.7591,-2.6837,-2.6533,-2.6533,-2.6533,-2.6533,-2.6533,-2.6533,-2.6533,-2.6533,-2.6533,-2.6533,-2.6533,-2.6533,-2.6533,-2.6533,-2.6533,-2.6533,-2.6546,-2.7118,-2.7322,-2.7437,-2.7959,-2.8199,-2.8285,-2.8222,-2.8561,-2.9013,-2.895,-2.9315,-2.9792,-2.9792,-2.9792,-2.9792,-2.9792,-2.9792,-2.9792,-2.9792,-3.0419,-3.1254,-3.2105,-3.3101,-3.4109,-3.4986,-3.5359,-3.5504,-3.5504,-3.5504,-3.5504,-3.5504,-3.5504,-3.5504,-3.5504,-3.5504,-3.5504,-3.5504,-3.5504,-3.5504,-3.5504,-3.5504,-3.5504,-3.5504,-3.5504,-3.5504,-3.5504,-3.5504,-3.5504,-3.5504,-3.5504,-3.5504,-3.5504,-3.5504,-3.5504,-3.5504,-3.5504,-3.5504,-3.5504,-3.5504,-3.5504,-3.1482,-3.1482,-3.1482,-3.1482,-3.1482,-3.1482,-3.1482,-3.1482,-3.1482,-3.1482,0.0,0.0,0.0,0.0,0.0,0.0,-3.0761,0.0,0.0,0.0,-2.9579,0.0,0.0,0.0,0.0,0.0,0.0,0.0,-2.937,-2.9607,-2.8771,-2.8351,-2.8022,-2.771,-2.7351,-2.6973,-2.6533,-2.6533,-2.6533,-2.6533,-2.6533,-2.6533,-2.6533,-2.6533,-2.6533,-2.6533,-2.6533,-2.6533,-2.6533,-2.6533,-2.6533,-2.6533,-2.6772,-2.7023,-2.7327,-2.7557,-2.7844,-2.8055,-2.775,-2.8197,-2.8988,-2.9315,-2.9365,-2.9352,-2.9691,-2.9792,-2.9792,-2.9792,-2.9792,-2.9792,-2.9792,-3.0482,-3.1315,-3.1669,-3.289,-3.4095,-3.4543,-3.5067,-3.5504,-3.5504,-3.5504,-3.5504,-3.5504,-3.5504,-3.5504,-3.5504,-3.5504,-3.5504,-3.5504,-3.5504,-3.5504,-3.5504,-3.5504,-3.5504,-3.5504,-3.5504,-3.5504,-3.5504,-3.5504,-3.5504,-3.5504,-3.5504,-3.5504,-3.5504,-3.5504,-3.5504,-3.5504,-3.5504,-3.5504,-3.5504,-3.5504,-3.5504,-3.1482,-3.1482,-3.1482,-3.1482,-3.1482,-3.1482,-3.1482,-3.1482,-3.1482,-3.1482,-3.1482,0.0,0.0,0.0,-3.1422,-3.1285,0.0,-3.0896,-3.121,-3.0597,0.0,0.0,0.0,0.0,0.0,0.0,0.0,-2.7949,-2.8936,-2.9258,-2.8432,-2.8111,-2.7903,-2.7784,-2.7525,-2.7095,-2.6533,-2.6533,-2.6533,-2.6533,-2.6533,-2.6533,-2.6533,-2.6533,-2.6533,-2.6533,-2.6533,-2.6533,-2.6533,-2.6533,-2.6533,-2.6533,-2.6533,-2.6772,-2.7049,-2.7049,-2.7357,-2.758,-2.724,-2.7682,-2.8599,-2.9327,-2.9277,-2.9038,-2.9616,-2.9792,-2.9792,-2.9792,-3.0011,-3.0216,-3.0216,-3.0908,-3.1669,-3.1888,-3.3031,-3.4095,-3.4327,-3.4986,-3.5504,-3.5504,-3.5504,-3.5504,-3.5504,-3.5504,-3.5504,-3.5504,-3.5504,-3.5504,-3.5504,-3.5504,-3.5504,-3.5504,-3.5504,-3.5504,-3.5504,-3.5504,-3.5504,-3.5504,-3.5504,-3.5504,-3.5504,-3.5504,-3.5504,-3.5504,-3.5504,-3.5504,-3.5504,-3.5504,-3.5504,-3.5504,-3.5504,-3.5504,0.0,0.0,0.0,-3.1482,0.0,0.0,0.0,0.0,-3.1482,-3.1482,-3.1482,-3.1482,-3.1482,-3.1482,-3.1315,-3.0642,-3.1076,0.0,0.0,-3.1076,-3.1422,0.0,0.0,0.0,0.0,0.0,0.0,-2.8667,-2.9205,-2.9295,-2.8614,-2.7613,-2.7336,-2.7982,-2.7064,-2.6521,-2.6533,-2.6533,-2.6533,-2.6533,-2.6533,-2.6533,-2.6533,-2.6533,-2.6533,-2.6533,-2.6533,-2.6533,-2.6533,-2.6533,-2.6533,-2.6533,-2.6533,-2.6533,-2.6546,-2.6546,-2.6546,-2.6546,-2.6546,-2.6866,-2.7519,-2.8599,-2.895,-2.9038,-2.9616,-2.9792,-2.9792,-2.9792,-3.0419,-3.118,-3.118,-3.1815,-3.282,-3.3671,-3.3959,-3.4245,-3.5213,-3.5504,-3.5504,-3.5504,-3.5504,-3.5504,-3.5504,-3.5504,-3.5504,-3.5504,-3.5504,-3.5504,-3.5504,-3.5504,-3.5504,-3.5504,-3.5504,-3.5504,-3.5504,-3.5504,-3.5504,-3.5504,-3.5504,-3.5504,-3.5504,-3.5504,-3.5504,-3.5504,-3.5504,-3.5504,-3.5504,-3.5504,-3.5504,-3.5504,-3.5504,-3.5504,0.0,0.0,-3.1482,-3.1482,0.0,0.0,0.0,0.0,0.0,0.0,-3.1482,-3.1482,-3.1482,-3.1482,-3.1465,-3.1225,-3.1317,-3.1392,0.0,-3.139,0.0,-3.0911,-3.0642,-3.0417,0.0,0.0,0.0,-2.8667,-2.8801,-2.8831,-2.8607,-2.8689,-2.8483,-2.803,-2.8116,-2.7604,-2.6533,-2.6533,-2.6533,-2.6533,-2.6533,-2.6533,-2.6533,-2.6533,-2.6533,-2.6533,-2.6533,-2.6533,-2.6533,-2.6533,-2.6533,-2.6533,-2.6533,-2.6533,-2.6533,-2.6533,-2.6533,-2.6584,-2.6879,-2.6892,-2.6917,-2.8021,-2.8386,-2.8486,-2.9051,-2.949,-2.9792,-2.9792,-2.9998,-3.0419,-3.1044,-3.1888,-3.282,-3.3808,-3.4543,-3.5067,-3.5439,-3.5504,-3.5504,-3.5504,-3.5504,-3.5504,-3.5504,-3.5504,-3.5504,-3.5504,-3.5504,-3.5504,-3.5504,-3.5504,-3.5504,-3.5504,-3.5504,-3.5504,-3.5504,-3.5504,-3.5504,-3.5504,-3.5504,-3.5504,-3.5504,-3.5504,-3.5504,-3.5504,-3.5504,-3.5504,-3.5504,-3.5504,-3.5504,-3.5504,-3.5504,-3.5504,-3.1482,-3.1482,0.0,-3.1482,-3.1482,0.0,-3.1482,0.0,-3.1482,0.0,0.0,0.0,-3.121,-3.1317,-3.1392,-3.121,-3.1317,-3.1482,0.0,-3.1482,-3.1317,-3.0926,-3.0866,-3.0776,-3.0522,-3.0357,-2.9804,-2.8682,-2.8816,-2.8742,0.0,0.0,-2.8811,-2.8134,-2.8387,-2.8051,-2.6905,-2.6658,-2.6533,-2.6533,-2.6533,-2.6533,-2.6533,-2.6533,-2.6533,-2.6533,-2.6533,-2.6533,-2.6533,-2.6533,-2.6533,-2.6533,-2.6533,-2.6533,-2.6533,-2.6533,-2.6647,-2.6848,-2.6929,-2.7017,-2.713,-2.7645,-2.8084,-2.8461,-2.8825,-2.934,-2.9792,-2.9792,-3.0292,-3.0921,-3.1536,-3.2678,-3.3754,-3.4394,-3.5052,-3.5504,-3.5504,-3.5504,-3.5504,-3.5504,-3.5504,-3.5504,-3.5504,-3.5504,-3.5504,-3.5504,-3.5504,-3.5504,-3.5504,-3.5504,-3.5504,-3.5504,-3.5504,-3.5504,-3.5504,-3.5504,-3.5504,-3.5504,-3.5504,-3.5504,-3.5504,-3.5504,-3.5504,-3.5504,-3.5504,-3.5504,-3.5504,-3.5504,-3.5504,-3.5504,-3.5504,-3.5504]}]]